GFSSGP_sfc_dewp_000.txt.gz
Dewpoint
65 59 52 40 29 32 30 31 31 29 31 33 34 34 33 35 35 37 56 62 67 70 72 72 73 72 72 70 68 67 66 63 62 62 61 62 61 63 63 63 61 61 60 59 59 59 58 60 61
65 57 44 38 28 24 26 29 31 29 30 32 35 34 34 42 52 54 57 67 69 71 71 71 73 73 72 70 68 67 66 64 62 61 61 60 62 62 61 62 60 60 60 59 59 59 57 58 60
53 53 40 35 33 26 25 29 28 29 30 34 35 37 41 44 54 55 58 67 69 70 71 72 74 73 72 70 68 67 66 64 62 62 61 63 64 65 63 63 61 62 62 60 59 60 60 60 60
49 44 38 32 30 31 31 30 27 29 29 33 35 38 45 48 50 56 58 66 67 69 70 73 74 74 73 71 69 68 67 65 63 62 63 63 66 66 66 64 66 65 63 61 60 60 61 62 63
46 42 37 33 32 32 33 29 27 29 30 32 34 35 43 50 56 57 57 65 66 67 70 73 74 74 72 71 70 68 67 66 64 64 63 65 65 66 67 66 66 64 63 61 61 61 61 61 63
45 40 36 33 33 33 34 32 27 28 31 33 33 37 42 51 55 56 57 60 68 69 71 72 73 73 72 71 71 70 68 66 65 65 64 65 64 65 67 66 65 64 63 62 63 63 63 63 62
44 40 36 35 34 36 35 31 24 25 33 34 36 36 41 49 54 57 56 61 69 70 71 71 72 72 72 72 71 71 70 69 67 66 65 65 65 63 64 67 65 64 63 63 64 64 63 63 64
45 42 39 37 36 35 37 34 29 29 29 36 35 35 38 43 52 57 57 64 68 70 71 70 70 71 70 70 71 70 70 70 69 68 67 67 66 66 65 68 66 65 65 65 64 63 64 64 65
49 42 40 38 37 36 37 35 34 34 35 36 36 34 36 43 55 57 58 58 64 67 69 70 69 69 70 69 69 69 69 69 69 67 66 65 62 61 63 65 65 67 65 65 65 65 66 67 66
48 44 42 41 40 38 38 35 34 35 36 37 37 39 40 50 54 56 57 58 59 62 65 67 68 68 69 68 67 67 67 67 66 65 63 63 62 61 60 63 65 66 66 67 66 66 67 67 64
48 45 43 42 41 40 39 37 35 35 35 36 36 38 38 46 49 53 54 57 58 60 62 65 67 67 67 66 66 65 65 65 65 64 63 63 60 59 60 60 61 61 62 62 63 62 61 61 62
44 47 46 46 45 44 42 38 37 36 35 37 38 40 40 39 40 41 43 51 56 60 61 62 65 66 65 65 65 64 64 63 63 63 63 61 60 60 60 60 60 61 62 62 62 61 58 55 55
44 43 46 47 46 45 44 42 39 38 38 39 39 39 40 40 41 40 40 38 45 58 61 62 63 64 64 64 63 62 62 62 61 60 60 60 61 61 61 61 61 60 60 56 50 48 48 47 48
43 44 45 44 43 44 43 42 39 38 39 39 40 40 39 40 40 39 42 48 52 56 60 62 63 64 64 63 63 63 61 60 60 60 61 61 61 61 59 46 47 49 48 46 44 43 43 42 43
43 41 42 42 45 42 42 41 40 38 39 39 39 39 39 39 38 39 45 48 50 55 60 61 63 64 64 64 63 61 61 60 59 58 54 55 54 47 44 43 43 45 44 42 40 38 37 39 39
41 41 39 41 43 44 42 39 40 39 38 38 38 39 39 37 40 44 47 48 50 52 54 58 63 64 64 63 62 60 58 53 44 41 42 42 43 43 41 40 40 42 40 37 36 36 34 36 36
39 35 36 38 43 43 42 39 40 39 38 38 38 38 37 38 41 43 45 47 51 52 52 54 63 63 62 58 52 45 42 42 40 40 39 38 39 39 38 37 37 38 36 34 34 31 33 34 33
33 34 34 34 41 43 41 41 41 39 38 38 38 36 36 39 41 42 44 47 52 52 53 55 62 57 47 44 42 41 39 38 37 36 36 35 34 34 35 33 34 35 33 32 31 29 31 33 33
37 36 33 35 37 39 39 40 41 42 38 38 37 34 36 39 41 41 44 50 53 55 55 58 54 45 44 43 41 38 38 36 34 32 31 30 30 31 31 32 31 33 31 29 30 31 31 32 34
36 34 34 35 36 37 39 40 41 40 39 38 37 34 38 40 40 43 48 51 54 55 56 56 50 45 45 44 43 40 38 37 34 31 27 26 27 29 29 29 30 30 30 27 28 30 30 32 33
34 33 32 33 35 35 33 33 39 41 39 38 38 34 39 40 40 43 49 51 53 53 53 52 49 47 46 43 41 40 39 38 35 31 27 25 26 28 28 28 28 29 29 27 27 27 27 28 30
31 34 34 34 35 31 40 32 35 37 38 37 37 35 39 40 41 44 48 48 50 49 49 48 47 46 44 41 39 36 36 36 37 34 28 25 24 26 26 26 25 25 27 24 24 24 26 26 25
31 32 31 33 33 33 32 33 36 35 36 36 36 35 39 40 41 45 47 47 47 47 47 47 46 44 44 42 39 39 38 38 36 31 25 22 23 24 24 24 23 23 25 22 21 22 21 25 24
35 33 32 33 33 28 29 33 33 35 33 35 34 35 39 40 42 45 46 45 44 43 43 43 43 42 42 40 39 38 36 33 31 28 27 25 24 24 21 21 20 20 20 21 22 20 19 20 22
32 30 27 24 24 23 29 32 30 34 36 33 33 36 38 39 42 44 44 43 41 40 40 40 40 39 39 38 37 35 31 27 23 24 24 21 20 20 18 18 17 18 17 19 19 19 18 19 20
31 30 26 17 20 22 34 29 33 37 36 36 37 36 38 40 42 44 43 42 40 40 39 38 36 34 33 32 29 26 24 24 22 20 20 19 18 18 16 15 14 14 14 15 16 18 19 17 20
31 28 30 28 29 27 31 35 38 39 33 33 35 37 38 40 43 43 43 41 40 39 38 36 34 31 28 26 24 21 20 20 19 17 17 17 16 15 13 13 13 13 13 14 14 17 16 17 18
33 32 27 28 22 21 28 31 32 34 28 34 35 36 38 41 43 43 42 42 40 39 37 34 31 28 25 22 19 17 16 16 15 14 13 12 12 11 12 12 12 13 14 14 14 16 17 16 18
33 31 30 27 29 28 28 30 34 33 30 34 35 36 38 40 42 43 43 42 40 38 35 32 29 25 22 18 15 14 14 13 12 11 11 11 11 11 11 12 13 14 14 14 15 15 16 15 16
32 30 29 25 23 30 32 27 29 34 31 34 36 36 38 40 42 43 43 41 39 36 34 31 27 23 20 16 14 14 13 12 11 11 11 11 11 12 12 13 15 15 16 16 16 16 16 16 16

GFSSGP_sfc_dewp_003.txt.gz
Dewpoint
67 60 46 39 30 31 30 30 29 28 31 32 32 33 32 36 34 35 56 63 66 68 72 73 74 72 71 70 68 66 65 63 63 61 61 61 61 63 62 63 62 61 60 58 58 59 59 60 61
62 55 44 38 31 24 25 27 28 28 29 30 34 34 35 43 51 54 58 65 68 70 72 71 74 72 71 70 68 67 65 63 62 62 62 62 63 63 61 61 59 59 60 59 58 59 58 58 59
54 48 40 35 32 29 25 27 28 28 28 33 34 40 40 46 54 54 57 68 70 70 71 71 73 73 72 70 68 67 66 64 62 62 62 63 63 64 64 60 61 62 61 60 59 60 61 61 61
48 44 38 33 31 32 28 32 30 27 28 34 35 37 45 48 52 55 63 68 69 69 70 72 73 73 72 71 69 67 66 64 62 62 62 62 65 66 65 65 66 65 63 61 60 60 61 62 63
45 42 37 34 33 33 32 33 29 27 28 31 34 35 42 48 55 58 66 67 67 68 70 72 74 74 73 71 69 68 66 65 63 61 63 63 65 65 67 67 65 64 63 61 61 61 62 62 62
45 41 36 33 32 33 34 34 32 28 28 33 33 38 42 50 56 57 64 66 67 68 70 73 73 73 73 71 70 69 67 65 63 64 63 64 63 65 66 66 66 64 63 63 63 63 64 64 63
45 39 36 35 34 35 35 35 24 26 31 34 35 35 41 45 53 56 59 65 68 69 71 71 72 72 71 71 71 70 69 68 66 66 65 65 65 63 64 67 66 65 64 64 64 65 64 63 64
46 43 38 37 35 35 37 36 30 26 28 35 34 34 38 42 49 56 57 66 68 70 70 71 71 71 70 70 71 70 70 69 68 67 67 67 66 66 64 68 66 65 65 66 65 64 65 65 65
47 42 39 38 37 36 37 36 36 35 33 36 36 36 37 41 55 56 57 64 67 69 70 70 70 70 69 70 69 70 70 69 69 67 66 65 61 61 62 65 66 66 66 65 65 66 66 67 67
47 43 41 41 39 37 38 37 36 33 35 36 36 38 45 53 56 56 57 59 64 67 68 69 69 68 68 68 67 67 67 67 66 65 63 62 61 60 60 62 65 66 66 67 66 66 66 64 63
47 44 44 43 42 40 39 37 37 36 34 35 35 36 42 50 55 56 56 57 61 66 66 68 68 67 67 67 66 65 65 65 64 63 62 62 60 59 60 60 60 60 62 62 62 62 60 56 56
43 46 45 46 45 45 43 41 37 35 34 36 36 38 38 46 50 53 54 55 57 60 63 66 66 66 66 65 65 64 64 63 63 63 62 61 59 59 59 60 61 61 61 61 55 48 46 44 45
43 44 44 46 47 46 46 44 42 39 38 38 37 38 39 39 40 43 47 46 53 58 61 63 65 66 66 64 64 63 63 63 62 62 62 60 60 60 60 59 54 50 49 46 43 42 39 39 40
42 42 43 45 44 44 44 44 42 40 39 38 38 38 38 38 39 40 41 41 40 47 60 62 64 65 64 64 63 62 61 62 60 60 60 61 61 57 45 45 46 45 43 41 38 36 36 36 36
43 40 41 41 42 43 43 41 41 41 40 37 37 38 39 39 39 38 39 42 46 53 60 62 64 64 63 63 62 61 60 60 59 57 56 54 46 43 43 43 43 41 38 36 32 31 34 33 31
40 39 36 38 41 42 43 37 41 42 40 38 37 38 38 39 38 39 42 46 50 54 60 63 64 64 63 63 61 58 56 47 43 43 43 42 42 41 39 39 39 36 33 33 31 32 31 33 31
39 32 34 37 40 42 42 38 40 41 40 37 37 37 38 38 38 40 46 49 51 53 58 61 64 64 63 57 48 45 42 41 40 40 40 39 38 36 35 37 36 33 32 32 30 28 30 32 29
32 34 35 34 38 41 38 37 40 41 39 38 38 38 38 37 37 40 45 48 52 52 53 61 63 60 49 44 42 40 39 37 37 36 35 34 34 32 32 33 33 31 31 31 29 27 28 32 31
36 35 34 35 37 36 35 35 36 41 41 41 38 38 37 35 39 41 44 48 52 53 52 60 56 47 46 43 40 38 37 34 32 31 30 30 30 31 30 32 31 31 28 28 27 29 28 29 31
35 34 34 34 35 35 34 34 37 37 38 40 40 39 37 37 39 40 44 51 54 54 54 54 47 45 45 44 40 38 35 34 30 29 27 28 29 29 29 30 29 27 26 24 25 27 27 27 30
34 32 31 30 33 33 32 29 30 33 38 40 40 39 38 37 39 40 46 51 53 54 54 47 45 45 44 40 38 37 34 33 29 27 26 26 27 28 28 27 27 26 26 25 24 24 23 23 25
31 34 33 32 31 27 35 25 31 34 35 38 39 38 36 38 39 42 48 51 53 53 53 47 46 46 41 39 36 32 30 29 32 29 26 25 25 26 26 25 24 24 24 21 21 22 22 24 22
30 33 32 34 33 31 30 29 29 31 30 34 38 37 36 38 39 43 48 51 52 50 50 47 47 44 40 38 36 35 35 36 33 27 23 22 23 23 23 22 21 21 23 20 19 19 18 22 21
33 32 31 31 31 25 26 28 24 27 34 34 36 37 36 39 40 45 48 48 48 48 48 47 45 43 41 38 38 36 36 33 28 25 24 23 23 23 20 20 19 18 19 19 20 18 17 18 19
30 29 26 24 24 21 26 26 25 30 34 35 34 34 36 39 42 45 46 47 45 45 46 45 44 42 40 38 38 37 35 31 27 25 26 22 20 20 17 17 15 16 16 17 17 17 17 17 18
31 28 23 17 19 19 22 21 26 33 31 31 35 34 38 39 42 45 46 46 44 43 43 43 42 39 39 38 36 34 29 29 26 25 23 20 18 18 16 15 13 13 13 15 15 18 18 16 18
33 30 29 23 23 26 26 31 36 38 38 38 36 35 37 38 42 45 44 42 41 40 40 40 38 35 35 32 28 25 23 23 21 19 18 18 17 15 13 12 12 13 14 14 14 17 16 17 17
30 31 28 29 20 19 22 28 28 33 32 31 34 33 36 39 42 44 41 39 39 38 36 35 34 31 28 24 22 20 18 17 17 16 15 14 12 11 11 12 13 14 14 15 15 17 18 16 18
31 29 29 26 25 18 20 20 33 32 32 32 33 36 37 40 42 42 40 39 39 37 34 31 28 25 22 19 18 17 15 14 13 11 11 11 11 11 12 13 14 14 15 15 16 16 16 16 17
31 28 28 26 18 21 27 25 36 34 30 33 35 38 41 43 42 41 40 39 37 35 32 29 25 22 19 16 15 14 13 12 11 11 11 12 11 12 13 14 15 15 16 17 16 16 17 17 17

GFSSGP_sfc_dewp_006.txt.gz
Dewpoint
64 57 43 38 31 30 30 29 34 28 32 32 32 33 33 36 37 35 55 62 65 65 69 73 73 72 71 69 68 66 65 65 62 62 63 61 61 62 62 62 62 61 60 59 58 59 58 60 61
60 53 42 37 30 26 26 28 29 28 29 29 34 34 34 41 51 53 58 62 67 68 71 72 74 72 71 69 68 67 65 63 63 61 61 62 61 63 61 63 59 59 60 59 58 59 59 58 58
52 44 39 34 31 29 27 26 29 30 28 32 34 40 40 45 54 54 57 64 69 70 71 72 74 72 71 70 68 67 66 63 62 62 61 62 62 64 63 60 61 61 61 60 59 60 61 62 62
48 44 38 33 31 32 29 29 32 29 28 33 34 35 43 48 52 55 63 68 69 70 70 72 73 73 73 71 69 68 66 64 62 62 62 62 64 65 65 65 66 66 63 61 60 60 61 61 62
45 42 36 34 33 32 32 33 33 30 29 29 34 34 41 47 56 60 66 68 68 68 69 72 73 73 72 71 69 68 66 65 63 62 62 63 64 64 67 66 65 64 63 61 61 61 62 63 63
45 41 35 32 32 33 34 34 34 31 30 29 33 41 41 48 56 60 66 66 68 68 70 72 73 73 73 71 70 69 67 65 63 62 63 63 64 65 67 67 66 64 63 63 63 64 64 64 63
44 39 36 34 33 34 34 35 28 28 27 32 34 38 41 43 55 58 64 65 66 68 70 71 72 72 72 71 70 70 68 66 64 65 65 65 65 63 65 67 66 64 64 64 65 65 64 64 65
46 41 37 37 34 34 36 36 34 25 25 34 35 35 40 41 52 56 60 65 66 68 70 70 70 71 70 69 70 70 69 68 67 67 66 66 66 66 65 67 66 65 65 65 65 65 66 66 66
46 41 39 38 37 36 37 35 36 34 31 35 35 35 38 41 56 56 59 64 67 68 69 71 70 70 69 69 69 70 69 68 68 66 66 64 61 60 61 64 65 65 65 65 65 66 67 65 64
47 42 40 41 39 37 38 38 37 34 35 35 36 37 44 51 55 55 56 60 65 66 67 69 68 68 68 70 68 67 68 67 66 65 63 61 59 59 60 62 64 65 65 64 65 64 61 56 57
45 42 43 43 42 42 41 38 38 37 37 36 35 36 40 52 55 55 56 57 62 66 67 68 68 68 67 67 66 65 65 65 64 63 62 61 60 58 59 60 60 60 62 62 59 49 47 44 44
42 46 46 45 46 45 43 43 39 37 37 36 37 37 38 44 53 55 55 56 57 62 65 67 67 67 66 66 65 65 64 64 63 62 61 61 59 59 59 60 60 60 60 46 45 42 39 38 36
42 44 45 45 45 46 46 45 45 43 42 41 41 38 38 39 44 48 53 53 56 58 61 65 66 66 66 65 64 64 63 63 62 62 62 61 59 59 59 52 48 46 43 41 37 35 35 32 32
42 43 42 43 44 44 43 43 44 43 43 40 40 39 38 39 39 40 40 41 42 47 57 63 65 66 65 65 63 63 62 62 61 61 60 60 61 53 46 46 44 41 40 35 32 32 33 30 29
43 40 41 41 41 42 44 41 41 42 43 41 40 39 39 39 39 39 40 40 41 41 47 61 64 65 65 64 63 63 63 61 60 60 61 59 46 43 44 42 38 36 33 30 29 29 32 29 27
39 39 35 37 40 41 42 36 38 39 39 41 42 40 38 38 39 39 39 39 40 48 56 61 63 64 64 63 62 62 61 57 51 49 47 43 41 40 39 38 35 32 31 30 28 29 29 29 27
37 31 33 34 39 39 41 36 40 40 39 39 39 38 38 38 39 39 39 42 47 51 58 61 63 63 63 59 55 54 47 50 43 42 42 39 36 36 36 34 32 30 31 29 27 27 28 30 26
29 32 33 33 36 38 39 39 40 39 41 40 40 39 39 38 39 39 39 46 51 53 59 62 63 62 52 48 47 46 42 39 38 37 36 33 32 32 33 31 29 29 29 27 25 25 26 31 29
34 34 34 35 36 36 35 34 35 36 38 40 40 41 40 39 39 39 41 47 52 52 58 61 60 52 49 48 45 44 42 35 32 31 31 30 30 30 31 31 29 27 27 24 24 26 25 25 30
36 34 33 34 34 34 32 31 32 34 36 39 40 40 41 41 38 39 42 48 52 52 56 59 54 49 50 49 44 39 35 32 30 30 29 29 29 29 28 28 27 25 24 23 23 24 23 24 27
32 32 31 30 31 30 29 26 26 28 30 32 35 36 39 41 39 39 41 47 51 52 54 53 49 48 47 39 37 33 29 29 28 27 27 27 27 27 26 25 25 24 25 23 23 22 21 22 22
30 33 33 32 30 25 29 20 23 25 30 30 31 33 40 40 38 39 41 48 51 52 52 47 46 46 41 40 36 32 29 26 28 26 26 26 26 25 25 24 23 23 23 20 20 19 21 22 20
29 33 33 33 32 29 29 27 24 25 25 29 34 38 39 39 38 39 42 46 51 52 48 47 47 44 40 41 36 33 29 31 29 25 23 22 22 23 23 21 20 21 22 19 18 18 17 21 20
33 31 31 31 30 24 25 27 22 21 22 31 32 35 38 38 38 40 44 51 51 51 48 47 47 42 40 38 34 32 31 27 24 23 23 22 22 22 20 19 18 18 18 18 18 17 16 18 18
32 31 24 24 23 20 24 24 22 24 26 29 31 33 34 37 39 44 48 50 50 50 48 47 46 41 39 37 35 34 30 25 23 23 23 21 20 19 17 16 15 15 16 17 17 17 16 17 17
30 28 23 15 20 18 22 21 24 28 27 27 27 35 35 37 40 45 47 50 50 50 48 47 45 41 38 37 36 35 30 28 26 26 23 20 18 18 15 14 13 13 14 15 16 19 18 16 18
34 29 29 24 22 23 23 25 28 33 34 34 32 30 34 38 41 44 47 49 48 48 47 45 43 40 38 37 34 31 29 27 25 22 19 19 17 15 13 12 13 13 14 15 15 18 16 17 17
34 34 28 28 18 15 19 20 23 26 31 32 31 28 35 38 40 45 46 44 44 44 42 41 40 38 34 31 28 25 22 21 19 17 16 14 12 12 12 12 13 14 15 15 15 17 17 16 18
32 31 31 28 26 15 15 15 27 29 32 32 32 33 35 38 41 44 43 41 39 37 37 35 33 30 27 24 20 19 17 16 14 13 12 11 12 11 13 14 14 15 15 16 16 16 16 17 18
29 28 28 24 17 22 18 16 30 37 35 33 35 35 37 40 43 42 40 39 37 34 32 30 28 24 21 18 17 15 14 12 12 11 11 12 12 13 14 14 15 16 16 16 15 16 18 18 18

GFSSGP_sfc_dewp_009.txt.gz
Dewpoint
62 56 45 44 36 33 31 30 31 30 31 32 31 33 34 35 38 39 59 62 63 65 69 71 73 72 71 69 68 67 66 64 62 64 63 61 61 61 62 62 61 61 60 60 59 60 59 60 62
58 50 46 40 32 28 29 29 29 30 31 30 33 35 35 39 50 53 58 62 65 66 69 71 74 72 71 69 68 66 65 65 62 62 62 61 61 63 61 62 61 59 60 60 59 60 61 59 58
50 43 43 37 33 29 29 29 30 33 32 29 34 39 38 43 53 54 58 63 66 67 69 71 73 73 71 70 68 67 65 64 63 63 62 62 62 63 62 62 60 60 61 61 60 60 61 62 62
49 46 40 34 31 33 31 28 32 33 33 32 34 35 43 48 52 55 62 67 67 68 70 72 73 73 72 71 69 68 66 64 63 62 62 62 63 64 64 65 66 65 63 61 60 61 62 62 62
47 44 37 35 33 33 33 33 34 32 33 31 33 34 41 48 57 60 65 68 67 69 71 71 73 73 72 71 69 68 66 65 63 63 62 62 64 65 66 65 65 64 63 61 62 63 64 64 64
45 42 36 33 33 34 35 35 34 33 32 31 33 35 40 48 56 64 67 67 68 69 71 71 72 73 72 71 70 69 67 65 63 62 62 62 64 65 67 67 65 65 63 64 63 64 64 64 64
45 40 37 35 33 34 35 36 33 33 30 29 35 34 38 42 56 64 66 67 68 69 70 71 70 71 72 71 70 69 68 66 65 65 64 65 65 64 67 67 66 65 64 64 65 65 65 65 66
46 42 39 37 34 34 36 36 36 31 29 33 36 34 35 42 56 62 65 66 67 68 70 71 71 71 70 69 70 69 69 68 67 67 66 66 66 65 65 67 67 65 65 65 65 66 67 66 66
47 43 40 38 37 36 37 36 38 36 33 36 36 35 39 47 56 58 61 65 66 67 69 69 70 71 70 69 68 69 69 68 67 66 65 64 62 61 62 64 65 65 65 65 66 65 62 60 57
47 44 42 42 39 38 38 38 38 37 37 37 38 38 41 50 56 56 57 60 64 65 67 69 69 70 70 69 68 68 67 67 66 64 65 63 61 59 60 62 64 64 63 64 61 55 51 48 44
46 42 43 43 42 42 42 41 40 38 39 39 39 37 38 47 53 55 56 57 61 65 66 67 68 68 69 69 69 68 68 67 66 65 64 62 61 61 61 61 61 62 62 53 47 43 41 39 37
44 45 46 45 46 45 44 44 44 40 41 41 38 39 39 39 43 53 55 56 59 64 66 66 68 68 68 69 68 67 67 67 66 65 63 63 60 61 61 62 60 56 47 44 40 38 34 32 29
44 44 45 45 45 45 46 45 45 45 44 44 45 45 42 40 40 45 53 55 57 59 65 67 68 68 68 68 67 67 65 65 65 64 63 62 61 62 59 48 46 43 40 36 34 33 29 26 26
42 43 43 43 43 44 43 43 44 43 46 46 44 42 41 40 40 40 42 44 50 55 58 64 68 67 67 67 66 66 65 65 64 63 63 62 61 56 49 44 41 39 34 31 30 30 29 24 23
43 41 41 41 41 41 43 42 42 43 44 43 43 43 43 42 41 40 41 41 41 43 45 58 64 67 67 67 66 65 65 63 63 62 62 61 51 47 43 39 35 34 32 28 27 27 29 24 21
40 40 36 37 40 41 41 33 39 40 41 42 42 42 42 42 42 42 41 41 42 42 45 50 61 66 66 66 66 65 64 63 60 60 56 46 44 43 39 36 33 31 30 28 27 25 27 25 23
37 31 35 34 38 38 40 37 38 40 40 40 40 41 41 41 41 41 41 41 41 42 48 56 62 65 65 64 63 61 57 56 52 49 45 42 40 37 34 32 32 29 27 26 25 25 27 25 24
29 33 33 32 35 37 36 36 37 40 39 39 39 40 41 40 40 41 41 41 42 48 52 59 63 64 62 58 51 50 47 43 44 41 38 35 35 33 32 30 28 27 26 24 24 23 25 26 26
35 34 33 34 35 35 33 33 33 35 36 36 37 37 39 41 42 42 41 41 46 52 56 62 62 59 56 54 49 47 44 39 36 35 33 32 32 32 32 29 26 26 24 23 21 24 23 23 27
35 33 32 32 34 34 32 30 31 32 32 34 34 37 39 41 42 42 41 44 48 52 58 61 61 55 56 54 52 47 40 35 33 33 31 31 31 30 29 28 26 25 24 23 22 24 22 22 26
31 31 29 28 31 31 29 25 22 21 24 30 33 34 35 36 37 40 40 43 50 53 58 59 55 54 54 49 43 34 31 31 31 30 30 29 28 27 27 26 25 25 25 24 23 24 23 20 23
29 33 33 32 31 25 28 20 20 24 24 25 28 30 32 35 38 40 41 42 49 53 57 56 52 53 47 45 42 39 39 33 30 29 29 27 27 26 25 25 24 23 23 22 21 20 22 23 20
30 32 31 32 32 31 28 27 23 25 24 26 28 32 33 35 38 39 41 43 47 53 54 52 50 49 44 44 43 39 34 31 29 27 26 24 24 25 24 23 23 22 21 21 20 21 20 21 20
33 33 31 31 31 25 24 26 22 20 21 23 27 28 34 37 39 41 41 45 51 53 51 51 49 47 44 43 41 36 31 27 26 26 24 22 22 22 22 21 21 20 20 20 21 22 22 21 20
32 33 25 23 24 20 24 25 22 23 24 24 24 29 32 35 38 39 44 48 51 52 50 50 48 44 43 41 37 34 30 28 27 25 24 21 20 20 19 19 17 17 20 21 21 21 20 20 20
31 30 25 17 17 19 24 23 23 27 27 27 28 27 29 35 37 40 44 48 51 52 49 49 47 43 41 38 37 32 28 27 26 25 23 21 20 19 18 16 16 16 17 18 19 21 21 20 21
33 29 29 27 27 24 22 24 25 26 27 32 33 34 33 32 38 40 45 49 51 51 49 49 47 43 40 38 34 29 27 27 27 24 22 20 19 16 15 16 16 16 17 17 18 19 18 19 20
34 34 27 29 20 17 18 20 22 20 24 33 33 34 35 34 37 41 46 49 51 51 49 48 45 41 39 36 33 29 27 26 24 21 19 18 15 14 15 15 16 17 17 17 17 17 18 18 20
32 31 32 31 29 20 14 12 20 20 30 32 34 35 37 37 37 41 46 48 49 47 47 44 40 37 34 31 29 26 24 22 19 17 15 14 13 14 14 15 15 16 16 16 16 16 18 19 20
30 28 28 25 21 25 20 18 21 30 36 33 34 36 40 42 39 44 44 43 44 44 42 41 36 33 29 25 24 22 19 17 15 13 13 13 13 15 15 15 16 16 16 15 14 17 19 20 20

GFSSGP_sfc_dewp_012.txt.gz
Dewpoint
58 50 47 42 34 31 28 26 27 29 31 33 30 32 35 36 39 38 59 61 61 63 66 70 73 72 70 69 68 67 66 64 64 64 63 62 63 62 63 63 61 60 61 60 60 60 60 60 62
53 46 45 39 31 27 25 28 26 30 32 30 32 34 34 36 43 51 55 62 62 63 67 67 73 72 70 69 68 67 66 63 64 64 62 61 62 63 61 62 62 60 61 60 60 61 62 61 60
50 43 39 35 31 27 26 29 26 32 32 30 34 38 38 40 51 51 58 62 62 64 67 67 73 72 71 69 68 66 66 64 63 63 62 62 62 61 63 62 61 61 62 60 61 61 62 62 62
47 43 39 32 28 30 30 28 32 32 32 33 32 34 40 47 51 54 59 63 62 63 66 72 73 73 72 70 68 67 65 64 63 63 62 62 63 64 62 61 64 64 62 61 61 62 63 63 63
47 41 33 32 30 29 31 32 33 32 32 31 32 33 36 47 55 56 61 62 61 63 66 70 73 73 72 70 69 68 66 64 63 63 62 63 65 66 66 65 65 64 62 62 62 64 64 64 64
41 39 31 28 28 31 33 32 33 32 31 31 31 30 35 48 54 60 62 62 62 63 66 67 72 73 72 71 70 69 67 65 63 63 62 62 65 66 66 66 65 64 63 64 64 65 65 65 65
39 35 29 29 28 29 32 33 32 31 30 30 33 31 35 42 56 62 62 62 64 64 66 66 68 70 72 71 70 69 67 66 64 63 63 65 65 65 68 67 66 64 65 65 65 66 66 67 67
44 38 31 32 29 30 32 34 33 32 31 31 35 31 33 43 57 61 62 62 63 64 65 65 65 66 68 68 70 69 69 68 67 67 67 66 66 65 67 67 66 65 65 65 66 67 65 64 63
48 37 31 32 32 30 35 34 35 35 33 35 35 36 39 46 56 59 61 62 62 63 65 65 65 66 68 66 67 69 68 67 67 66 65 63 59 59 59 64 65 65 65 65 65 60 57 54 54
42 37 33 33 35 34 34 36 35 36 35 35 37 38 39 45 51 55 57 58 60 62 63 66 66 67 67 65 66 64 62 63 62 62 62 60 59 56 59 62 64 64 64 61 56 52 47 53 46
42 38 35 40 40 39 37 39 39 37 36 36 36 37 40 41 44 50 51 53 58 60 63 65 67 68 68 66 65 64 62 63 63 62 62 59 58 59 59 59 60 62 62 55 51 48 43 41 37
39 40 40 40 43 44 42 42 41 39 36 36 40 40 43 43 42 41 48 51 55 60 62 65 67 68 69 67 66 64 62 63 63 63 62 59 58 60 59 60 62 58 52 50 46 43 37 32 28
41 38 40 42 44 43 42 41 41 40 41 43 44 44 45 44 43 42 42 49 53 57 61 64 66 68 68 68 66 64 63 63 63 63 62 59 60 61 60 53 49 47 45 42 40 35 29 26 25
39 41 41 41 40 40 40 39 39 39 40 40 41 41 42 43 43 42 42 43 48 53 57 63 65 67 68 69 67 65 63 62 63 63 60 61 60 61 53 46 44 42 38 33 29 28 28 24 22
41 39 37 36 37 38 40 38 37 37 37 37 38 38 39 40 42 43 43 42 41 44 49 55 62 66 67 68 67 65 63 63 63 62 61 61 60 53 46 40 38 35 31 28 28 27 27 25 22
37 37 33 34 37 36 36 30 32 39 38 38 37 36 36 37 38 40 41 42 43 42 43 44 53 62 67 68 66 65 63 63 62 62 62 59 51 46 41 38 35 30 30 29 27 25 26 25 24
34 27 31 32 35 36 36 33 35 36 39 38 36 37 38 39 38 38 40 41 43 42 42 45 49 55 61 64 66 65 64 64 62 61 55 50 45 39 35 34 32 29 28 27 23 24 24 24 24
26 30 29 28 31 35 34 33 34 36 36 35 35 37 39 40 40 40 40 41 42 43 43 45 52 56 60 64 65 65 61 57 55 53 48 43 39 37 34 32 29 28 27 24 24 23 24 24 23
32 31 30 31 34 33 31 30 31 32 32 32 33 34 35 37 40 41 43 44 44 44 46 49 55 59 62 63 61 58 53 50 46 42 39 37 34 33 33 31 28 27 25 23 21 23 23 23 23
32 31 29 29 31 31 29 28 29 29 29 29 30 31 32 34 35 39 41 42 43 44 49 52 57 60 61 62 61 59 54 48 43 37 34 34 33 33 32 31 28 27 25 24 24 26 23 23 23
31 31 29 28 29 30 30 27 23 22 23 24 25 27 27 28 31 35 37 40 44 46 50 54 59 60 60 61 58 52 44 39 33 33 33 32 30 29 30 29 27 27 27 26 25 24 23 22 23
28 29 29 29 29 25 27 20 20 21 22 23 24 26 27 29 30 32 36 36 41 46 51 57 60 58 60 58 51 47 48 45 35 32 31 30 29 28 26 26 25 25 24 24 21 20 22 23 21
29 31 29 29 29 28 26 28 20 22 22 23 24 25 25 28 29 32 33 36 39 46 54 59 59 58 58 53 52 53 50 45 32 30 28 27 27 27 25 24 25 23 22 22 22 22 21 22 21
32 30 30 29 28 26 24 22 20 18 19 20 23 23 25 27 32 33 38 37 39 47 55 59 57 57 54 53 54 52 46 33 29 29 27 26 25 24 23 23 23 22 22 22 23 24 23 23 22
32 30 26 23 24 20 16 19 20 20 21 22 21 22 25 27 30 32 36 40 42 49 54 57 57 54 52 50 49 44 39 32 29 28 27 26 23 23 23 21 20 20 22 23 23 23 23 22 21
30 29 23 16 12 14 16 20 17 19 22 24 24 28 33 35 35 32 36 41 44 50 53 55 55 51 50 49 43 38 33 35 29 29 27 25 24 22 21 19 18 17 18 19 20 22 22 22 21
30 29 29 27 23 24 20 21 21 21 23 23 24 33 34 35 37 36 36 42 45 49 51 53 53 52 50 46 41 36 33 34 30 29 28 25 23 19 19 18 17 17 17 18 19 20 18 19 21
32 30 28 30 19 16 13 17 17 14 17 22 30 31 31 33 35 38 36 42 46 49 51 51 51 50 47 42 37 31 32 30 29 27 25 23 19 17 18 17 17 17 17 17 18 18 18 18 20
31 30 33 29 28 19 15 12 13 15 18 17 28 30 31 36 38 39 38 41 47 50 51 50 49 47 44 39 32 30 29 27 25 24 22 20 17 16 15 15 15 15 15 16 16 16 17 19 20
27 26 27 27 23 28 24 20 18 19 24 34 29 28 34 39 40 41 41 45 48 50 50 49 47 44 41 33 32 28 27 25 23 20 18 16 15 15 15 14 15 15 15 15 13 15 18 20 20

GFSSGP_sfc_dewp_015.txt.gz
Dewpoint
60 47 44 42 34 32 28 27 25 26 26 28 32 30 33 36 37 39 58 59 59 64 68 69 73 72 70 69 67 67 65 64 66 65 64 66 65 65 64 63 62 62 61 61 61 62 61 61 61
52 44 43 38 32 27 26 26 26 22 29 31 30 32 32 35 41 52 56 60 59 63 67 67 73 72 70 69 68 67 64 65 65 64 62 62 63 62 62 62 62 62 61 61 61 62 63 63 63
51 43 38 36 31 27 25 28 27 27 30 30 32 35 35 39 48 50 57 59 59 62 65 68 73 72 71 69 68 67 65 63 65 63 62 62 63 61 63 62 62 63 61 61 62 63 63 63 63
45 42 36 32 29 28 27 27 27 29 28 32 33 32 38 44 49 52 57 58 58 62 64 71 73 72 71 70 68 66 65 63 63 63 63 63 63 62 63 62 63 64 62 62 63 63 64 64 64
45 37 33 31 28 26 26 29 29 29 29 30 32 32 35 47 52 56 58 57 58 61 66 69 73 72 72 70 68 67 65 64 64 63 62 65 65 66 66 64 65 64 63 63 63 64 65 64 64
38 35 30 26 26 27 27 29 29 29 28 28 29 32 35 48 51 56 59 58 57 60 64 68 72 72 72 71 69 68 66 64 64 63 62 64 64 67 67 66 65 64 65 64 65 65 65 65 66
40 35 29 28 26 24 26 31 30 29 28 28 29 31 35 41 55 58 58 58 59 60 62 67 69 70 71 71 70 69 67 66 65 64 63 66 65 67 67 67 66 65 65 65 66 67 67 67 66
41 36 31 30 24 25 26 29 31 29 29 31 32 29 32 47 55 57 57 58 59 60 62 63 66 68 67 68 70 69 69 68 66 66 67 67 66 67 68 68 67 65 65 66 67 65 64 62 59
46 38 32 31 27 27 28 29 32 31 30 30 31 32 39 45 53 56 57 58 59 60 61 61 62 63 66 66 67 69 68 67 67 66 66 63 59 60 61 64 66 66 65 66 61 57 53 54 55
41 35 31 28 27 29 30 33 32 33 32 29 33 35 38 43 48 53 54 56 57 59 60 61 62 62 66 66 66 64 62 62 59 60 61 58 57 56 58 62 65 64 65 60 56 50 49 53 47
39 35 31 30 37 37 35 32 33 33 34 32 31 34 37 39 43 47 49 50 55 58 60 62 63 63 64 63 66 62 61 62 61 60 60 56 54 56 58 60 60 62 63 57 54 51 46 43 38
35 35 34 35 37 40 38 36 33 35 35 34 34 36 38 40 40 40 44 47 49 56 59 62 64 66 65 65 64 63 60 61 61 61 60 57 56 59 57 57 61 60 56 53 50 46 41 34 30
38 37 32 36 38 39 39 38 38 38 39 37 37 39 41 40 40 41 41 43 48 53 57 61 64 66 67 65 65 63 60 61 61 61 61 57 56 58 58 57 55 52 49 46 43 38 32 28 27
37 38 37 38 38 38 38 37 36 36 37 37 38 38 39 41 41 41 41 41 44 50 55 58 62 65 66 66 66 64 61 61 60 63 61 57 58 60 56 53 50 47 43 37 32 30 30 28 26
40 38 37 36 36 36 37 36 35 36 35 34 34 35 36 37 38 40 41 41 41 43 50 54 60 63 65 67 67 64 63 60 62 63 60 59 60 58 53 47 45 42 35 31 31 29 29 28 25
37 36 33 32 34 33 34 30 30 33 35 35 34 33 33 33 35 36 39 41 42 42 42 48 55 60 63 66 67 66 63 61 63 62 61 61 59 55 49 45 41 36 34 33 30 27 29 29 27
32 28 30 30 32 33 35 33 32 35 34 33 35 34 35 35 34 35 36 38 41 41 43 43 47 54 61 66 67 66 64 63 63 62 62 60 53 47 41 41 37 33 33 31 26 28 27 28 29
27 29 29 26 27 33 32 31 31 32 33 34 34 33 34 35 36 37 36 36 38 41 43 43 46 48 55 63 65 66 65 65 63 62 58 53 46 40 41 38 34 33 32 29 28 27 28 27 27
30 28 26 27 28 30 29 28 27 28 29 30 31 31 32 32 34 38 40 39 38 40 42 44 44 50 52 59 65 65 63 63 60 55 51 46 41 41 41 36 33 32 30 28 26 28 27 28 26
31 29 28 28 28 29 28 27 27 27 27 27 28 28 29 30 31 34 36 41 41 42 44 44 46 51 55 62 64 64 61 58 54 47 42 37 36 38 38 36 34 32 31 29 29 31 28 28 26
30 29 28 27 28 28 28 26 24 24 26 25 25 27 27 28 28 30 32 36 44 43 45 45 48 53 58 63 62 60 55 47 45 41 38 35 34 36 36 35 32 33 34 32 31 30 28 28 28
28 28 28 28 28 24 26 20 18 15 17 21 23 24 24 25 25 28 29 33 39 44 48 48 51 55 58 61 60 57 51 47 46 39 34 32 33 34 33 31 31 31 30 30 27 25 26 29 26
29 30 29 29 28 26 23 24 20 14 13 15 18 24 25 27 27 26 29 33 35 42 49 52 53 56 58 60 60 56 52 52 44 34 30 29 30 32 31 29 31 29 28 27 27 27 25 24 24
31 29 28 28 27 25 22 20 18 14 10 14 16 20 23 23 25 29 31 32 35 42 50 54 55 57 58 60 57 53 55 45 37 32 29 29 29 30 29 28 29 28 27 27 27 28 26 24 23
31 28 27 25 26 21 15 16 17 15 15 16 18 20 21 23 27 28 30 33 38 42 48 54 56 56 58 58 54 54 54 44 38 32 30 28 28 28 28 28 25 25 27 27 26 26 25 23 24
28 28 24 15 13 13 16 15 14 17 16 18 18 21 23 26 33 36 37 32 38 45 48 52 55 56 56 55 55 55 45 43 37 32 28 28 28 28 27 25 24 23 22 22 23 24 25 23 25
29 29 28 26 22 21 17 16 16 16 16 17 19 22 21 28 33 35 38 37 35 41 45 52 54 56 55 54 52 46 42 36 34 31 29 29 28 26 24 23 21 20 20 20 20 21 20 21 23
30 29 27 30 20 15 12 12 14 13 15 16 18 20 22 30 31 34 38 39 37 42 47 51 53 54 54 51 43 39 36 33 32 30 29 28 25 23 22 21 20 20 19 18 18 20 19 19 22
30 30 32 27 28 22 17 15 16 16 18 19 18 21 28 29 34 36 39 39 39 44 48 50 52 52 52 45 38 36 35 35 29 29 27 24 21 21 20 19 18 17 17 17 16 17 18 19 20
27 28 26 27 24 27 26 22 21 19 20 21 22 29 25 26 34 37 40 41 41 46 49 50 52 51 48 41 36 33 31 29 29 25 23 21 20 19 18 17 17 16 16 15 14 15 16 18 20

GFSSGP_sfc_dewp_018.txt.gz
Dewpoint
63 54 48 48 41 37 32 31 28 30 28 27 31 31 30 32 40 47 59 59 65 68 70 70 72 71 70 68 68 67 65 66 67 68 68 68 67 66 64 63 62 62 61 62 63 63 63 63 64
58 51 48 45 37 32 29 30 29 29 28 31 30 29 30 33 51 54 58 59 65 68 69 69 72 72 70 68 68 66 64 66 65 63 64 64 63 63 63 63 63 61 61 62 62 63 63 63 63
57 49 44 40 36 30 30 29 29 29 30 30 29 31 32 43 49 54 59 58 64 66 67 69 72 72 70 69 68 66 65 66 66 64 64 64 63 63 63 63 64 62 62 63 63 64 64 64 64
47 46 41 33 30 31 30 28 29 29 30 30 32 31 37 46 50 56 57 58 61 65 67 72 72 72 71 70 68 67 64 65 64 65 65 64 63 63 63 64 65 64 63 63 64 65 65 64 64
47 44 36 32 30 30 28 27 29 31 29 30 31 31 40 50 54 56 57 57 60 65 69 71 73 72 71 70 68 67 65 64 64 64 66 66 66 65 63 65 65 64 64 64 65 66 66 65 65
42 40 33 30 31 29 28 27 29 30 29 28 29 29 40 51 53 57 57 56 60 68 68 70 72 72 72 70 70 68 66 65 65 64 64 66 65 66 67 66 65 65 65 65 66 66 66 67 67
42 38 33 30 29 27 26 27 29 30 29 28 29 27 41 52 56 58 57 56 59 65 68 68 69 70 71 70 70 69 67 67 66 66 66 66 67 69 67 66 66 66 65 66 68 67 66 66 64
42 40 35 31 29 27 28 26 31 31 30 30 32 28 37 53 57 58 57 57 58 61 67 68 68 69 69 69 70 69 69 67 67 67 68 66 67 69 68 68 68 66 66 67 65 65 63 60 57
44 39 35 33 31 30 29 28 31 32 30 30 31 31 43 52 55 56 57 58 58 60 62 66 68 68 67 67 68 69 68 67 66 67 66 65 62 65 66 66 66 67 66 65 61 57 55 57 58
41 40 38 36 31 30 33 29 31 32 31 30 30 34 42 45 50 55 56 57 58 59 60 61 65 67 65 66 67 66 65 64 63 63 63 62 59 60 61 64 66 66 65 62 58 53 56 55 46
40 37 35 32 30 35 38 37 34 32 34 34 30 33 38 39 45 49 52 55 56 58 60 61 62 63 65 65 65 64 63 61 60 60 61 59 57 59 61 62 63 63 62 57 55 51 44 39 35
36 36 36 36 35 37 38 38 36 34 33 35 35 36 37 39 40 44 46 47 54 57 59 61 62 64 65 65 65 63 62 62 61 61 60 55 57 56 57 60 61 62 60 52 48 45 37 31 28
35 35 34 34 36 36 38 38 38 38 38 37 37 37 38 40 40 41 41 44 47 55 58 61 62 65 65 66 65 62 61 61 62 61 60 57 58 59 58 58 56 52 48 45 41 34 31 29 27
38 38 37 37 36 37 37 36 37 36 37 37 38 38 38 39 41 41 42 41 41 49 56 60 63 66 66 65 65 63 61 61 61 61 61 58 58 59 56 53 51 46 41 35 32 29 31 29 26
39 38 38 37 37 36 37 35 36 37 37 35 34 35 37 37 39 40 41 42 41 44 53 57 61 66 66 65 66 64 63 61 62 62 61 58 60 55 53 49 47 41 34 33 32 29 30 29 28
38 38 35 33 35 35 35 31 33 34 35 35 35 34 33 35 37 37 38 40 42 42 47 54 59 63 65 65 66 66 63 63 62 62 61 59 57 52 48 45 42 37 35 34 30 29 31 30 29
34 30 31 32 34 33 33 32 34 34 34 34 35 34 34 33 34 33 35 37 39 42 42 49 57 61 63 65 66 66 66 64 64 62 62 60 55 51 47 44 38 35 34 31 28 29 29 28 28
29 29 29 28 31 32 32 32 32 32 31 32 34 35 35 35 35 36 35 35 37 38 42 43 48 57 62 65 65 67 65 64 64 62 61 53 48 42 40 40 35 35 33 30 30 29 29 28 27
31 30 28 28 28 28 27 27 28 29 28 28 30 31 32 33 34 35 37 38 39 36 39 43 46 47 55 64 64 65 63 63 63 58 54 48 42 41 40 37 35 34 31 28 27 28 28 28 27
31 30 29 29 28 28 28 27 28 28 28 28 27 27 29 30 31 32 34 38 40 40 38 43 45 47 48 59 64 65 63 62 56 52 47 44 41 41 37 36 34 32 31 30 29 29 30 28 27
31 30 29 27 29 28 27 25 25 26 28 28 28 27 27 28 29 29 30 34 40 40 42 45 45 47 50 56 64 59 54 50 47 43 39 39 37 37 36 34 34 33 35 33 30 28 27 28 27
29 29 29 28 28 24 27 22 22 21 19 24 24 25 25 25 27 28 29 29 34 41 42 45 46 48 53 63 61 57 55 50 47 43 45 36 34 35 34 34 33 33 33 30 27 27 26 28 25
29 32 29 30 28 26 25 24 21 20 18 15 18 22 25 27 27 27 28 29 29 32 43 44 46 50 57 63 61 57 52 51 43 39 39 34 33 33 32 32 32 31 31 26 26 26 24 25 26
31 30 29 28 27 19 24 21 17 16 17 15 16 18 20 22 24 28 30 33 33 33 39 49 47 52 58 62 60 57 52 48 38 37 36 33 32 32 31 31 31 29 29 28 28 27 25 24 24
32 29 23 22 24 18 20 19 16 17 18 17 17 18 19 20 25 29 36 38 36 35 39 50 49 54 58 60 60 55 52 42 37 36 35 29 29 30 30 31 31 29 29 29 28 27 25 24 23
30 29 24 17 17 19 21 19 17 17 18 17 18 19 20 21 24 34 36 39 39 38 42 49 52 55 57 59 56 53 44 39 38 37 33 30 28 28 28 27 28 26 25 26 26 26 26 23 24
30 27 28 26 23 19 19 17 17 18 17 18 17 18 20 22 29 33 36 38 40 39 43 50 54 55 57 58 53 49 43 40 38 39 31 29 28 26 26 25 23 23 22 22 22 24 22 21 22
30 29 27 29 13 15 16 15 16 17 16 17 21 18 21 23 30 32 36 38 40 40 42 50 54 55 57 55 52 43 40 38 36 31 28 28 26 26 23 22 22 21 20 19 20 21 19 19 21
30 29 30 28 27 20 18 16 21 20 21 20 21 23 27 31 32 35 37 39 41 40 43 48 52 55 54 42 42 39 36 34 31 29 27 25 23 23 22 22 20 19 19 18 18 17 18 19 20
30 28 27 26 20 25 24 21 24 24 22 23 20 21 23 29 30 34 37 39 41 41 45 49 51 54 42 39 37 34 34 31 29 26 24 22 22 21 20 20 19 18 18 15 14 15 16 18 19

GFSSGP_sfc_dewp_021.txt.gz
Dewpoint
63 59 53 44 37 35 32 32 33 26 26 31 31 29 30 32 37 45 59 66 70 70 70 70 72 72 70 68 67 66 66 66 67 68 70 69 68 65 64 63 62 61 62 63 64 64 64 64 64
61 57 46 41 35 32 32 32 31 26 30 29 29 29 29 46 53 56 58 69 70 70 70 69 72 71 69 68 67 66 68 66 67 68 67 66 66 64 64 63 62 62 62 63 63 63 63 63 63
60 55 41 39 35 31 32 31 28 31 29 29 29 31 31 48 54 57 59 68 70 69 69 70 72 71 70 68 67 66 67 65 66 67 66 65 64 64 64 65 63 63 63 64 64 64 64 64 64
51 45 40 33 32 33 32 31 28 30 29 29 31 30 43 51 53 58 60 68 68 68 69 71 72 71 71 70 67 67 67 65 65 66 66 66 65 64 65 65 64 64 64 65 65 65 65 64 65
47 43 36 32 30 31 31 31 28 30 29 29 32 31 45 53 57 57 58 66 66 67 70 71 72 72 71 70 69 67 67 65 66 67 66 65 65 65 65 66 65 64 65 65 66 66 66 66 66
41 39 33 33 33 32 30 30 28 29 30 29 29 29 43 53 56 57 57 63 67 68 69 70 71 72 71 70 70 68 67 67 66 66 67 66 67 66 66 66 65 66 65 66 66 66 67 67 67
40 36 33 32 30 30 30 30 28 29 29 28 29 27 50 56 56 57 56 67 67 68 69 70 70 70 70 70 69 68 68 68 67 67 67 66 69 69 67 66 66 66 65 67 68 67 66 65 63
42 40 36 34 31 30 30 29 30 30 29 31 32 28 51 55 57 58 56 64 67 68 68 69 69 70 69 69 69 68 68 68 68 68 68 66 68 68 68 68 68 66 66 67 66 65 64 61 57
43 38 36 36 34 33 32 32 30 33 30 30 31 34 49 55 57 56 57 58 66 67 68 68 69 69 69 68 68 68 68 67 67 67 66 65 66 67 67 66 67 67 67 65 63 60 58 58 59
39 39 38 38 35 33 35 37 36 31 31 31 31 41 47 52 55 55 57 57 58 66 67 67 68 68 68 68 67 66 66 65 65 65 64 63 61 64 65 64 66 67 67 64 60 56 56 52 45
40 38 40 40 36 35 38 37 38 34 32 31 30 32 42 47 50 55 56 57 57 59 66 67 67 68 67 67 67 65 64 63 62 63 63 61 59 62 62 63 64 63 63 60 56 50 42 36 32
37 38 38 38 38 37 37 39 39 38 34 38 36 36 36 39 46 50 53 55 57 58 60 63 67 67 66 66 65 64 63 61 60 61 61 57 57 59 60 61 61 61 61 55 50 43 31 28 26
35 36 37 37 37 36 37 37 38 38 39 39 39 39 39 38 40 41 45 46 54 58 59 61 64 65 65 66 64 63 62 62 60 60 60 55 56 56 58 59 60 56 48 44 34 31 30 28 25
37 38 38 38 38 38 37 36 37 37 38 37 36 36 38 38 40 41 41 42 43 57 59 61 63 65 65 66 64 63 62 62 61 61 59 56 58 58 56 53 50 44 37 33 31 29 30 28 26
40 38 39 39 39 37 37 36 36 38 38 38 37 35 35 37 38 40 42 42 42 46 58 61 62 65 65 65 64 62 62 61 61 60 59 57 58 56 52 49 43 37 33 32 28 29 29 29 27
38 38 36 37 37 38 36 32 36 37 37 37 37 37 36 36 37 38 39 39 41 42 53 61 62 65 66 65 65 64 64 62 62 61 60 58 56 52 49 46 39 36 34 31 29 29 29 28 27
36 31 33 34 34 36 35 33 35 35 34 33 35 36 36 35 35 36 38 38 38 40 42 57 63 65 65 65 65 65 64 63 63 63 60 56 53 49 47 43 37 34 32 30 29 29 28 26 26
30 31 30 29 31 32 32 32 34 34 32 31 32 35 35 35 35 35 35 36 38 38 41 49 60 65 65 65 65 64 65 63 63 61 60 55 51 47 44 38 35 33 31 30 30 28 29 26 25
33 30 30 30 30 29 28 28 28 29 29 29 29 31 31 33 36 35 35 37 35 36 37 42 55 62 65 65 64 64 63 63 63 61 55 49 45 42 39 36 33 33 31 29 27 28 26 27 26
33 30 30 30 30 29 28 27 28 29 29 29 29 29 30 31 32 33 34 34 37 38 38 38 47 59 63 65 65 65 64 62 60 55 50 46 43 41 37 34 34 31 30 29 29 30 29 27 26
31 30 30 29 29 28 27 25 25 27 28 28 29 29 29 28 29 30 31 31 33 37 40 41 43 48 63 64 64 59 56 52 50 49 47 44 42 39 36 34 32 31 33 31 28 28 28 27 26
29 30 30 30 27 24 27 22 25 24 22 24 28 28 28 28 28 28 29 29 30 33 40 42 44 46 49 63 63 61 60 57 51 47 45 42 39 36 35 33 32 33 33 29 28 27 27 29 25
30 32 29 29 27 25 25 22 23 24 21 19 19 23 26 28 27 27 28 30 30 30 36 42 44 46 50 63 62 62 59 52 47 45 41 37 36 35 34 33 33 32 31 27 26 25 24 25 26
31 29 28 28 26 16 23 22 18 18 18 17 16 17 20 23 24 26 29 33 34 34 32 41 43 46 58 62 61 61 56 45 44 44 40 36 34 34 34 32 31 30 27 28 28 26 24 25 24
30 26 17 16 19 17 23 23 20 18 18 17 17 17 18 21 20 26 36 36 38 39 39 38 46 45 60 61 59 56 52 46 46 43 41 35 34 36 32 31 29 28 29 29 28 27 24 24 24
30 27 19 16 16 20 22 20 19 21 20 20 19 18 18 19 21 30 35 37 39 39 40 40 43 47 59 60 58 55 50 47 45 44 39 36 34 33 33 30 28 28 28 27 27 27 26 23 25
29 26 28 23 23 15 20 19 19 19 18 18 19 20 20 19 22 33 36 38 38 39 40 40 44 50 58 60 58 53 46 44 42 41 36 34 32 33 30 27 27 26 26 25 25 25 20 21 23
29 30 22 21 11 15 18 17 17 17 18 22 21 22 28 27 25 33 36 38 39 40 41 41 44 53 57 57 55 47 44 43 40 36 33 33 31 29 28 26 24 23 23 22 23 21 20 19 22
29 28 28 26 24 17 18 19 19 20 22 22 22 23 24 29 31 35 36 39 40 40 41 42 50 54 55 52 46 45 43 39 36 34 33 33 30 28 26 26 25 23 20 19 20 20 19 19 20
30 28 27 24 17 23 20 21 24 23 24 25 27 28 29 31 32 32 35 39 40 40 41 43 48 53 48 45 43 42 39 36 35 32 30 29 27 27 25 25 22 19 19 17 16 16 17 18 19

GFSSGP_sfc_dewp_024.txt.gz
Dewpoint
62 58 54 43 34 35 32 33 35 31 26 30 30 29 29 37 35 39 60 67 70 70 70 70 72 71 70 68 67 67 68 69 70 70 69 68 67 66 63 62 62 62 63 64 65 65 65 65 64
61 55 45 41 35 32 32 33 32 31 29 29 29 29 30 48 53 60 64 69 70 70 70 69 72 70 69 68 67 67 67 67 68 70 69 68 66 64 62 62 61 62 62 63 63 64 64 63 64
58 54 41 38 35 32 32 33 30 29 29 29 29 31 38 47 55 60 66 69 69 69 69 69 72 71 69 68 66 68 67 68 69 68 68 67 65 64 64 62 63 63 63 63 63 63 63 63 64
49 45 41 35 34 34 32 31 32 30 28 30 32 30 44 52 55 58 69 69 69 69 69 71 71 71 70 69 68 68 65 65 66 67 67 66 65 65 65 63 63 64 64 65 65 65 65 65 65
47 42 36 34 32 32 32 33 33 30 29 29 31 31 48 55 57 66 69 69 68 68 69 70 72 71 70 69 69 69 66 66 66 66 65 65 65 65 66 65 64 64 65 65 66 65 66 66 66
42 40 35 33 33 33 32 31 30 29 29 29 30 30 48 55 57 64 68 68 68 68 69 70 71 71 71 69 68 69 68 66 66 67 66 65 66 66 66 65 65 65 65 66 66 67 67 67 66
40 36 34 33 32 33 33 32 29 29 29 28 28 30 50 55 56 59 65 66 67 68 69 69 70 70 70 70 68 68 68 68 69 69 68 68 68 67 67 66 66 65 66 67 67 67 66 65 62
41 39 35 32 30 31 32 31 28 29 29 31 31 43 50 54 57 58 67 67 68 68 68 69 70 69 68 68 69 68 68 68 68 69 68 67 68 68 68 68 68 65 67 67 66 66 64 60 56
42 38 36 35 33 33 35 35 35 32 30 31 32 42 52 56 57 57 65 66 67 67 68 69 69 69 68 68 67 68 68 68 68 68 66 66 66 67 67 67 67 67 67 66 65 62 58 58 57
40 38 38 38 37 35 34 37 37 32 30 30 33 47 54 56 56 56 62 65 66 66 67 68 69 68 68 67 67 66 66 65 65 65 64 62 65 65 66 65 66 67 67 65 61 57 56 49 42
40 38 39 40 40 37 37 36 39 36 32 32 32 47 49 51 55 56 57 64 66 67 67 67 68 68 68 67 67 66 65 64 64 64 63 62 61 63 63 63 64 64 64 61 55 49 41 33 30
38 39 38 39 39 38 36 39 38 37 36 37 40 37 37 43 44 53 56 58 60 66 66 67 68 67 67 67 66 65 64 63 62 63 62 61 59 61 61 61 61 61 60 56 52 41 29 27 25
36 37 38 38 39 37 36 37 37 38 39 39 39 39 38 38 39 45 51 56 57 61 66 67 67 67 67 66 65 64 63 62 61 61 61 58 58 60 60 60 60 60 59 47 35 31 29 26 24
37 36 37 38 38 39 38 37 36 37 38 37 37 37 38 38 39 40 41 43 46 57 60 66 67 67 66 66 64 63 63 62 60 60 60 57 57 58 59 59 59 50 44 34 31 30 28 27 26
40 37 38 38 38 38 38 35 36 37 37 37 37 38 38 37 38 38 39 41 42 48 58 61 66 66 65 65 64 63 63 62 61 60 60 56 56 57 56 54 49 40 33 30 30 29 29 28 26
37 37 34 36 37 37 37 31 36 37 37 37 37 37 38 38 37 37 38 39 41 42 54 60 63 65 65 65 65 63 63 62 62 61 60 56 57 55 51 46 40 35 33 30 30 30 28 27 25
35 31 33 34 36 35 36 34 35 36 35 35 35 35 35 37 37 37 37 38 38 40 43 58 61 64 64 65 65 63 63 61 62 61 60 56 56 52 48 42 37 34 32 30 29 29 27 25 24
30 31 31 30 30 31 30 34 35 34 34 33 32 32 34 36 37 37 36 37 38 38 40 53 61 63 65 65 65 64 64 63 62 62 60 57 55 50 46 39 35 33 32 30 29 27 27 25 25
33 31 30 31 32 29 28 28 29 30 29 28 29 29 30 31 34 37 36 36 35 36 37 43 58 62 65 65 64 64 62 63 62 62 59 55 52 49 42 36 33 32 30 30 28 29 25 26 25
35 32 31 31 31 29 28 27 28 29 29 29 29 29 29 30 31 33 34 35 35 36 36 37 49 60 64 65 64 64 63 62 62 59 56 53 50 46 39 35 32 31 30 28 28 29 29 26 25
31 30 30 29 30 28 27 22 23 26 27 27 28 29 29 29 29 30 30 32 33 34 36 39 40 56 64 64 64 59 57 56 54 54 52 49 47 42 38 34 33 31 32 31 29 29 29 27 25
29 30 30 29 27 24 27 21 25 25 23 23 24 28 29 29 29 29 30 30 31 31 34 37 41 46 62 64 64 61 60 59 56 56 52 51 44 39 36 34 31 31 34 30 28 29 29 29 25
30 31 29 29 26 24 24 23 22 24 22 21 21 20 27 29 29 30 29 30 30 31 31 36 39 44 54 64 63 61 60 60 53 50 50 48 46 38 35 33 32 32 33 29 28 26 27 27 27
32 28 28 28 24 16 21 22 18 17 18 17 17 16 19 22 25 27 27 29 30 35 35 34 37 41 47 62 63 61 60 51 49 48 47 46 43 40 37 33 33 33 30 28 28 26 25 25 25
29 25 15 13 13 15 22 23 22 21 20 19 18 18 19 18 21 23 29 36 37 38 39 39 39 41 46 59 62 61 57 52 51 48 47 43 41 39 38 35 33 33 31 30 28 27 25 24 24
28 25 17 12 15 19 23 21 19 22 22 19 20 20 22 22 20 21 30 36 37 39 38 37 39 41 45 58 60 61 57 53 52 50 47 43 39 40 40 37 32 32 31 28 28 27 27 24 24
29 24 27 22 20 13 20 20 18 19 19 23 22 22 27 29 29 25 25 37 38 38 37 38 40 41 45 58 58 56 50 50 49 47 45 42 41 39 36 33 33 33 32 29 26 27 24 23 24
28 29 21 17 8 13 18 18 17 17 19 23 22 22 24 28 30 31 35 37 38 39 39 40 41 42 45 56 58 54 49 49 48 46 44 42 38 35 32 32 32 32 30 26 26 23 21 21 23
29 26 26 24 22 16 18 19 20 19 22 23 24 25 29 33 34 31 33 36 39 39 38 39 42 45 50 56 56 48 48 46 46 44 42 38 35 31 31 31 31 30 27 24 22 22 20 19 20
30 28 27 19 15 21 19 21 24 23 24 26 27 29 35 38 39 36 34 35 37 40 40 40 43 47 52 50 48 47 46 45 44 41 38 34 31 31 30 29 29 30 26 23 22 20 19 19 20

GFSSGP_sfc_dewp_027.txt.gz
Dewpoint
61 58 51 43 34 35 32 32 38 32 29 30 30 29 30 35 36 37 60 67 69 70 70 69 70 70 70 70 70 71 71 71 71 70 69 68 67 65 63 62 62 63 63 65 66 66 66 65 64
61 53 44 41 33 30 29 33 32 32 31 29 29 29 38 47 54 61 64 69 69 70 70 69 71 70 70 69 68 69 70 71 71 70 69 68 66 63 62 62 62 63 63 64 65 65 64 64 64
56 50 40 38 35 31 29 33 30 30 30 29 28 32 36 44 55 62 64 69 69 69 69 69 72 71 68 68 67 67 67 68 70 69 69 67 65 63 62 62 62 63 63 63 63 63 63 63 64
48 46 41 35 34 35 32 31 33 32 31 29 31 34 46 55 56 60 69 69 69 69 69 71 71 70 70 68 68 68 68 69 70 70 68 66 65 64 62 63 63 64 64 64 64 64 64 64 65
46 42 36 35 33 34 33 34 33 31 30 29 30 31 46 54 60 68 69 69 68 68 69 70 71 70 68 68 70 67 67 67 67 66 66 66 65 65 64 63 64 65 65 65 65 65 65 66 66
42 40 35 32 31 33 33 32 31 29 30 29 30 38 48 55 65 68 69 68 68 68 69 69 70 70 69 69 70 69 68 66 66 67 66 66 65 66 65 64 64 64 65 66 66 66 67 66 65
41 38 35 32 29 32 32 34 31 30 29 29 29 36 49 55 61 68 68 68 68 69 69 69 69 70 70 69 69 68 68 68 68 68 68 68 67 67 66 66 65 64 66 66 66 67 66 64 59
41 37 33 33 31 29 33 30 30 28 29 30 36 46 49 54 60 66 66 67 67 68 69 69 69 69 69 68 68 69 68 68 69 69 68 67 68 68 68 67 67 65 66 67 67 66 64 59 54
42 37 36 32 31 30 35 34 36 34 30 30 31 47 50 56 62 65 65 66 67 68 68 69 69 68 68 67 67 68 68 68 68 68 67 65 66 67 66 66 67 67 67 66 66 63 59 57 57
40 38 37 38 36 35 35 37 37 35 33 30 34 48 56 56 60 64 64 65 65 66 67 68 68 68 67 67 66 65 66 66 65 66 64 64 65 65 66 65 66 67 68 66 63 58 55 45 35
40 38 39 40 40 39 37 36 39 36 34 32 33 40 47 56 56 62 64 65 65 66 66 67 68 68 67 67 66 65 64 64 64 64 63 62 64 64 64 64 64 64 64 61 54 45 38 30 29
38 39 39 40 40 38 36 37 37 37 36 38 39 39 38 45 53 56 61 64 65 66 66 67 68 68 67 67 66 65 64 63 62 63 63 61 60 62 62 62 62 62 60 55 50 39 28 26 24
37 38 38 39 39 38 38 36 36 38 39 40 39 39 39 38 39 43 56 59 64 66 66 67 68 67 67 66 66 65 64 63 62 62 62 61 59 60 61 60 60 60 58 52 42 30 28 24 24
38 37 37 37 37 38 37 37 37 37 39 38 38 37 37 38 38 39 44 53 57 63 66 66 67 67 67 66 66 65 64 63 62 61 61 60 59 59 60 59 59 59 56 39 32 30 28 27 26
40 36 38 38 38 38 38 35 36 37 37 36 37 37 37 37 38 37 39 41 46 54 60 66 66 67 66 66 66 64 64 63 61 60 60 60 58 59 59 58 58 52 41 31 30 29 28 28 26
38 37 34 36 37 37 36 31 34 37 37 37 37 37 38 38 38 38 38 39 41 42 52 61 67 67 66 66 65 64 63 62 60 59 59 59 57 57 57 56 54 38 32 31 31 30 28 26 24
35 31 33 34 36 36 36 34 35 36 35 35 35 35 35 36 36 38 38 38 38 41 42 58 63 66 66 66 65 64 63 63 61 60 59 58 57 56 54 52 44 34 32 31 30 29 26 24 24
31 31 31 31 31 33 31 32 34 36 35 35 35 35 34 34 34 36 38 38 38 38 40 53 61 64 66 66 65 64 64 63 62 61 60 58 57 53 50 43 37 34 32 30 29 27 26 25 25
32 32 31 31 32 30 29 28 29 29 29 29 30 31 31 31 31 34 36 37 37 37 38 41 58 62 64 65 64 64 62 62 62 62 61 57 57 53 48 42 35 33 31 30 27 27 23 24 26
36 33 31 31 31 29 28 27 28 28 28 29 29 29 29 30 30 31 33 35 36 36 36 37 47 60 64 65 64 64 63 63 62 62 61 58 55 52 45 40 35 32 31 29 29 29 28 25 24
33 30 30 29 30 28 27 24 24 24 26 27 28 29 30 30 29 29 30 32 33 34 35 36 38 50 62 64 63 59 58 57 57 57 57 56 54 51 46 40 36 32 32 30 29 30 29 26 24
29 30 30 29 27 24 27 22 25 24 24 25 24 24 28 29 30 30 30 30 31 31 33 34 37 40 56 64 63 61 60 59 60 57 58 54 53 51 45 40 35 32 33 30 30 30 30 28 25
31 30 29 28 26 22 24 22 23 20 19 19 18 18 20 24 29 30 30 30 31 31 31 32 34 40 45 62 64 62 60 59 60 54 54 53 52 50 45 42 36 32 33 32 29 29 29 28 28
32 28 26 27 24 15 20 21 18 15 17 17 20 20 19 20 20 23 26 29 29 30 33 32 32 35 43 58 63 62 61 56 53 52 54 51 48 45 43 42 40 35 35 35 33 29 28 27 27
28 25 15 11 13 14 23 22 20 22 22 21 21 19 24 27 26 26 26 26 35 38 39 39 39 39 41 47 61 62 61 56 55 54 54 50 45 43 41 41 41 40 38 37 33 29 27 26 25
28 25 17 7 13 18 23 21 18 22 22 22 23 24 26 28 29 30 30 30 31 36 39 38 38 38 42 49 56 61 59 57 55 53 53 51 48 46 43 42 40 39 37 33 31 31 28 25 26
29 22 26 21 19 14 19 19 18 19 21 22 23 24 26 28 31 32 32 35 37 38 38 38 38 39 40 46 55 59 59 54 54 52 52 51 48 44 42 41 37 37 35 33 32 31 26 25 25
28 29 22 18 5 12 15 18 15 17 18 23 23 25 26 27 33 35 35 33 35 37 39 39 39 40 42 45 53 57 56 53 52 49 48 45 44 42 39 38 36 35 34 32 30 27 23 24 25
29 26 26 23 21 14 16 16 21 19 22 23 26 28 29 34 39 39 37 35 34 36 38 39 40 42 44 47 52 52 50 49 48 47 45 42 42 41 39 37 36 33 31 28 28 29 26 25 24
29 28 26 18 14 19 18 20 25 24 24 26 27 30 37 41 41 41 40 39 40 41 42 44 45 47 48 49 54 50 47 47 46 47 43 41 40 38 37 35 32 31 30 30 28 26 26 25 24

GFSSGP_sfc_dewp_030.txt.gz
Dewpoint
61 56 49 42 35 35 31 30 36 33 30 29 30 30 30 34 39 38 60 67 69 69 70 69 72 72 71 72 72 72 72 72 71 70 69 67 66 65 63 62 63 63 64 68 68 67 66 65 64
60 52 44 40 32 28 27 33 32 32 31 31 29 31 39 47 55 61 63 67 69 69 69 67 71 71 70 71 71 71 72 72 71 70 69 67 66 63 62 63 63 63 64 67 66 65 65 65 64
55 47 40 37 34 29 26 31 31 32 33 30 28 32 37 44 56 61 62 69 69 69 69 67 71 70 70 70 69 70 71 71 71 70 69 67 64 62 62 63 63 64 64 64 64 64 64 64 64
49 45 40 35 34 34 30 35 32 33 32 29 31 38 46 55 56 62 68 69 69 68 68 70 71 71 70 69 68 68 68 69 71 70 68 66 64 63 63 63 64 64 64 63 63 64 64 65 65
45 41 37 35 34 34 35 34 33 31 30 29 30 30 44 54 62 68 68 69 68 67 69 70 71 70 68 68 69 69 68 68 70 69 67 66 65 63 63 64 64 65 65 65 65 65 66 66 66
41 39 34 33 33 32 33 33 31 30 31 30 29 40 46 57 64 67 68 68 68 68 69 69 70 70 69 69 69 69 69 69 68 68 68 66 65 65 64 64 65 65 65 66 66 66 67 66 63
40 39 35 32 32 29 31 34 32 32 30 29 30 37 46 53 65 67 68 68 68 69 69 68 69 69 69 69 69 68 68 68 68 68 68 68 67 67 65 64 64 65 66 66 66 67 66 61 56
41 38 34 33 30 29 32 32 31 29 30 31 35 36 41 53 67 67 67 67 67 68 68 68 68 68 67 68 69 68 68 68 68 68 68 67 67 68 67 67 67 65 66 66 67 66 62 56 55
41 37 33 31 31 31 34 33 36 35 32 31 31 40 48 60 66 66 66 67 67 67 68 68 67 67 67 66 67 68 68 68 68 68 67 66 65 66 66 66 67 67 67 66 66 64 59 57 55
40 37 36 35 33 32 36 36 36 36 35 32 31 50 56 63 65 64 64 64 65 65 67 68 68 67 67 67 66 66 66 66 66 66 64 63 64 65 66 65 66 67 67 66 64 59 53 44 31
40 37 38 39 38 39 38 38 38 36 34 34 34 37 45 55 60 63 63 64 64 64 65 65 66 67 67 67 65 65 64 64 64 64 63 62 64 64 64 64 64 64 64 60 52 42 34 28 28
38 39 39 40 41 39 36 37 36 37 35 37 39 40 39 45 55 59 63 64 64 65 65 65 65 66 67 66 66 65 64 64 63 63 63 61 62 63 62 62 62 62 60 55 48 35 27 25 23
38 38 39 39 39 38 38 36 36 36 38 39 39 39 39 39 39 43 54 61 64 64 65 65 66 66 66 66 66 64 64 63 63 63 62 61 61 61 61 61 61 60 58 53 43 29 27 24 23
39 38 37 37 37 37 37 37 37 37 38 38 38 38 38 38 38 39 39 51 62 65 66 66 66 66 66 66 66 65 64 63 62 62 62 61 59 60 61 60 60 59 57 46 36 29 27 26 24
39 36 37 37 38 37 38 35 36 38 38 37 37 37 37 37 38 37 38 40 53 61 66 66 67 67 66 65 66 65 64 64 62 61 61 61 60 59 60 59 58 58 53 34 30 28 28 27 24
38 37 34 36 38 38 36 29 34 36 37 36 37 37 37 38 39 38 39 38 39 46 59 65 67 67 66 66 66 66 65 64 62 61 60 61 59 59 58 59 58 52 41 33 31 30 28 26 25
34 31 33 34 36 36 36 34 35 36 36 36 35 35 35 36 37 38 39 39 39 39 42 57 66 66 67 67 66 65 64 63 62 60 59 60 58 58 58 58 56 41 35 33 31 29 26 24 24
32 30 31 32 31 35 34 32 32 31 32 35 35 35 35 35 35 36 37 38 39 39 40 42 59 66 66 66 66 65 64 63 62 61 59 59 58 57 57 55 49 37 33 32 30 27 26 25 25
33 32 30 31 32 31 30 29 29 30 30 29 30 30 30 31 33 34 34 36 37 38 38 40 49 60 66 66 65 64 63 63 62 62 61 59 57 56 55 52 46 36 32 31 28 26 24 24 27
35 32 31 32 31 29 29 27 28 29 29 29 29 30 30 30 30 31 32 33 35 36 37 38 41 53 63 65 65 64 64 64 63 63 62 60 58 57 54 49 44 38 34 30 28 28 27 25 26
33 32 30 30 30 28 27 25 24 25 26 25 26 28 29 30 30 30 30 31 32 33 35 36 38 46 60 64 64 60 59 58 59 59 61 60 58 56 52 48 44 38 36 33 29 29 28 26 24
31 30 30 28 27 24 27 21 24 24 22 22 19 19 21 22 24 28 29 30 31 31 33 34 36 39 50 62 63 62 61 61 61 61 61 58 58 56 52 49 48 39 36 34 31 30 31 28 24
32 30 28 28 25 22 23 22 21 19 16 18 18 20 23 24 22 25 26 28 30 31 31 32 33 36 40 55 63 62 61 61 60 60 60 58 56 55 54 50 49 42 42 36 34 33 31 30 28
31 28 26 26 23 15 19 20 15 15 17 18 21 21 26 28 29 31 33 33 33 34 37 35 32 33 37 46 61 62 61 60 56 55 58 56 55 54 52 49 46 44 42 41 37 34 33 31 30
29 28 18 12 11 14 23 21 17 21 23 22 22 22 26 28 30 32 33 34 35 35 35 39 39 38 38 41 55 62 61 60 56 56 57 55 53 50 48 48 45 43 43 42 41 39 36 32 30
27 25 18 7 10 16 23 20 18 23 22 23 23 25 27 28 29 33 35 35 36 36 38 39 38 37 38 42 46 57 61 59 57 56 57 55 54 52 50 45 45 43 42 40 39 39 36 32 33
28 22 25 20 18 14 17 18 15 21 22 23 24 26 27 28 29 33 37 37 36 36 36 38 39 39 39 41 44 50 56 56 55 54 55 55 54 52 46 46 45 43 41 38 37 34 32 32 32
28 28 22 19 6 10 13 16 15 16 18 23 25 26 29 30 34 40 41 40 36 36 36 37 39 39 41 43 45 48 53 57 54 51 52 52 50 47 46 44 42 42 39 35 33 29 28 28 29
28 26 25 22 20 13 14 11 20 19 22 24 26 27 29 31 40 41 41 40 38 40 42 43 44 45 46 46 46 48 52 55 51 50 49 47 45 44 43 42 41 39 37 33 30 28 27 26 27
29 27 24 16 13 19 18 18 24 24 24 25 27 29 34 41 41 40 40 40 40 40 42 44 43 44 44 45 47 49 52 48 49 49 45 44 42 41 41 39 38 35 32 29 28 27 30 31 30

GFSSGP_sfc_dewp_033.txt.gz
Dewpoint
60 52 49 46 37 36 32 30 34 34 31 30 31 32 33 35 43 40 64 67 67 67 69 68 72 72 72 73 73 73 73 73 72 71 70 68 66 65 63 63 64 64 69 70 70 68 66 65 63
57 50 47 43 34 28 27 32 32 34 32 33 30 34 37 43 55 61 64 67 68 69 69 67 72 72 73 73 73 73 73 72 72 70 68 67 65 63 63 63 63 63 68 68 67 66 66 64 63
52 45 44 40 34 29 27 29 32 32 34 30 29 33 34 44 56 61 64 68 68 69 67 66 71 71 71 71 72 72 72 72 71 70 68 67 64 62 63 63 64 64 66 66 65 65 65 65 65
49 46 41 36 34 35 29 31 33 33 32 31 31 33 44 54 55 61 67 69 68 68 67 68 71 71 71 71 70 71 71 72 71 70 68 66 63 63 63 64 64 64 64 64 64 64 64 65 65
45 43 38 36 35 35 35 35 34 33 31 30 31 30 40 54 65 67 68 68 68 68 67 66 71 71 70 70 70 70 69 70 71 70 68 66 64 64 64 64 65 65 64 64 64 66 66 67 65
43 40 35 34 34 34 34 35 32 31 31 31 29 33 42 61 65 66 67 68 68 68 68 67 70 70 70 70 70 70 69 69 71 70 68 66 65 64 64 65 65 65 65 66 66 67 66 64 61
42 40 36 35 34 33 32 34 31 31 31 30 30 31 39 55 66 66 66 67 68 68 68 68 67 68 69 70 70 70 70 70 70 70 69 68 67 66 64 65 65 65 67 66 67 67 63 58 58
42 39 36 34 32 32 32 33 32 32 30 32 31 31 35 55 65 66 67 66 68 69 68 68 68 67 66 67 69 68 69 69 69 69 68 67 67 67 66 67 66 66 66 66 67 65 58 56 56
42 37 34 35 31 31 33 31 36 36 34 33 32 39 50 60 65 65 65 66 67 68 68 69 68 68 66 67 67 68 68 68 67 67 67 66 64 65 65 66 66 67 67 67 66 62 58 56 55
41 37 35 34 34 32 35 36 36 36 36 34 34 41 59 63 64 63 63 64 64 66 66 68 68 68 67 66 67 66 65 65 65 65 66 65 66 66 65 64 66 67 67 67 63 59 54 41 35
41 36 38 38 36 38 38 38 37 36 35 35 35 39 52 61 63 62 62 63 64 64 65 66 66 68 68 65 66 66 66 66 66 66 65 65 65 66 66 65 66 65 64 60 53 45 36 35 33
39 40 39 40 41 40 38 38 36 38 37 36 40 40 39 56 59 61 62 63 63 64 65 65 65 65 67 67 66 65 65 65 65 66 65 63 65 66 66 65 66 65 64 58 50 39 33 31 30
38 39 40 40 40 39 38 37 36 36 38 39 39 40 40 39 44 55 60 63 64 64 65 65 65 65 66 67 67 65 64 65 64 64 65 63 64 66 65 65 65 64 62 58 47 36 30 28 28
40 39 38 38 37 37 37 37 37 37 38 38 38 39 39 39 39 39 41 51 63 65 65 65 65 66 66 66 67 66 65 63 64 64 64 63 63 65 65 64 64 63 61 56 45 35 31 30 27
38 37 37 37 37 37 38 34 37 38 38 37 37 37 38 39 39 39 39 40 48 62 66 66 66 66 66 66 66 66 66 64 64 63 64 63 62 63 64 64 63 62 60 50 40 32 31 31 27
38 37 35 36 38 37 34 28 34 37 37 37 37 37 38 38 38 39 40 39 40 43 60 66 67 66 66 66 66 66 66 66 64 63 62 63 62 61 63 63 62 61 57 45 37 33 32 31 29
36 32 34 34 38 36 36 34 35 37 36 36 36 36 36 37 37 38 39 40 40 40 41 55 65 67 66 66 67 66 66 66 65 63 62 62 62 61 60 61 62 60 54 42 36 33 32 30 29
33 32 34 31 32 35 35 35 35 33 31 33 33 33 34 35 36 37 38 39 39 40 40 42 55 65 67 67 66 66 65 65 66 64 62 62 61 61 60 60 60 56 50 43 35 33 30 30 28
33 32 31 32 32 32 31 31 31 32 31 31 31 31 31 31 33 36 37 37 38 39 40 41 42 54 65 66 65 65 64 64 64 64 63 61 61 60 60 60 58 53 49 43 35 32 30 29 31
34 32 31 33 31 30 29 28 29 30 31 31 30 30 31 31 31 31 32 34 34 36 39 40 40 44 57 65 64 64 64 64 64 64 63 61 60 59 59 58 56 51 47 40 34 34 31 29 32
35 33 31 31 30 28 27 26 25 26 25 25 22 22 23 25 25 28 29 31 34 34 36 37 39 41 49 61 65 64 63 62 63 63 63 62 61 59 58 57 56 54 48 41 35 33 32 31 30
33 32 31 28 28 26 27 22 24 24 19 21 22 26 27 27 29 31 32 34 35 36 37 36 38 39 43 59 63 62 60 60 61 62 63 63 61 59 59 57 55 54 50 45 39 35 34 35 31
33 31 29 28 26 24 23 22 19 19 18 19 22 26 28 29 30 32 35 36 36 38 40 39 35 36 40 48 62 63 62 62 62 63 63 62 61 60 59 56 54 53 51 48 45 37 36 33 33
30 27 26 26 24 21 19 21 15 14 18 21 22 23 27 28 30 34 37 39 40 42 42 42 40 36 36 39 47 62 62 62 62 61 62 61 60 60 58 56 54 53 51 48 46 43 40 38 36
30 31 23 18 19 20 23 21 17 20 22 23 23 24 27 29 30 34 39 40 41 41 42 41 40 40 39 41 42 48 60 62 61 61 61 60 58 57 57 56 54 53 50 49 47 45 43 40 38
28 28 22 14 11 15 22 20 17 23 23 22 24 26 28 30 30 35 40 41 41 40 41 40 39 40 40 41 42 46 49 60 61 60 59 59 58 57 57 55 54 52 49 48 46 45 44 41 39
29 27 24 21 19 17 16 17 16 22 22 24 25 28 29 31 33 38 42 42 41 39 39 39 39 39 40 42 44 44 47 53 57 58 58 59 58 57 56 54 52 50 48 46 45 44 41 39 37
29 28 24 22 13 11 11 14 13 17 19 23 25 27 29 32 35 41 41 41 41 40 41 44 44 44 45 47 47 47 49 50 55 56 57 57 56 54 51 50 49 48 46 45 44 42 38 35 35
28 27 25 23 21 15 11 8 19 20 22 24 26 28 30 35 41 41 39 40 41 41 41 42 44 44 45 45 45 48 50 52 54 53 54 54 52 50 48 47 46 45 43 42 42 40 36 32 29
29 27 23 20 17 21 20 16 23 24 24 25 26 28 33 41 41 37 37 39 41 41 42 43 42 43 44 44 45 47 50 51 50 51 50 48 47 45 45 44 43 41 40 39 37 34 32 30 30

GFSSGP_sfc_dewp_036.txt.gz
Dewpoint
61 51 48 45 35 32 27 26 30 32 32 30 31 32 31 34 36 38 63 65 63 65 65 66 73 73 74 74 74 74 74 73 72 71 70 68 66 65 64 64 64 69 70 70 69 67 66 63 62
56 47 46 42 32 27 23 27 28 32 32 33 31 31 40 38 51 58 62 66 64 65 65 65 72 71 72 74 74 74 73 73 72 70 69 67 65 63 63 63 64 69 69 68 67 67 65 64 64
50 45 41 37 33 28 25 27 25 31 31 30 29 33 34 44 54 57 63 66 64 65 65 66 71 71 73 73 73 73 73 72 71 70 68 66 63 63 64 63 64 67 67 67 66 65 65 65 65
45 43 41 35 31 31 28 30 31 31 32 30 31 31 43 54 55 59 65 65 64 65 64 68 71 71 72 72 72 73 72 71 71 70 68 65 63 63 64 64 65 65 66 65 64 64 65 65 66
46 42 36 35 32 31 32 30 33 31 30 28 30 30 38 56 63 63 65 65 64 64 64 65 71 71 71 71 71 71 72 72 71 69 67 65 63 64 64 64 64 64 64 64 64 65 66 66 65
42 41 35 33 33 33 34 33 32 30 29 27 29 30 39 59 63 65 66 65 65 64 64 65 70 71 70 70 70 70 70 71 71 70 67 65 64 64 64 65 65 65 65 65 66 67 66 63 61
43 40 35 33 33 33 34 34 32 29 28 25 30 29 39 54 64 66 66 65 65 65 64 64 66 67 70 70 70 70 70 70 71 70 69 68 67 65 65 65 66 66 66 66 67 66 60 59 58
42 41 37 36 34 34 35 33 32 29 25 31 31 29 33 54 65 66 66 66 65 65 64 63 63 64 64 65 70 69 70 71 71 69 69 68 67 67 66 67 66 66 67 67 67 61 58 58 59
43 38 36 36 35 33 33 31 32 33 28 31 32 36 51 56 65 65 65 66 65 66 65 64 62 62 62 63 65 68 68 68 68 68 67 66 62 63 64 64 66 67 67 68 65 60 58 56 56
38 37 34 35 36 34 32 30 32 33 33 32 33 40 58 61 63 63 63 63 64 65 66 64 63 62 62 62 63 61 61 63 63 63 63 61 60 61 60 63 66 67 68 67 63 60 53 48 41
37 32 34 36 35 33 33 33 36 32 33 31 32 38 53 61 63 63 62 63 64 64 65 66 65 64 63 62 63 62 60 61 62 61 60 60 61 63 63 62 63 62 65 62 59 52 47 43 40
35 34 33 35 38 37 34 34 34 34 29 35 39 39 40 56 61 62 61 62 63 64 65 65 65 65 65 63 62 62 61 61 61 61 61 61 62 63 63 62 61 60 61 60 57 49 43 39 35
36 38 36 36 40 39 38 36 33 36 36 38 38 39 39 39 50 59 62 62 63 64 64 65 65 65 65 66 64 62 62 62 60 62 61 61 62 63 62 62 62 62 60 58 56 49 41 36 33
38 38 36 37 38 38 38 37 38 35 36 36 36 36 35 38 38 41 53 59 62 63 64 65 65 65 65 65 66 65 63 62 61 60 61 62 61 62 62 62 63 62 61 58 55 48 42 37 34
40 36 38 37 37 36 37 35 36 35 34 33 32 31 35 36 38 39 40 42 47 56 61 64 65 66 65 66 66 66 66 64 62 61 61 61 61 61 62 62 63 63 62 58 54 46 40 37 33
37 35 34 33 36 36 35 27 32 34 34 33 32 32 34 36 35 37 38 39 40 40 46 55 62 65 66 66 66 67 67 66 64 63 61 61 60 60 61 61 63 62 61 58 53 47 42 39 35
34 26 27 31 36 33 33 26 29 31 34 33 32 32 33 36 36 37 37 38 39 38 39 42 54 61 64 66 66 67 67 67 66 64 63 62 61 60 59 60 61 61 61 57 52 47 43 39 36
27 25 28 25 32 36 34 29 33 35 35 33 31 31 31 32 34 35 37 38 38 39 40 40 43 52 60 64 66 67 67 66 67 65 64 63 62 61 60 58 59 60 60 56 51 47 41 40 37
29 27 26 29 32 32 30 31 31 33 32 31 30 29 29 31 33 34 34 34 35 37 39 41 41 43 49 59 65 65 64 65 65 66 66 64 63 62 61 59 59 59 59 57 52 47 41 37 35
30 27 27 32 32 31 30 30 30 31 31 32 31 30 30 30 28 28 31 33 32 34 36 38 39 41 42 49 59 63 64 64 64 65 65 65 64 63 62 61 60 59 58 57 53 47 41 38 35
32 29 31 29 31 29 28 26 28 26 26 22 24 23 24 27 30 33 35 37 39 37 37 36 37 38 41 44 54 61 63 64 64 64 64 64 64 63 62 62 61 59 57 57 54 48 44 38 35
31 34 33 30 30 24 27 17 24 23 21 26 28 28 30 32 34 37 39 40 41 42 43 41 38 37 38 42 47 55 59 59 59 59 62 64 64 63 63 62 61 60 57 55 53 50 45 44 38
30 33 30 29 29 28 25 24 19 18 19 24 26 30 31 33 35 37 40 42 42 44 46 44 42 38 37 39 46 53 57 56 56 58 61 62 63 63 63 62 61 60 57 56 54 50 46 44 43
30 29 28 28 28 29 24 22 15 15 18 23 25 27 32 33 34 38 42 43 42 45 46 46 42 41 42 39 40 47 55 57 56 59 61 61 62 62 61 61 61 60 58 57 56 53 50 46 44
31 32 30 28 30 25 22 21 16 18 21 22 23 27 32 34 35 38 42 42 43 44 45 43 42 41 41 41 42 41 44 53 57 58 59 60 60 61 60 61 60 59 59 58 57 54 49 48 45
33 32 28 20 16 16 22 17 16 22 23 22 24 27 30 33 36 41 42 43 42 43 43 43 43 42 41 41 42 42 44 45 49 57 58 58 57 59 60 59 59 59 58 57 56 54 52 49 47
33 33 24 24 20 22 15 17 18 21 21 23 25 29 32 34 38 41 41 41 42 42 42 43 43 43 45 46 46 46 46 46 47 51 55 57 57 58 59 59 58 59 57 56 55 54 52 51 49
30 28 27 30 22 17 11 10 12 20 22 24 26 30 32 35 40 41 39 40 42 43 42 43 43 43 44 45 45 45 48 48 50 51 53 56 56 57 57 58 57 57 55 53 52 51 50 48 47
28 28 26 25 23 17 7 7 16 20 22 24 26 31 33 38 40 38 37 39 42 43 43 42 42 43 44 44 44 45 48 50 51 52 52 52 54 55 55 54 54 53 51 49 49 48 45 43 40
29 27 23 23 23 23 22 12 21 22 23 25 29 31 35 40 38 37 36 38 40 41 41 41 41 41 41 42 44 45 48 49 51 51 51 51 51 51 51 49 49 49 48 46 45 45 43 39 37

GFSSGP_sfc_dewp_039.txt.gz
Dewpoint
60 55 46 43 36 32 28 25 25 28 27 28 30 29 27 32 37 42 61 63 61 64 65 67 74 74 75 75 74 74 74 74 72 71 70 68 67 65 64 64 68 69 69 69 68 66 64 63 63
53 49 44 40 33 30 26 27 26 28 31 32 32 31 29 31 48 58 61 64 61 63 64 65 73 73 74 74 75 74 74 73 72 70 69 67 65 64 63 64 69 70 69 69 67 66 64 64 65
56 47 41 36 33 29 28 27 24 31 30 30 30 32 33 43 52 56 62 62 62 62 62 67 72 72 74 74 74 74 74 73 71 70 68 66 64 64 63 65 68 68 68 67 66 66 65 65 66
49 43 41 35 31 32 30 26 23 30 31 30 30 30 41 54 54 59 63 61 62 62 62 68 70 71 72 73 73 73 72 71 70 69 67 65 64 64 64 66 66 67 66 65 65 64 65 66 66
49 42 36 34 32 30 30 29 28 29 30 29 29 30 41 59 60 62 62 61 61 61 63 65 71 72 71 72 72 73 72 71 70 69 67 64 64 65 65 65 65 65 65 64 65 66 66 66 65
43 41 35 32 31 30 30 30 29 29 30 27 28 29 46 60 60 62 62 62 61 61 63 65 69 70 71 70 70 72 72 72 71 69 67 65 65 65 64 65 64 64 64 65 66 67 65 63 62
44 40 37 34 31 31 30 32 30 28 28 28 28 29 44 56 63 64 63 62 62 62 62 64 65 68 70 70 70 71 70 71 71 70 69 67 66 65 65 65 65 65 65 66 67 64 60 60 60
44 42 38 36 31 31 32 32 32 29 27 29 29 28 35 55 64 65 64 63 63 63 61 63 64 64 64 65 70 70 69 70 71 69 69 67 67 67 66 67 67 67 67 67 66 60 59 59 61
44 42 39 38 33 32 34 33 33 31 28 28 27 34 49 57 64 64 65 65 63 63 62 61 61 61 61 61 65 68 69 70 69 68 67 65 61 61 64 65 67 67 67 68 63 59 58 58 59
41 40 38 36 34 35 34 33 30 31 28 26 29 39 53 58 63 63 63 63 62 62 62 61 60 60 60 60 63 62 63 64 65 65 65 61 59 59 58 63 66 67 68 67 63 59 57 56 45
37 35 37 34 35 36 35 32 29 31 28 28 28 33 49 56 61 62 62 63 63 64 64 62 62 60 60 60 61 59 59 61 61 61 62 61 58 60 60 61 61 63 65 64 61 58 51 48 44
35 34 32 33 35 35 34 32 30 31 28 30 33 38 39 52 55 58 61 61 62 64 64 65 63 63 61 61 60 60 59 59 60 60 59 58 59 61 60 59 59 58 62 60 59 55 49 46 43
36 32 33 34 37 36 33 31 30 30 33 36 38 38 38 38 48 56 59 60 61 63 64 65 65 64 63 63 61 61 61 59 59 59 60 58 60 63 62 60 61 59 58 58 57 53 47 43 39
37 35 34 33 37 37 35 32 32 32 33 34 34 35 35 36 38 42 54 58 59 61 63 64 65 65 64 64 65 63 62 62 60 59 59 59 59 61 62 61 63 62 59 58 56 53 47 43 39
37 33 35 33 35 35 37 33 33 34 33 33 31 32 32 32 33 37 40 47 54 57 61 63 64 65 65 65 65 65 65 63 62 60 60 60 59 59 59 60 63 63 62 58 56 53 47 44 40
36 35 32 34 35 35 35 29 31 34 33 33 30 30 30 30 31 31 37 40 42 44 47 57 61 63 64 65 65 65 66 65 63 62 61 60 59 59 59 60 62 63 63 61 57 53 47 45 42
34 27 29 29 34 34 35 29 30 31 30 30 29 28 29 29 31 31 30 35 38 40 41 43 48 57 62 64 65 67 66 66 65 64 63 62 60 59 59 59 60 63 62 60 58 54 48 47 44
26 27 24 25 33 33 32 31 28 30 29 30 28 27 27 28 29 31 32 33 35 37 38 39 41 43 52 59 62 67 67 67 66 65 64 63 62 61 60 59 59 60 60 59 58 54 50 48 45
21 25 20 23 31 32 30 27 27 29 31 30 28 27 27 26 28 33 35 35 36 37 38 39 40 41 43 51 56 65 65 65 66 66 66 64 63 62 62 61 59 59 59 60 58 54 50 48 46
27 23 23 26 29 30 24 26 28 29 29 28 27 28 28 29 29 30 31 34 33 33 35 38 39 41 42 44 48 59 64 64 64 66 65 66 65 64 63 62 61 59 59 59 58 55 50 47 43
26 25 24 26 31 30 29 25 27 26 29 28 26 26 25 26 26 31 34 37 40 40 40 38 37 38 40 42 44 49 59 63 64 64 65 65 65 65 63 63 62 61 60 59 59 56 51 47 43
24 28 30 31 28 18 27 9 24 25 22 25 26 27 28 31 33 36 37 39 41 43 46 43 42 39 38 39 41 45 51 57 60 60 63 63 63 64 64 63 63 62 61 60 59 56 52 49 45
29 34 31 31 29 28 26 23 21 22 21 24 26 30 31 33 35 37 40 42 42 45 48 48 44 41 41 39 40 42 46 51 57 58 58 58 62 63 63 63 63 62 62 61 59 57 52 52 50
33 31 31 31 29 29 26 22 17 17 19 23 27 29 31 33 35 38 41 43 42 46 47 47 44 42 42 42 40 41 46 50 54 56 56 56 59 62 62 61 62 62 62 61 59 58 55 53 52
32 30 29 27 30 24 22 23 19 17 18 22 24 27 31 34 35 38 41 42 43 44 45 44 43 42 42 41 42 42 42 43 48 53 55 56 57 60 61 62 62 61 61 60 59 59 56 55 53
32 31 30 21 22 21 21 18 17 19 22 22 24 27 31 33 36 40 42 42 42 43 44 43 43 43 44 44 43 43 43 44 44 44 48 54 55 55 58 61 60 61 61 60 59 58 58 56 54
35 33 26 23 18 20 16 17 21 21 21 21 24 29 32 34 37 41 41 40 41 42 42 43 42 42 43 44 44 44 44 46 47 47 47 49 53 55 55 58 59 59 60 59 59 58 57 54 53
37 31 29 32 25 16 14 11 11 19 20 22 26 29 33 35 39 40 39 39 41 42 43 43 43 42 43 44 44 43 45 47 48 49 49 51 53 54 55 57 58 58 58 58 57 56 55 53 52
32 33 29 27 24 21 10 9 16 20 24 25 26 31 33 37 40 39 38 38 41 42 42 42 41 42 42 42 42 43 45 46 49 50 51 51 51 52 54 54 55 55 56 55 54 53 52 52 50
29 27 27 25 26 22 22 16 18 23 24 25 29 32 34 40 39 38 37 37 39 39 40 40 41 40 40 41 42 44 45 47 48 49 49 49 50 50 50 49 50 50 51 50 50 49 47 48 43

GFSSGP_sfc_dewp_042.txt.gz
Dewpoint
61 54 53 49 42 38 33 29 25 30 28 29 30 28 30 31 49 51 61 62 66 66 68 71 74 75 75 75 75 75 74 74 73 71 70 69 67 66 64 68 69 69 70 69 67 65 64 64 64
56 52 50 45 38 33 30 29 28 30 32 32 31 31 29 47 57 59 62 63 65 65 67 69 74 75 75 75 75 74 74 73 72 70 69 67 65 64 64 70 70 70 69 68 66 65 65 65 66
56 53 47 42 38 33 32 30 27 32 31 31 30 32 33 50 55 59 64 62 63 64 65 69 73 74 75 75 75 74 73 72 71 69 68 66 64 64 66 69 69 69 68 67 66 65 66 66 66
52 48 44 39 34 34 32 28 29 30 31 30 31 32 50 57 57 61 62 61 62 62 67 70 72 73 74 74 74 74 72 71 70 69 66 65 64 64 67 68 68 67 67 66 65 65 66 67 66
52 47 39 36 35 33 31 30 29 29 30 29 31 34 53 58 61 61 61 61 61 64 66 67 72 72 72 72 73 73 71 71 70 68 66 65 65 65 66 66 66 66 66 65 66 66 66 66 65
48 44 39 35 33 33 31 29 29 30 29 28 29 36 54 59 61 61 61 61 61 65 65 66 70 71 71 71 72 72 72 72 70 68 66 65 65 65 65 65 65 65 65 66 67 66 64 63 63
48 45 39 38 35 32 31 31 29 28 28 29 29 31 55 61 63 62 61 61 61 63 64 65 66 67 70 70 70 71 72 72 71 70 68 67 66 65 65 65 65 65 66 67 66 63 62 61 62
50 48 41 37 36 34 32 32 31 29 27 30 29 38 54 62 64 64 63 62 61 61 63 64 65 65 65 67 69 69 69 71 70 69 68 67 66 66 67 67 67 67 67 68 64 61 60 61 62
51 45 42 42 39 37 33 33 33 32 30 28 28 48 56 63 64 64 64 65 62 62 62 62 63 64 63 64 67 69 68 69 69 68 66 65 63 64 65 65 67 68 69 67 62 60 59 61 61
45 44 43 45 42 39 36 34 34 31 31 29 29 49 57 62 63 62 62 62 62 62 61 61 61 61 61 60 66 64 66 67 67 66 64 62 61 61 61 64 66 67 68 67 63 60 59 58 48
42 40 42 42 42 40 37 34 36 32 32 29 28 40 53 59 60 62 62 62 62 63 63 61 61 60 60 61 64 62 64 64 65 66 64 63 60 61 62 63 64 65 65 64 62 58 52 48 47
37 39 38 40 41 37 36 36 32 31 33 33 38 38 44 53 57 60 61 62 63 63 64 65 64 61 60 60 62 60 60 61 62 62 64 62 60 61 60 62 60 62 65 64 61 58 54 49 44
38 36 34 34 38 37 36 35 32 32 34 36 38 39 39 39 49 55 59 60 61 63 63 65 65 64 62 61 61 61 60 60 61 61 60 60 60 61 61 60 60 58 62 61 60 56 50 45 42
36 37 35 33 37 38 34 32 33 32 34 35 36 38 37 37 38 41 57 58 59 62 64 64 65 65 64 63 63 62 62 60 60 60 60 59 60 63 61 60 61 60 61 58 58 55 49 45 41
37 35 35 34 37 36 37 33 32 32 33 32 33 34 34 34 33 36 39 50 58 59 63 64 64 65 65 64 64 65 65 63 61 61 60 59 59 60 62 61 62 62 61 61 57 54 50 45 40
35 36 33 34 35 35 36 31 33 33 34 34 33 31 32 33 32 32 34 40 42 46 52 63 64 65 65 64 65 65 65 65 64 62 60 60 59 59 59 60 62 63 62 61 59 55 49 45 41
37 30 31 32 34 34 35 32 32 32 34 33 32 32 30 29 30 31 32 31 39 40 41 43 49 62 64 64 65 66 66 66 66 66 62 61 60 60 59 59 61 63 62 61 61 56 48 46 44
32 32 28 29 33 34 34 33 32 30 30 29 29 28 27 28 29 30 32 38 36 38 39 40 44 45 49 62 64 66 66 66 66 66 66 63 62 60 59 59 59 62 62 62 61 55 51 48 46
29 28 27 28 33 33 32 32 32 31 29 30 30 29 28 28 28 32 34 33 33 34 37 38 40 42 44 47 57 65 65 65 66 66 65 66 63 62 61 60 59 60 61 61 59 56 52 49 46
25 24 25 26 31 31 29 29 29 28 29 31 30 28 27 28 28 30 32 36 37 36 37 38 39 40 42 44 46 54 64 65 65 65 65 65 65 64 63 62 61 59 59 59 59 56 52 49 46
24 25 24 25 30 31 29 27 25 28 29 29 29 28 27 25 26 31 34 39 40 42 42 41 40 40 39 41 44 46 49 63 63 62 64 64 65 65 64 63 62 61 59 59 59 58 53 49 45
25 26 26 28 29 24 27 12 22 26 27 26 26 25 25 31 34 36 38 40 41 45 47 47 44 41 40 39 40 41 44 47 59 63 64 64 64 64 64 64 63 63 61 60 60 59 56 50 45
28 33 32 32 31 29 26 24 21 25 22 24 26 29 31 33 35 37 41 43 43 46 47 48 47 44 41 42 40 40 42 45 47 56 59 62 63 64 64 64 64 63 63 62 59 59 57 52 48
34 32 31 31 29 26 27 23 21 23 22 24 28 30 32 33 36 38 41 43 43 46 46 46 44 43 44 43 42 40 41 43 45 51 56 57 57 61 62 62 62 62 63 62 61 60 58 54 51
32 30 26 25 24 22 23 25 22 20 22 25 27 30 32 34 36 38 42 42 43 44 44 44 43 43 43 44 43 43 43 43 42 43 47 52 56 58 60 61 61 61 62 62 62 60 59 55 53
32 29 27 19 22 22 22 22 21 20 23 25 26 29 31 33 37 40 42 41 41 43 43 43 43 43 43 44 44 45 45 46 45 46 46 47 50 54 56 60 60 60 60 61 61 60 59 57 55
34 30 27 25 17 22 20 19 21 21 22 22 24 28 31 34 38 40 40 40 41 42 43 43 43 42 43 44 45 44 44 46 47 47 48 48 50 54 54 55 59 58 60 60 60 60 59 58 56
36 33 30 28 19 17 16 15 16 20 21 21 24 29 33 35 39 40 39 38 40 42 42 42 42 42 42 42 42 43 44 46 48 49 50 51 51 52 52 54 54 55 58 59 58 57 57 55 54
34 33 32 27 26 22 16 14 18 20 21 21 27 30 33 37 40 39 38 38 40 40 40 41 41 41 40 41 41 43 44 46 48 50 49 49 49 50 50 51 51 52 53 54 54 53 52 52 51
35 33 32 28 24 23 22 19 19 22 25 27 28 32 35 40 39 38 37 36 39 39 39 40 40 40 39 39 40 42 44 46 46 46 46 48 47 48 47 47 47 47 48 49 49 49 48 49 46

GFSSGP_sfc_dewp_045.txt.gz
Dewpoint
62 57 54 46 38 37 34 32 27 28 27 30 31 29 32 42 51 50 60 66 67 70 72 73 75 75 76 75 75 74 74 74 73 71 69 68 67 65 66 70 69 70 69 67 66 65 64 65 64
62 56 49 43 37 32 32 31 26 31 31 32 31 30 41 53 58 60 61 67 68 69 70 72 74 75 75 75 74 74 74 73 72 70 69 67 65 64 70 70 70 70 69 67 65 64 65 66 65
58 54 45 40 37 34 32 31 27 31 30 31 31 31 47 52 59 60 63 66 67 67 69 71 75 75 75 75 74 74 73 72 71 69 67 66 64 66 71 70 70 69 68 66 65 66 66 66 66
53 47 42 38 36 36 35 34 31 30 30 30 31 48 55 58 59 63 63 65 65 66 69 72 74 75 75 74 74 74 72 71 70 68 66 65 64 67 69 69 68 68 67 66 66 66 67 66 65
50 46 40 37 36 36 34 30 30 30 30 30 30 45 56 59 62 62 61 63 65 67 67 69 73 74 74 74 74 72 72 71 69 67 66 65 65 67 68 67 67 67 66 65 66 66 67 65 65
50 48 40 37 35 35 35 30 27 29 29 28 36 52 56 60 60 60 61 65 66 65 66 68 71 72 72 72 72 72 72 72 70 68 66 66 65 66 66 66 66 66 65 66 66 66 65 64 64
47 46 41 39 38 38 36 31 27 28 29 29 30 51 57 61 62 61 61 65 65 64 65 67 68 69 70 70 71 71 71 72 70 69 68 67 66 65 66 66 66 65 66 67 66 64 63 62 63
51 47 40 41 39 39 40 31 30 28 28 30 34 50 57 61 64 65 64 63 64 64 65 65 65 66 66 68 69 70 71 71 70 68 68 67 66 67 66 67 67 67 68 67 64 62 61 62 62
54 46 41 40 40 40 40 41 34 32 30 30 44 54 62 64 64 64 64 63 62 64 64 64 65 65 65 66 67 68 69 70 69 68 66 65 64 65 66 66 67 68 69 66 63 61 61 63 62
50 44 42 43 42 42 45 41 34 31 31 31 50 62 63 63 63 62 62 63 61 62 63 64 64 64 64 65 66 66 66 68 67 65 64 63 63 63 63 64 66 68 69 67 63 61 61 59 52
46 41 43 41 41 45 46 42 39 31 32 31 43 59 61 62 61 61 61 62 60 62 62 62 63 63 62 63 64 64 66 66 67 65 63 62 61 61 62 64 65 65 66 64 62 59 55 50 47
39 42 43 44 46 49 47 42 37 34 33 38 34 53 58 59 61 61 61 62 62 63 64 65 63 60 61 64 63 62 64 64 66 66 64 63 61 60 62 63 63 64 64 62 61 58 53 49 48
40 39 40 41 42 46 48 44 36 32 36 38 38 39 46 55 59 61 61 62 63 63 63 64 65 64 60 62 61 60 61 63 63 64 65 63 61 60 61 61 60 62 64 63 61 59 56 52 44
40 40 38 36 37 36 35 36 34 31 35 37 37 37 41 38 40 53 60 60 63 63 63 63 65 65 64 61 60 60 60 61 60 61 61 62 60 61 60 60 60 59 62 62 62 59 54 46 43
37 37 37 39 37 36 36 34 35 33 34 34 34 35 35 35 35 37 54 58 60 63 63 64 64 65 64 64 63 64 65 62 60 60 60 60 59 61 61 60 60 59 60 60 58 57 51 45 42
36 35 34 36 37 36 33 31 34 35 32 33 33 33 33 34 33 32 35 40 53 59 63 64 64 64 64 65 64 64 64 65 65 60 60 60 59 60 61 61 61 61 60 60 60 56 52 47 42
36 32 33 33 35 35 34 32 34 34 33 33 34 34 33 32 32 32 32 31 36 41 55 63 64 64 65 65 65 65 65 65 65 66 63 60 59 59 59 60 61 62 62 61 60 58 51 46 43
33 31 31 31 34 34 34 33 34 32 32 33 32 30 29 30 30 30 33 35 35 35 37 38 45 60 65 65 65 65 65 65 65 65 66 66 61 60 59 59 60 63 62 61 60 59 51 47 45
33 32 29 31 33 34 33 34 34 34 29 29 29 30 29 28 29 33 32 33 34 35 36 37 38 39 43 50 62 64 64 64 63 65 65 65 65 63 60 60 59 62 62 61 61 59 53 48 46
32 30 28 29 33 33 33 32 33 34 31 29 30 30 30 29 29 32 36 38 39 40 41 40 39 39 39 43 45 57 64 64 65 65 65 65 65 65 64 62 60 60 61 61 61 59 53 51 46
29 24 25 27 31 30 28 26 28 29 29 30 31 29 28 26 27 33 38 40 42 43 44 45 43 41 41 39 40 42 47 60 62 62 62 63 64 64 64 63 62 61 60 60 61 60 57 53 50
27 26 28 30 29 26 27 21 19 26 27 28 27 25 25 32 33 38 40 41 43 45 46 47 47 45 41 40 39 38 40 43 55 61 63 63 64 64 64 64 63 62 61 60 59 60 58 55 51
28 32 32 31 29 29 27 23 23 24 26 24 25 25 28 33 36 39 41 42 45 46 47 46 45 44 43 42 42 39 39 41 45 47 54 61 63 64 63 63 63 62 62 62 60 59 57 55 54
34 32 31 31 29 22 27 24 22 24 24 24 26 30 32 35 36 40 42 42 44 45 45 45 44 43 44 44 43 43 42 41 41 42 44 48 56 60 63 63 63 62 61 62 61 60 59 57 54
34 29 26 24 19 20 24 25 24 24 24 25 28 30 32 34 36 39 42 42 43 43 43 43 43 43 43 44 44 44 44 44 44 44 44 45 47 54 58 61 61 60 60 60 60 60 60 59 56
35 29 25 18 18 22 22 22 23 21 24 28 29 31 33 34 37 41 41 41 41 42 43 43 43 42 43 43 44 44 44 46 47 47 47 48 50 53 55 56 59 59 59 59 61 59 58 57 56
36 33 31 25 22 19 21 21 20 22 26 27 29 30 32 34 40 41 40 40 41 42 42 42 42 42 42 42 42 42 43 45 47 49 50 51 51 51 52 53 54 57 58 58 58 59 59 57 55
36 34 28 27 21 15 18 17 18 20 21 25 27 29 32 36 40 39 38 39 41 41 41 41 41 40 40 40 41 42 44 46 49 49 48 49 49 50 50 50 51 52 53 55 56 57 55 56 55
34 33 32 29 26 21 14 15 18 20 21 21 27 29 34 37 39 38 37 39 39 39 40 40 40 39 38 39 40 42 44 46 46 46 47 47 48 47 47 48 48 48 49 50 50 51 52 52 51
36 34 31 25 23 22 21 18 20 22 22 23 27 32 35 40 39 38 37 38 39 39 39 39 39 39 38 38 39 40 41 41 41 41 41 43 42 40 39 39 40 40 43 44 47 47 47 47 45

GFSSGP_sfc_dewp_048.txt.gz
Dewpoint
63 60 54 45 38 37 35 34 27 28 29 30 31 46 49 49 50 42 62 67 70 71 72 74 75 75 75 75 74 74 74 74 73 70 69 68 67 65 69 68 69 68 67 66 65 64 64 64 63
61 54 48 42 37 33 33 33 31 29 31 31 30 32 49 54 58 63 64 68 69 71 72 73 75 75 75 75 74 74 74 73 71 70 68 67 64 69 71 70 70 69 67 65 64 65 65 64 64
59 52 44 39 37 33 32 32 28 30 30 31 30 44 51 54 59 62 66 67 69 70 71 73 75 75 75 74 74 74 74 71 70 68 67 65 66 71 71 71 69 68 66 65 65 66 66 66 65
51 47 42 39 37 36 35 35 33 30 31 30 41 52 56 59 60 63 67 67 67 68 70 74 75 75 75 74 74 73 72 70 69 67 66 65 68 70 70 70 69 67 67 66 66 66 66 66 65
50 46 41 37 37 38 37 36 33 29 30 30 37 51 55 60 63 66 66 66 67 68 71 73 75 75 74 74 74 73 73 70 68 67 65 65 68 69 68 68 68 67 66 65 66 66 65 65 65
50 48 40 38 38 37 37 36 30 29 29 32 53 55 55 61 60 64 64 65 67 67 68 69 73 74 74 73 73 72 72 71 68 67 66 65 67 67 68 68 67 66 66 66 66 66 65 64 64
45 44 39 40 38 39 38 41 28 29 29 28 50 53 57 60 64 63 65 66 66 66 67 69 69 70 71 72 71 71 72 71 69 69 68 67 67 66 67 67 66 66 66 67 66 64 64 63 63
49 45 38 40 38 41 42 43 41 28 28 30 51 55 56 60 64 64 65 64 64 65 66 67 67 67 67 68 70 70 71 70 69 68 68 67 66 67 67 67 67 67 67 67 65 63 62 62 62
53 45 39 39 40 40 46 44 43 35 38 48 54 57 61 64 64 63 63 64 64 64 65 65 64 65 66 67 68 70 70 70 69 68 66 66 64 65 66 66 67 68 69 66 63 62 62 64 63
49 43 40 41 40 42 46 45 44 38 34 50 59 62 63 63 62 62 61 62 63 63 64 64 64 64 65 66 67 66 68 68 67 65 64 64 63 64 65 64 66 68 68 67 64 62 63 62 54
49 41 41 41 42 48 48 46 45 40 33 43 56 60 61 61 61 62 62 62 62 63 64 64 64 64 64 65 65 65 65 66 66 64 63 62 62 62 62 62 64 65 66 64 63 60 56 51 46
44 44 43 45 46 50 47 47 46 41 34 36 54 61 60 60 60 61 61 62 62 62 63 63 64 63 63 64 64 63 64 64 65 65 63 62 61 60 61 62 63 63 64 62 61 58 54 48 47
41 42 43 47 50 50 49 48 47 46 45 39 53 57 59 59 60 61 61 62 62 63 64 64 63 61 62 63 62 62 64 64 66 65 64 63 61 60 61 62 62 62 63 62 61 59 58 53 50
43 40 43 45 45 47 46 46 48 45 39 37 38 41 46 55 59 59 61 61 62 62 63 64 64 64 61 62 61 61 62 63 63 65 65 64 62 60 61 61 61 61 63 63 62 61 59 56 50
40 40 40 39 39 37 41 42 46 46 38 35 36 35 36 36 38 57 60 60 62 63 62 62 64 65 64 61 61 60 60 61 61 62 63 64 63 61 60 60 60 59 60 62 62 61 59 54 47
36 36 35 37 37 37 34 33 41 45 35 32 33 34 34 35 34 33 51 59 61 63 63 63 63 64 64 64 63 63 64 64 61 60 60 61 62 61 60 60 60 60 59 60 60 59 56 51 45
35 32 33 34 37 36 32 32 33 35 34 32 33 33 33 33 33 34 33 40 45 59 60 63 64 64 64 64 65 64 64 64 65 65 62 60 60 59 61 61 60 61 60 59 60 58 54 51 47
32 32 31 32 35 36 34 33 34 35 33 32 33 34 33 31 31 32 33 35 36 37 41 48 61 64 64 65 65 64 64 64 64 65 66 65 61 60 59 60 61 61 61 61 60 59 55 51 49
33 30 30 32 34 34 33 34 34 34 34 31 33 31 30 29 32 33 33 33 37 38 37 38 38 39 52 62 63 63 64 64 63 64 65 65 65 64 60 60 60 61 61 61 61 60 57 52 47
33 31 29 30 32 33 33 32 34 35 34 32 30 30 30 29 30 34 37 39 40 41 42 41 40 40 39 42 45 58 63 63 64 64 64 64 64 64 64 61 60 60 61 61 60 60 57 56 50
32 30 28 27 31 31 29 27 29 32 33 31 31 30 30 29 30 35 39 41 42 44 45 46 46 44 41 39 40 42 44 57 61 61 62 63 64 64 63 63 62 60 60 61 61 60 58 57 52
29 28 27 29 29 28 28 24 22 27 28 30 30 28 29 26 30 38 40 41 43 45 46 46 46 44 43 42 40 38 39 40 48 58 61 62 62 63 63 63 63 62 61 60 60 61 60 57 54
30 30 31 30 28 28 26 22 22 24 25 27 29 27 26 32 37 39 41 42 45 46 45 45 44 44 44 43 43 42 41 41 42 44 45 49 55 61 63 63 63 62 61 61 60 58 58 58 58
34 31 31 31 28 21 25 24 23 22 22 25 26 25 28 35 38 41 42 45 44 44 44 43 43 43 44 45 45 44 44 44 44 43 43 44 47 53 57 61 62 62 61 60 60 59 57 58 57
32 28 21 22 22 21 25 24 23 26 25 25 25 29 33 36 38 41 42 42 43 43 43 43 43 43 43 43 44 44 44 45 46 45 46 47 48 52 53 55 57 59 59 60 59 58 58 57 57
32 29 22 18 19 21 23 23 21 26 24 26 28 31 32 34 37 41 41 41 42 42 43 42 42 42 42 42 42 43 43 44 47 48 49 50 50 51 52 53 54 56 57 57 58 58 57 58 57
35 31 31 23 21 17 21 22 22 24 26 28 29 31 32 34 39 41 40 41 42 42 41 41 41 40 40 40 41 42 44 45 48 48 48 49 49 50 50 50 51 52 53 55 56 58 57 55 55
35 35 29 25 19 14 17 20 19 21 26 28 29 31 33 37 41 39 39 41 41 40 41 41 40 39 39 39 40 43 44 48 48 47 46 47 47 47 47 47 48 48 50 51 52 54 54 53 54
35 35 34 30 27 20 17 17 19 21 25 27 29 30 33 38 40 38 39 40 39 40 40 39 39 38 38 38 39 41 42 43 43 42 43 44 41 40 40 42 43 44 45 46 47 47 47 48 49
37 34 31 28 22 22 21 18 21 21 23 27 28 30 35 39 39 38 38 39 39 39 38 38 38 38 37 38 39 40 40 40 40 40 39 39 38 37 37 37 37 38 40 40 42 43 43 44 44

GFSSGP_sfc_dewp_051.txt.gz
Dewpoint
63 60 54 44 38 37 35 34 36 27 28 30 32 41 42 50 48 41 62 67 71 71 73 73 75 75 75 75 74 74 74 73 72 70 69 68 66 67 68 70 68 67 66 65 64 64 64 64 65
62 54 46 42 36 33 33 34 32 29 30 32 43 44 53 53 58 62 64 69 71 72 73 73 75 75 75 74 74 74 73 72 70 69 68 66 65 70 69 70 69 67 66 64 64 64 63 63 65
59 51 43 39 37 33 31 33 33 30 31 30 37 50 53 56 61 63 65 69 70 71 73 74 75 75 75 74 74 74 72 71 70 68 67 65 70 71 70 70 68 67 65 64 65 65 65 65 64
52 46 43 39 36 36 34 36 36 32 30 31 47 52 57 60 60 64 68 69 70 70 72 74 75 75 74 74 74 74 71 70 69 67 65 66 70 71 71 70 68 67 66 65 66 66 66 65 65
51 45 40 37 37 38 37 37 35 32 30 31 46 53 55 60 64 67 68 68 68 69 72 73 75 75 74 74 74 73 71 69 68 66 64 68 70 69 70 69 67 67 66 65 66 66 65 65 65
49 46 39 37 38 40 40 40 37 29 29 46 54 54 54 60 65 66 66 66 68 69 71 72 74 74 74 74 73 73 72 70 68 66 65 66 68 68 68 68 67 66 65 65 66 65 64 64 64
48 44 40 40 39 39 40 44 39 36 28 32 54 53 56 59 62 64 65 67 67 68 69 70 72 72 72 72 73 72 72 70 69 68 68 68 67 68 68 67 67 66 65 66 65 64 63 63 63
48 43 38 39 37 39 43 45 43 41 30 36 54 54 54 60 63 65 66 65 65 66 67 67 68 70 69 70 70 70 71 70 69 68 68 67 67 67 67 68 67 66 66 66 65 63 62 62 62
54 43 39 37 37 38 44 45 45 44 41 47 60 56 60 63 64 64 63 63 64 65 66 66 66 66 66 67 68 69 70 69 68 68 67 65 64 65 65 66 66 67 68 66 64 62 62 64 63
49 44 40 39 38 37 42 46 45 42 42 47 57 62 63 62 63 62 62 62 63 63 64 65 64 65 66 67 67 67 68 68 66 65 64 63 63 63 65 64 66 68 68 67 64 63 63 61 53
48 42 41 40 40 46 47 45 46 44 40 36 38 59 61 61 61 62 62 63 63 63 64 64 64 64 65 65 66 65 66 66 65 64 63 62 62 62 63 62 64 64 65 64 64 61 57 53 46
45 44 42 43 47 47 45 46 46 45 44 45 46 48 60 60 61 61 61 62 62 62 63 64 64 64 64 64 65 64 64 65 65 64 63 62 61 60 61 61 62 63 64 63 61 59 56 51 47
41 44 43 48 49 48 48 47 48 46 46 45 43 57 59 59 59 61 62 62 62 62 63 63 64 63 63 63 63 63 63 64 65 64 63 62 60 60 60 60 61 62 62 62 60 59 58 55 49
44 44 45 48 48 47 47 47 47 44 45 45 41 58 58 57 58 59 61 62 62 63 63 64 63 63 62 63 62 62 63 63 64 65 65 63 62 60 60 61 61 61 62 62 61 60 59 58 55
44 41 44 46 47 47 47 44 46 45 43 44 42 42 52 56 58 59 60 61 62 62 63 64 64 63 61 63 62 61 62 63 63 64 65 65 63 61 60 60 60 61 61 62 61 61 60 58 55
37 39 36 42 44 43 47 40 46 47 45 45 43 34 35 36 44 55 59 60 61 62 62 63 64 64 62 61 62 61 61 61 62 62 62 64 64 62 61 60 60 60 59 60 61 61 59 58 56
34 32 33 35 41 39 41 33 41 47 43 44 44 33 33 34 34 34 37 58 59 61 62 63 63 64 64 64 63 62 62 63 62 61 61 61 62 62 61 60 60 60 60 59 59 59 58 56 55
32 30 34 33 36 36 38 32 35 42 43 44 42 34 34 34 34 32 33 33 38 47 56 61 63 64 64 64 64 64 63 63 64 64 64 61 60 60 60 61 61 60 60 59 59 58 56 55 54
32 31 31 33 36 35 34 33 34 35 34 32 32 33 33 33 31 33 34 34 37 37 38 39 44 40 60 62 62 62 63 63 63 64 64 65 65 62 60 60 60 61 61 60 60 59 58 57 50
33 30 30 31 34 35 33 33 34 35 34 34 34 31 32 30 31 35 36 37 38 40 40 40 40 40 39 45 49 60 62 63 63 63 64 64 64 64 63 61 60 60 60 60 60 59 57 56 52
31 30 29 29 31 31 31 31 32 34 35 34 34 32 31 31 30 35 38 40 42 43 44 45 44 43 41 39 40 41 42 52 60 61 62 63 64 64 63 63 62 60 59 60 60 59 58 58 52
29 30 30 30 30 28 30 27 27 30 31 32 34 33 32 30 31 36 39 41 43 45 46 45 44 43 43 42 40 38 38 39 43 49 53 51 59 61 62 62 62 62 60 59 60 60 60 57 56
30 30 28 30 28 26 26 26 26 23 23 29 30 33 31 29 31 37 40 42 45 46 44 43 44 44 44 44 43 42 42 42 43 43 43 44 46 50 57 60 61 61 60 60 59 58 58 58 59
33 31 30 30 27 21 26 25 23 23 22 21 25 29 29 29 35 40 41 45 44 44 43 43 43 43 44 45 44 44 44 44 44 44 44 46 47 52 53 55 58 60 60 59 59 58 57 58 58
31 28 26 24 26 20 25 24 23 24 25 24 24 26 27 34 39 41 43 43 43 42 43 43 43 42 42 42 42 43 43 44 45 46 46 47 50 51 51 52 53 56 60 60 59 57 57 57 57
30 27 22 18 19 20 25 24 23 26 27 27 27 27 32 36 40 41 42 42 42 42 42 42 42 41 41 41 41 42 44 45 47 48 49 49 49 50 50 50 51 52 54 56 56 56 56 56 57
33 27 27 22 19 16 21 21 22 23 24 25 27 31 33 36 39 41 41 42 42 41 41 41 40 40 40 40 41 43 45 46 47 46 47 47 47 48 48 48 48 49 51 52 56 58 57 56 55
34 34 27 22 14 15 16 19 19 20 22 27 29 31 32 35 40 40 40 41 41 41 41 39 39 38 38 39 41 42 43 45 45 45 45 44 43 42 43 45 45 46 46 48 49 50 51 52 51
35 33 32 29 24 18 18 18 22 20 21 26 29 31 33 37 40 39 40 40 40 40 39 39 38 37 37 38 40 40 41 41 40 41 41 39 38 38 38 39 40 41 41 42 44 44 45 46 46
37 35 32 28 24 21 19 20 21 21 22 28 30 31 35 39 39 38 40 39 39 38 38 38 38 37 37 38 39 39 39 39 39 39 38 38 37 37 37 37 37 38 38 39 39 40 40 40 40

GFSSGP_sfc_dewp_054.txt.gz
Dewpoint
63 59 52 44 35 37 32 31 37 30 27 29 30 35 38 51 47 39 61 67 70 72 73 73 74 74 75 75 74 74 73 73 72 70 69 67 66 68 70 68 68 67 65 65 65 65 65 66 67
62 51 45 41 34 30 30 35 33 32 30 45 43 48 52 52 59 62 64 69 70 72 73 73 74 75 75 75 74 74 73 71 70 69 68 66 67 68 70 69 68 66 64 64 64 63 64 65 66
58 50 42 38 35 31 28 34 35 34 33 31 45 53 53 55 61 63 64 70 71 71 73 73 74 75 75 74 74 73 72 70 69 68 66 66 70 69 71 69 68 66 64 65 65 64 64 65 65
52 45 42 37 35 35 34 36 37 35 31 31 47 50 56 60 62 64 69 70 70 72 72 74 75 75 74 74 74 73 71 70 69 67 65 70 70 70 70 69 67 66 65 65 65 65 65 65 66
51 44 39 37 37 38 39 38 40 34 31 30 47 51 53 60 65 68 69 70 69 71 72 74 75 75 74 74 74 73 71 69 68 66 65 70 71 71 70 69 67 66 65 66 66 65 65 66 65
48 45 37 36 37 40 40 43 40 39 30 41 52 52 53 60 64 67 68 68 70 71 72 73 74 74 74 74 73 72 71 69 67 66 66 69 69 70 69 68 67 66 65 65 66 65 64 64 65
47 43 38 38 39 39 40 44 41 41 37 29 54 50 54 58 63 66 66 67 69 70 70 71 72 73 73 73 73 72 71 70 69 68 68 69 69 69 69 68 67 66 65 65 65 64 64 63 64
50 45 39 39 37 39 43 44 45 44 40 40 53 51 53 60 64 65 66 66 67 68 68 69 70 71 71 71 72 71 70 70 69 68 68 67 67 67 68 68 67 66 66 66 65 63 62 63 63
51 44 38 38 37 39 45 43 46 46 44 45 58 59 61 63 64 63 63 63 65 66 66 67 67 68 68 69 70 69 69 69 68 68 67 65 63 64 64 66 66 67 68 66 64 63 62 63 61
48 43 41 40 38 36 46 45 45 44 44 38 44 47 59 62 63 62 62 62 63 64 65 66 66 66 66 67 67 68 68 67 66 65 64 63 62 63 64 64 65 67 68 67 64 62 63 59 52
48 43 43 40 40 45 46 45 47 45 42 43 45 46 49 61 61 61 62 62 63 63 64 65 64 65 65 66 66 66 67 66 65 64 63 62 62 62 62 62 63 63 64 64 63 61 58 53 47
44 45 44 43 43 46 45 45 45 46 45 47 45 45 47 58 60 61 61 62 62 62 63 64 64 64 64 65 65 64 65 65 64 63 63 61 61 60 60 60 61 62 63 63 61 59 57 53 48
43 44 43 47 46 45 46 46 46 47 47 48 45 45 54 59 60 61 62 62 62 62 62 63 63 63 63 63 64 63 63 65 64 63 63 62 60 60 60 59 60 61 62 62 61 59 58 56 52
44 44 44 46 46 47 45 47 47 43 44 44 44 44 47 58 59 60 61 62 61 62 62 63 63 63 63 63 62 63 63 63 64 64 63 62 61 60 59 60 60 60 61 62 61 60 59 58 57
43 41 46 47 47 47 45 44 46 45 45 45 45 45 40 47 58 59 61 61 61 62 63 63 63 63 62 62 62 62 62 63 62 64 64 63 62 61 60 60 59 60 60 61 61 60 59 58 58
41 41 39 44 46 46 42 38 41 47 48 46 44 43 40 36 42 57 59 61 62 62 63 63 64 63 62 62 63 62 61 62 62 62 63 64 64 62 61 60 60 60 60 60 60 60 59 58 58
37 34 33 39 46 46 41 38 42 49 48 45 42 42 41 35 35 35 43 59 60 61 62 62 63 64 63 62 62 62 61 61 61 62 62 63 64 64 62 61 61 60 60 59 59 59 59 57 57
33 30 32 33 42 44 41 34 41 47 44 42 40 41 40 36 35 34 33 34 50 56 60 61 62 63 63 63 63 62 62 62 62 62 61 61 61 62 62 62 61 60 60 59 58 58 57 58 57
32 31 32 33 37 38 42 39 35 45 43 41 39 41 36 35 35 33 33 34 37 39 46 54 60 58 62 62 62 61 62 62 62 63 64 64 62 60 60 60 60 60 60 60 59 58 58 56 53
32 30 29 31 35 37 34 36 36 35 41 41 39 41 36 33 31 33 34 36 37 38 39 39 40 39 48 56 58 61 61 61 62 62 63 63 63 64 63 60 60 60 60 59 59 58 56 56 52
30 30 29 30 32 32 33 32 33 34 35 35 36 38 34 32 31 33 36 37 40 41 42 42 42 41 41 39 40 41 42 48 57 60 61 62 63 63 63 63 62 60 59 59 59 58 58 58 52
29 31 30 31 30 27 32 28 30 33 33 33 34 34 34 32 30 33 37 40 42 44 45 44 43 43 42 42 40 38 38 38 41 44 46 45 49 54 60 61 62 62 60 59 59 59 59 57 58
30 31 29 30 28 26 25 26 28 26 30 32 33 33 35 33 31 33 37 40 43 45 44 43 44 44 45 44 43 42 42 43 43 43 44 44 46 49 53 55 57 59 60 61 59 58 57 57 58
32 30 30 29 27 20 25 26 26 24 23 23 26 31 32 33 30 33 39 44 45 44 43 43 43 44 44 44 44 44 44 44 45 45 45 46 48 52 51 52 53 57 58 59 60 59 58 57 58
31 29 23 23 21 20 24 25 25 25 25 23 23 23 26 30 30 38 42 44 43 42 43 43 43 42 42 42 42 43 43 44 45 46 46 47 49 50 50 50 51 52 54 58 60 59 59 57 57
30 28 22 17 19 20 24 23 24 26 25 27 27 27 27 29 36 39 43 43 42 42 42 42 41 40 40 41 42 43 44 45 47 48 48 48 48 49 49 48 49 49 51 53 57 58 58 57 57
32 29 25 21 17 15 21 22 21 22 22 25 25 26 29 34 40 42 42 42 42 42 41 41 40 39 39 40 42 43 45 45 46 46 46 46 45 46 45 46 46 47 48 49 54 55 55 56 55
32 32 25 22 13 15 17 18 19 19 21 22 25 28 31 37 41 41 41 41 41 41 40 39 39 38 38 39 41 41 42 43 43 44 43 41 40 40 40 41 42 42 43 45 47 49 50 50 49
33 31 30 27 23 17 16 19 21 22 20 20 22 29 33 37 41 40 41 40 40 40 39 38 38 37 37 38 39 40 40 40 40 40 39 38 37 38 38 39 39 39 39 40 42 42 43 45 44
37 33 30 23 21 20 19 21 23 21 22 22 26 30 33 37 40 39 40 39 39 38 38 37 37 37 37 38 38 39 39 39 38 38 38 37 37 37 37 37 37 37 37 37 38 38 39 39 38

GFSSGP_sfc_dewp_057.txt.gz
Dewpoint
63 57 51 47 37 36 30 31 35 32 28 32 34 36 39 48 43 36 64 68 67 70 71 71 74 74 75 75 74 74 73 73 71 70 69 67 69 70 69 68 67 65 65 66 66 67 68 68 67
62 52 48 43 35 29 29 35 33 34 33 35 41 47 50 51 60 62 65 68 69 70 71 71 74 74 75 75 74 74 73 71 70 69 68 67 69 71 69 69 67 64 65 64 65 65 67 67 66
57 49 45 40 35 29 26 35 37 37 37 34 40 53 55 56 62 63 65 69 70 71 71 72 74 75 75 74 74 73 72 70 69 68 66 68 69 70 69 68 67 65 65 65 65 65 66 66 66
52 46 43 36 34 35 33 37 38 37 33 32 46 51 58 61 62 64 69 69 70 71 71 72 74 75 75 74 74 72 71 70 68 66 67 71 69 71 70 68 67 65 66 66 66 66 66 66 66
51 45 39 37 35 37 38 39 41 39 33 33 47 50 57 62 66 68 69 69 69 70 71 71 75 75 74 74 74 72 70 69 67 66 68 71 70 71 70 68 67 66 66 66 66 66 66 66 66
49 45 37 35 36 39 40 42 39 42 38 35 52 55 57 63 65 68 69 69 68 70 71 71 73 74 74 74 73 72 71 69 67 67 70 71 72 70 69 68 67 66 65 66 66 65 65 65 65
47 44 38 36 37 38 40 44 43 42 37 39 51 53 58 63 66 67 69 69 69 70 71 72 71 72 73 73 72 72 71 70 69 68 70 71 70 70 69 68 67 66 65 66 66 65 64 64 64
51 44 39 39 37 38 42 44 45 43 41 45 59 54 56 61 65 67 68 69 70 71 71 71 71 70 71 71 71 71 70 70 69 68 68 67 67 69 69 67 68 66 66 66 65 64 63 64 63
53 45 39 39 38 40 45 42 46 45 44 45 51 52 57 63 65 65 66 67 68 69 70 70 70 70 70 70 70 70 69 69 68 67 67 66 65 65 66 66 67 68 67 66 64 63 63 63 62
48 43 41 40 39 42 45 44 45 43 41 41 45 47 47 62 63 64 64 64 66 67 67 68 69 69 69 69 70 69 68 67 66 65 65 64 64 65 65 65 65 67 68 67 64 62 62 58 54
49 42 42 42 42 46 45 44 46 43 41 45 45 45 46 52 61 62 63 64 65 65 66 66 67 67 67 68 68 68 67 67 66 65 64 63 63 64 65 65 65 66 65 66 64 62 60 55 51
45 47 44 43 43 46 43 45 43 45 43 47 47 45 47 52 58 61 63 63 64 65 65 65 66 66 66 67 67 67 67 67 66 65 64 63 62 63 63 63 64 65 65 66 65 63 61 58 51
44 45 45 46 45 45 45 46 44 45 47 48 45 46 46 50 58 62 62 63 63 64 65 65 65 65 65 66 66 66 67 67 66 65 64 63 62 62 61 62 62 63 65 65 65 63 61 60 58
45 44 44 47 45 46 44 45 46 43 45 45 46 46 46 44 55 61 62 63 63 63 64 64 64 64 64 65 65 65 65 66 67 66 65 63 63 62 61 60 60 61 62 63 64 63 62 61 60
44 42 45 46 46 46 45 43 43 45 47 46 46 45 45 44 43 58 61 62 63 63 63 63 64 64 64 64 64 64 64 64 65 66 66 65 63 62 61 61 60 60 61 61 62 63 63 62 61
41 41 39 45 47 47 43 35 41 47 46 45 46 45 44 43 41 40 58 62 63 63 63 63 63 64 64 64 64 64 63 64 64 64 65 65 65 64 63 62 61 61 61 61 61 61 61 61 61
39 35 36 41 46 45 43 39 40 47 45 43 42 44 42 42 42 38 39 57 62 63 63 63 64 64 64 64 64 64 64 63 62 63 62 63 64 64 64 63 63 62 62 61 61 61 61 60 60
34 34 34 37 44 45 41 36 43 46 45 42 42 43 43 42 41 39 36 35 42 61 62 63 64 64 64 63 63 63 63 63 63 63 63 63 63 64 64 64 63 63 62 62 61 61 60 60 59
33 34 33 34 43 43 42 40 38 46 45 43 43 43 41 41 40 37 36 35 36 44 54 62 62 63 64 64 63 63 62 63 64 63 63 63 62 62 63 63 63 63 62 61 61 61 60 60 59
34 31 33 32 40 40 40 41 41 41 44 41 41 40 42 40 35 34 35 36 37 39 44 48 58 58 62 63 63 64 64 64 64 65 64 64 64 65 64 63 62 61 61 61 61 61 60 60 58
31 32 30 31 35 34 35 34 35 38 42 42 42 41 40 39 36 33 34 36 40 41 42 42 43 42 44 49 47 47 48 51 59 62 63 61 59 64 65 65 65 64 62 61 62 61 60 60 58
31 32 32 33 32 31 32 28 32 34 34 37 40 40 40 40 34 34 35 37 41 43 46 45 44 43 43 43 41 41 43 43 43 45 46 45 46 48 54 61 63 64 63 62 62 61 61 60 59
31 32 31 31 29 28 27 29 29 31 33 34 35 36 36 37 36 33 35 39 42 46 46 45 45 45 45 45 44 43 43 44 45 45 45 47 49 53 54 55 56 58 58 59 60 60 60 60 60
32 30 30 29 27 25 26 28 26 26 26 29 33 34 35 35 36 35 36 42 45 46 45 46 45 45 45 45 45 45 45 45 46 46 47 47 49 53 52 52 53 55 57 57 58 58 60 60 60
31 29 28 26 26 22 24 25 26 26 25 25 25 25 28 33 34 33 38 43 45 44 45 45 44 43 43 43 43 44 44 45 45 46 47 48 50 51 51 51 51 52 53 55 58 60 60 59 58
30 29 24 19 20 22 24 24 24 28 27 26 27 28 28 28 30 34 39 43 44 44 44 43 42 41 42 42 43 44 45 45 47 49 50 49 49 49 48 49 49 49 50 52 56 58 59 58 58
32 29 25 22 20 19 21 22 22 23 21 23 24 27 27 29 32 36 42 43 43 43 43 42 41 40 41 42 43 44 47 47 48 47 48 47 45 44 44 45 46 46 47 50 53 54 55 53 53
32 31 27 25 17 17 18 18 19 20 21 22 21 22 27 32 38 42 42 42 42 42 42 41 40 40 40 41 42 43 44 45 45 46 43 41 40 40 41 42 42 42 44 46 49 50 50 49 49
32 31 30 27 24 20 17 18 21 22 22 21 22 23 29 35 40 42 42 41 41 41 40 39 39 38 38 40 41 42 41 41 41 40 39 39 38 39 39 39 40 40 40 42 44 45 45 44 44
35 31 29 25 22 22 21 21 24 22 22 23 24 29 33 37 41 41 41 40 40 39 39 38 38 38 38 39 40 40 40 40 39 38 38 38 38 38 38 37 37 38 38 38 40 40 40 40 39

GFSSGP_sfc_dewp_060.txt.gz
Dewpoint
62 56 53 48 33 31 25 26 32 31 27 31 33 31 37 45 37 39 63 64 62 64 67 71 75 75 75 74 74 73 73 72 71 69 67 70 70 69 69 67 65 66 67 67 68 68 68 68 67
60 51 49 44 30 26 23 28 29 32 34 36 43 44 41 42 57 62 62 66 64 65 66 68 75 75 75 74 74 74 72 71 70 69 67 69 71 69 69 66 65 65 65 66 67 67 67 67 67
56 51 43 36 28 25 22 31 33 36 37 38 40 50 51 53 60 61 63 66 64 65 65 68 74 75 75 74 74 73 71 70 69 68 67 68 71 70 69 66 65 65 65 65 66 67 67 67 67
51 48 43 32 26 27 27 36 39 35 32 36 38 47 57 61 61 62 65 65 65 65 65 72 74 75 75 74 74 72 71 69 68 66 68 69 70 70 69 67 66 66 66 66 66 66 67 67 66
50 44 33 31 28 29 36 39 39 36 32 36 43 48 55 63 65 65 65 66 64 65 65 69 75 75 75 74 73 72 70 69 67 67 70 71 71 70 69 67 66 67 66 66 66 66 66 66 65
45 41 32 29 29 36 38 41 39 36 33 42 46 49 57 64 65 66 67 65 64 65 66 69 73 74 74 74 73 72 70 68 66 69 72 71 72 70 69 68 66 66 66 66 65 65 66 66 64
43 39 33 30 30 36 38 43 39 36 36 43 50 49 59 63 66 68 67 64 65 66 66 67 69 71 73 73 72 72 71 69 68 70 71 72 71 70 69 68 67 66 66 66 65 65 65 64 63
42 39 35 34 32 33 42 44 44 38 43 52 57 54 56 59 65 68 68 66 65 67 67 66 69 67 68 70 71 71 70 70 69 69 69 68 69 69 69 68 67 66 66 66 65 64 63 63 62
48 43 38 37 33 38 43 42 45 45 45 46 47 47 47 63 66 67 67 66 66 67 68 67 66 66 66 68 68 69 69 69 68 67 67 65 62 64 64 66 67 67 66 66 64 63 63 62 62
48 43 39 38 37 40 43 41 43 42 42 44 44 45 50 63 64 65 65 64 65 64 66 67 67 66 66 67 67 67 66 65 64 63 61 57 58 59 61 64 66 67 68 67 63 63 62 59 53
46 42 40 38 41 42 42 44 45 40 41 43 44 45 45 52 62 63 63 62 63 63 65 66 67 66 66 66 67 67 66 65 65 64 63 60 58 59 59 59 60 62 65 62 63 61 58 54 51
44 42 41 40 43 42 41 43 42 42 42 45 46 45 46 49 54 61 63 63 63 64 64 65 65 66 66 65 66 66 64 64 64 64 63 62 61 61 59 56 58 60 59 60 61 60 60 59 55
46 43 43 41 43 42 42 42 41 41 42 46 45 45 45 45 49 59 62 64 64 63 63 65 65 65 66 66 65 65 64 64 64 65 64 63 63 63 61 58 55 56 58 59 59 60 59 58 57
44 44 44 44 44 42 42 41 45 39 43 44 44 44 45 45 45 53 61 63 63 64 64 65 65 65 66 66 66 65 64 64 65 65 65 64 63 63 62 61 59 56 57 58 60 61 61 60 60
40 41 43 45 44 42 43 41 42 39 42 43 43 43 44 44 44 43 55 61 63 64 65 64 64 65 65 65 65 64 64 64 64 64 65 65 64 63 62 61 60 60 59 59 60 60 61 61 60
37 39 38 41 44 43 45 36 39 40 43 42 41 41 43 43 44 43 41 58 63 63 64 64 64 64 64 63 64 63 63 63 63 63 64 65 64 63 63 62 62 62 61 61 61 61 60 60 60
37 28 32 37 42 43 42 35 38 42 43 40 40 39 39 42 43 44 40 46 60 63 64 64 64 64 64 64 64 64 64 63 62 63 63 63 63 62 63 63 62 63 62 62 62 62 61 61 60
29 27 29 32 42 42 41 39 37 42 42 36 37 37 38 40 42 43 41 38 50 61 63 64 65 65 65 65 64 64 64 63 63 63 62 62 62 63 63 63 63 63 63 62 62 62 62 62 61
26 29 30 32 41 41 40 40 40 39 43 41 38 37 37 40 42 42 41 38 37 41 60 62 64 64 64 65 64 63 63 64 64 64 64 64 63 63 63 63 63 64 63 63 62 62 62 61 61
29 28 29 34 41 40 38 38 40 39 41 43 39 36 38 40 41 42 39 38 37 38 46 59 61 63 64 64 64 64 64 64 63 65 64 64 64 64 64 64 64 64 64 63 63 63 62 62 62
30 28 32 30 41 39 37 36 37 40 40 40 41 38 35 38 40 41 37 37 40 40 41 46 53 60 62 64 63 62 61 61 63 64 65 65 62 65 65 65 65 66 65 64 64 64 63 62 63
31 32 33 36 32 26 34 18 27 31 36 38 39 40 38 41 40 39 37 37 39 42 45 45 46 47 49 54 58 59 60 60 55 53 50 49 47 48 50 57 62 64 64 63 63 63 63 62 60
31 33 31 33 26 26 28 24 19 28 28 31 34 36 39 40 40 39 38 39 39 45 48 47 45 44 44 44 44 45 44 44 45 45 46 47 49 52 53 53 54 55 57 58 59 59 59 61 61
32 31 31 30 27 27 23 24 19 22 24 26 31 34 36 36 38 38 39 39 41 47 48 48 45 45 46 46 45 45 46 45 45 46 46 47 48 52 52 52 53 55 56 57 57 57 58 58 58
32 29 28 26 28 22 25 26 20 26 27 27 26 27 30 34 35 36 38 39 41 46 47 47 45 45 45 45 45 46 46 46 46 46 46 47 48 50 52 51 52 52 53 54 56 57 57 58 59
31 26 25 17 18 18 25 22 20 26 28 28 27 27 28 29 28 33 37 39 42 46 46 45 44 43 44 44 44 45 45 46 46 48 48 49 49 49 49 49 49 50 50 51 54 55 58 59 60
32 31 25 25 21 23 19 23 24 25 25 24 23 24 24 26 29 31 35 38 42 45 45 44 43 43 43 43 44 44 46 46 47 49 49 49 47 44 45 46 46 47 48 50 52 54 55 55 55
32 30 27 32 24 16 17 18 13 20 22 22 23 24 25 27 30 32 34 40 42 44 44 44 43 42 42 43 43 44 45 47 48 48 47 45 43 43 43 44 44 44 46 48 50 51 50 51 51
32 31 30 27 26 21 14 12 21 21 23 23 24 27 30 32 33 37 39 41 43 43 43 42 41 41 41 41 42 43 43 44 45 45 44 42 41 41 41 42 42 42 43 45 47 47 46 46 46
33 30 29 26 27 26 23 19 23 23 23 23 27 29 32 35 38 40 41 42 42 41 41 41 41 40 40 40 41 41 42 42 42 42 41 40 40 40 40 39 40 40 41 42 43 43 43 43 43

GFSSGP_sfc_dewp_063.txt.gz
Dewpoint
64 58 50 49 38 29 27 29 28 32 28 29 32 33 39 46 39 48 59 59 62 65 68 71 75 75 74 74 73 73 72 71 70 68 70 70 69 69 66 65 67 67 68 69 70 69 67 67 67
58 51 49 40 34 24 22 27 29 30 32 33 37 38 37 48 56 59 59 60 61 64 68 68 75 75 74 74 73 73 72 70 70 68 69 70 69 69 66 65 66 66 67 68 68 67 67 67 67
59 50 41 33 29 24 21 24 28 32 36 37 34 43 46 53 58 58 61 61 60 63 65 71 75 75 74 74 73 72 71 70 69 67 68 71 70 69 66 65 66 66 65 67 67 67 67 67 67
52 45 42 33 28 27 23 27 28 32 31 37 36 40 57 62 59 61 61 60 60 62 64 72 74 75 74 74 73 72 70 69 68 67 69 70 71 69 67 66 66 66 66 66 67 67 67 66 67
55 43 33 32 29 26 26 32 35 29 29 36 39 43 55 63 64 63 61 60 60 61 66 68 74 75 74 74 73 72 70 68 67 68 69 69 71 69 68 66 67 66 66 66 67 67 67 66 65
46 43 34 30 29 28 30 37 35 30 30 40 41 45 59 65 65 64 63 60 61 61 65 68 73 74 74 73 73 72 69 67 67 69 71 70 71 69 68 67 66 67 66 65 66 66 66 65 64
44 39 37 31 29 29 34 40 37 30 30 42 48 45 60 62 66 67 64 60 61 62 64 66 68 71 73 72 72 71 70 68 68 71 72 72 71 70 68 68 66 66 66 66 65 64 65 64 63
45 39 36 34 30 31 36 42 42 37 37 53 54 50 56 58 65 68 65 60 61 62 66 65 67 67 68 69 71 71 70 69 70 70 69 69 69 69 69 68 67 66 66 66 64 64 63 63 62
48 44 38 36 32 33 40 40 44 45 45 48 48 48 50 63 66 68 65 63 63 63 66 67 66 65 66 67 68 69 69 68 68 67 67 66 62 64 64 66 68 67 66 65 64 63 63 62 62
49 44 40 39 35 38 40 38 42 43 44 44 44 49 61 64 65 65 65 64 63 65 65 67 67 66 66 67 66 66 65 64 63 59 60 58 57 59 61 65 66 67 67 66 64 63 62 60 54
47 42 42 39 41 41 41 41 42 41 42 43 44 45 51 62 63 64 64 63 62 64 66 65 66 66 67 67 66 66 66 66 64 62 61 56 54 57 56 59 61 62 65 62 62 62 59 54 51
44 42 41 44 43 42 41 42 41 40 43 44 43 44 46 55 61 62 62 62 61 61 63 64 65 66 66 66 67 66 65 63 63 63 62 60 59 60 56 55 57 59 60 58 60 58 58 58 56
45 43 40 42 42 40 42 41 39 40 41 44 44 44 44 47 56 60 62 63 64 62 63 63 64 64 64 64 66 65 63 61 61 63 63 62 61 62 60 56 54 54 55 56 57 57 56 57 56
44 46 44 43 44 42 41 40 41 39 41 42 43 42 43 44 46 56 61 62 63 63 62 62 63 63 61 64 65 63 61 61 61 61 63 63 61 61 61 59 58 54 54 55 56 58 59 59 59
41 42 45 43 45 40 42 41 41 39 37 41 41 41 43 43 44 46 55 61 62 63 63 63 64 64 64 65 65 64 61 60 61 61 62 62 62 61 60 59 59 59 58 56 57 58 59 60 59
38 41 39 41 43 41 42 35 40 41 40 38 40 40 40 42 42 44 43 56 61 62 63 64 63 63 62 63 65 62 61 60 61 61 62 63 62 62 62 60 61 61 61 61 60 60 60 60 59
36 32 39 40 40 40 40 35 38 43 41 40 39 39 38 40 42 44 44 42 58 61 62 64 64 64 63 62 62 62 62 62 61 61 62 62 62 62 62 62 62 62 62 62 61 61 61 60 60
28 26 29 35 39 39 38 34 38 39 39 38 37 37 37 37 39 42 43 40 51 60 62 63 64 64 64 64 64 64 63 63 62 62 62 62 62 62 62 62 62 62 62 62 61 61 62 62 62
23 23 20 28 36 38 38 39 39 36 39 40 36 35 35 36 38 43 43 42 40 53 60 62 64 64 64 65 64 64 64 64 63 63 63 63 62 62 63 63 63 63 62 62 61 61 61 62 63
23 24 25 27 39 37 36 36 36 37 38 39 38 37 35 35 37 43 42 41 39 39 52 60 62 64 64 65 65 65 64 64 63 65 64 64 63 63 63 63 63 64 64 62 62 62 62 62 63
24 25 29 30 33 37 33 31 33 36 38 38 39 40 37 34 36 40 41 41 42 41 41 52 60 62 63 64 65 65 65 65 64 64 64 64 64 64 65 66 66 66 66 65 65 65 64 62 62
24 25 25 27 33 27 32 21 27 30 33 38 38 38 38 38 37 41 41 39 41 42 45 44 49 57 61 63 63 62 61 61 61 61 62 60 53 53 54 58 62 64 65 64 64 64 64 63 61
27 29 29 33 31 24 29 25 19 22 26 31 35 37 37 39 38 41 41 41 40 45 49 48 46 48 50 53 58 60 60 59 52 49 47 46 48 50 52 51 53 55 56 57 58 59 59 60 60
33 32 31 31 25 26 23 21 15 20 22 21 25 29 32 34 38 40 41 41 41 48 50 50 46 45 46 47 47 49 50 46 47 48 48 47 47 50 52 52 52 53 54 55 57 58 58 57 56
29 28 26 24 28 23 23 20 19 23 24 25 25 27 28 31 33 36 38 40 41 47 49 49 46 46 45 46 46 45 47 46 46 47 48 46 46 49 51 52 51 51 52 53 54 56 57 55 56
28 24 23 16 18 18 24 20 18 23 24 26 26 25 27 27 28 30 34 40 42 47 48 46 45 45 45 45 44 45 46 46 46 47 47 47 47 48 50 49 49 49 49 50 51 54 56 57 58
31 31 26 23 20 20 19 19 22 24 23 24 23 23 24 24 26 29 32 34 38 43 46 46 44 44 45 44 44 44 45 46 46 47 48 48 48 47 45 46 47 47 47 48 49 52 53 55 55
32 29 25 30 22 12 15 14 13 19 21 23 24 27 29 31 31 30 31 33 37 42 45 45 43 43 43 44 44 44 45 46 47 47 47 47 45 44 44 44 45 45 46 47 49 50 51 51 51
31 30 29 26 26 21 11 12 19 20 23 23 26 29 31 32 33 35 36 37 40 43 44 44 43 42 43 43 43 43 44 44 45 45 45 45 43 42 42 42 43 43 43 44 47 48 47 47 47
32 28 27 24 26 23 23 19 21 22 24 24 27 30 31 32 36 38 39 40 41 42 43 43 42 42 42 42 42 42 43 43 43 43 43 42 42 41 41 40 40 41 41 42 43 44 45 45 44

GFSSGP_sfc_dewp_066.txt.gz
Dewpoint
64 62 59 53 45 38 31 29 31 39 34 33 33 35 41 54 52 51 58 62 68 68 70 73 74 74 74 74 73 73 72 71 70 71 70 69 68 66 66 68 67 66 70 69 68 67 67 67 66
60 57 51 49 36 31 26 28 30 37 34 33 37 40 44 55 57 56 59 63 66 68 70 71 75 74 74 74 73 73 71 70 69 71 70 70 68 66 66 66 67 67 69 69 67 67 68 67 66
62 59 46 41 36 29 27 25 31 32 35 37 35 46 56 58 57 58 60 62 65 67 68 72 75 74 74 74 73 72 70 70 68 70 72 70 68 66 66 66 66 67 67 66 68 68 67 67 67
55 53 46 36 30 30 28 24 30 33 34 36 39 53 60 65 63 63 61 61 65 66 70 74 74 74 74 74 73 71 70 69 68 70 72 71 69 67 67 66 66 67 67 67 67 67 66 67 67
58 48 39 36 33 29 27 32 33 32 31 34 39 46 59 64 65 64 61 59 62 68 71 73 74 74 74 74 73 71 69 68 67 70 71 71 69 67 66 67 67 67 67 67 67 67 66 65 67
51 48 35 32 33 31 29 36 35 33 29 38 38 40 62 65 66 64 61 60 62 67 68 72 73 74 73 73 72 71 70 68 70 71 71 71 69 68 67 67 67 66 66 67 66 66 66 65 66
49 42 39 34 32 31 35 39 36 33 30 42 50 47 62 63 66 67 64 61 62 65 68 70 71 72 73 72 72 71 69 70 72 72 72 72 70 69 68 66 67 67 66 66 65 65 65 64 65
50 46 37 39 33 30 39 40 44 41 46 52 51 52 57 62 66 67 67 62 62 64 66 67 69 70 70 70 70 70 69 70 71 70 70 69 69 69 69 68 67 67 67 66 65 64 64 63 62
51 44 38 38 36 35 41 41 45 45 46 47 47 50 61 65 67 67 66 60 64 66 65 68 68 68 68 68 69 69 68 68 69 68 68 67 66 66 65 67 67 67 67 65 64 63 63 64 63
48 43 40 40 38 39 40 40 43 43 45 44 50 60 63 65 65 66 63 62 63 65 66 67 66 65 68 67 67 66 65 63 62 65 65 64 62 63 65 65 67 68 67 66 64 63 64 62 57
47 42 43 41 44 42 40 40 42 43 43 44 44 53 62 63 64 65 63 62 62 66 66 68 66 66 68 67 66 66 65 65 62 59 58 58 58 60 62 64 64 65 66 65 64 63 61 58 52
45 44 42 44 46 44 41 41 40 43 44 43 44 46 58 62 62 63 64 63 63 65 66 66 66 66 67 68 66 66 65 64 65 63 61 58 58 57 55 60 61 61 63 62 62 61 60 57 56
45 43 43 44 48 43 43 42 41 42 44 45 44 45 47 57 61 62 63 64 64 63 65 66 67 66 66 67 68 65 64 63 64 63 62 61 62 61 60 56 55 57 58 57 58 58 57 57 56
44 44 43 46 47 47 41 41 42 40 41 42 43 44 44 47 54 60 61 62 63 64 64 65 65 65 64 64 66 66 64 63 61 63 63 62 62 62 61 59 56 54 55 56 56 56 59 59 59
43 43 45 45 48 43 41 39 40 40 40 40 42 42 44 44 46 53 61 62 63 63 64 65 64 64 63 64 64 64 64 61 61 62 62 62 62 61 60 60 60 59 57 55 56 58 59 60 60
39 42 40 40 46 47 42 38 40 40 41 41 40 41 41 43 43 45 46 61 63 62 63 65 65 65 65 65 65 65 64 61 61 61 62 62 62 61 61 60 60 61 60 60 60 60 60 60 60
37 37 38 37 41 46 44 38 40 41 44 41 40 39 40 40 42 44 44 49 60 61 63 64 64 63 63 64 65 65 62 62 61 61 62 63 62 62 62 62 62 62 62 61 61 61 61 60 60
30 34 38 35 39 44 42 37 40 42 43 41 40 38 39 39 41 43 45 42 54 60 62 63 64 64 64 63 63 63 63 62 62 62 62 62 62 62 62 62 62 62 62 61 61 61 61 61 61
31 31 37 38 42 42 41 38 35 40 41 41 39 38 39 39 38 43 43 40 42 58 61 63 64 64 64 64 64 64 63 63 63 63 62 63 62 62 62 63 63 61 62 61 61 60 60 61 61
27 27 28 37 40 40 36 37 38 38 39 38 39 38 36 37 37 43 43 42 39 42 59 62 63 64 64 64 65 64 64 64 64 64 64 64 64 64 63 63 63 63 63 63 62 63 62 61 62
23 23 28 36 39 43 36 34 35 37 38 37 38 39 38 38 36 42 42 42 42 40 44 59 62 64 64 64 65 65 64 64 64 64 64 64 63 64 65 65 65 65 66 65 65 64 63 62 62
25 27 31 33 33 31 33 23 31 32 34 37 38 38 39 39 38 41 41 42 42 42 43 43 53 62 64 64 64 63 62 62 63 63 63 59 53 53 53 55 60 64 64 64 62 62 62 62 61
26 28 30 32 31 27 30 26 22 28 28 34 37 38 38 38 39 40 41 41 42 45 45 45 45 49 56 61 63 62 61 61 52 50 49 47 48 50 52 51 52 53 54 55 56 57 57 58 57
33 31 32 32 31 23 26 25 20 23 25 27 36 37 37 38 38 39 42 41 42 48 49 48 46 47 48 50 54 57 58 48 47 47 46 47 48 52 52 52 52 53 53 54 55 56 56 56 55
33 29 25 23 22 21 23 22 20 24 23 25 26 28 29 33 35 38 41 42 43 47 49 49 46 45 46 46 46 46 47 45 46 47 47 46 46 49 52 52 51 51 51 52 52 53 55 55 54
32 27 25 16 19 21 23 20 20 25 25 26 25 25 27 27 28 30 32 39 43 47 49 47 46 45 45 46 45 46 47 47 46 47 47 47 48 49 49 49 49 48 48 49 50 52 53 54 55
29 29 27 26 21 24 22 20 23 25 24 24 23 26 29 29 28 27 33 34 36 47 48 47 45 45 45 45 45 45 46 46 46 48 48 48 48 45 44 46 46 46 46 47 48 50 51 53 53
35 31 25 28 19 14 17 16 18 22 22 25 27 29 31 32 33 32 31 34 36 42 47 46 45 44 45 45 44 45 46 47 47 47 47 47 45 44 44 44 44 44 45 46 47 49 50 50 50
31 33 31 28 27 24 17 17 19 21 23 26 29 30 31 33 35 36 37 36 38 43 45 45 44 44 44 44 44 45 45 46 46 46 46 45 43 42 42 42 42 42 42 43 45 47 47 48 47
36 28 28 27 25 25 24 20 21 24 25 24 28 29 31 32 36 38 38 39 41 43 44 43 43 43 43 43 43 44 44 43 44 44 43 43 42 41 41 40 40 40 41 41 42 43 43 45 45

GFSSGP_sfc_dewp_069.txt.gz
Dewpoint
62 62 62 51 43 39 35 31 32 41 42 42 34 40 56 57 54 49 62 69 70 71 72 73 74 74 73 73 72 73 72 71 72 70 69 67 66 68 67 67 70 70 69 68 67 67 67 66 65
63 63 53 47 38 32 29 30 30 37 37 38 44 47 53 55 57 58 66 69 70 71 71 72 74 74 74 73 73 72 70 70 72 71 69 66 66 67 67 66 67 68 68 67 67 67 67 66 65
60 61 45 43 36 32 31 27 28 36 34 35 42 47 57 58 60 60 67 68 69 70 71 73 74 74 74 73 72 71 70 69 72 72 71 67 66 66 67 67 67 68 67 66 67 67 67 67 65
57 56 50 37 34 34 31 30 29 36 35 36 46 50 61 66 64 65 66 69 68 69 72 73 74 73 74 73 72 70 69 69 71 72 71 68 66 67 66 67 67 68 68 67 67 67 68 67 66
57 52 43 38 37 32 32 31 33 32 34 35 48 54 56 65 67 65 64 67 67 71 72 73 74 74 74 73 72 71 69 68 71 72 70 68 67 67 67 67 67 67 67 67 67 66 66 67 66
51 50 37 37 36 35 33 32 33 33 31 35 45 57 60 66 64 65 65 68 70 71 72 72 73 73 73 72 72 71 69 69 71 72 71 69 67 67 67 67 67 67 67 67 67 66 65 67 67
49 45 39 33 33 34 36 38 38 38 34 45 47 57 61 63 66 67 67 69 69 71 71 72 72 72 72 72 71 70 70 71 72 72 71 70 69 68 67 67 67 66 66 66 66 66 65 64 66
50 46 39 39 34 33 38 41 43 42 48 50 51 57 58 61 65 67 67 67 68 69 70 70 71 71 70 69 70 69 71 71 72 71 70 69 69 69 68 68 68 67 66 66 65 65 64 63 61
53 43 38 38 39 38 41 40 44 45 46 50 52 56 61 64 66 64 66 65 67 68 68 70 70 70 69 69 67 67 69 69 69 68 67 67 67 67 67 66 67 68 67 65 64 64 63 63 63
49 42 40 39 41 42 41 41 42 44 45 53 60 63 65 65 64 63 64 64 65 65 68 69 69 69 68 67 66 65 65 67 66 66 66 65 65 64 65 65 66 67 67 66 65 64 64 62 57
47 41 43 43 45 46 42 41 43 44 44 45 58 61 63 64 64 64 63 64 65 65 66 68 67 68 67 66 66 65 63 61 62 65 64 63 62 64 65 64 65 65 65 64 64 63 61 58 56
45 44 42 46 47 47 42 42 41 46 43 44 56 62 62 63 63 64 63 63 65 65 67 66 66 68 68 66 66 65 64 64 62 59 59 56 58 59 62 62 62 63 64 63 62 61 60 59 55
43 44 44 43 47 48 47 42 42 43 44 43 45 60 61 61 62 63 64 64 64 66 66 66 66 67 68 66 66 65 64 63 64 61 60 58 59 57 58 59 60 61 62 61 61 61 59 59 57
42 44 44 47 46 49 48 44 43 43 44 43 43 47 56 60 61 62 62 63 64 64 66 67 66 67 68 67 67 65 64 62 63 63 62 61 61 61 61 58 55 55 57 56 56 57 57 58 58
41 42 45 47 46 46 49 44 41 43 43 43 42 42 45 48 61 60 61 62 63 64 65 66 66 66 66 66 67 66 64 63 62 63 62 62 62 61 61 60 58 57 55 54 55 56 58 59 59
38 41 40 44 48 47 44 38 42 44 40 40 42 41 43 44 47 60 61 62 63 63 64 65 65 65 65 64 65 64 65 63 62 62 62 62 62 61 60 60 60 60 59 57 58 58 58 59 59
37 34 37 39 46 45 46 39 41 44 40 40 41 40 41 42 43 45 56 62 63 63 63 64 65 65 65 65 65 65 64 63 61 61 62 62 62 61 61 61 61 61 61 61 60 60 60 60 60
32 34 36 37 40 43 42 40 41 41 42 41 40 39 39 40 42 44 44 52 62 62 64 64 65 65 64 64 65 65 64 63 62 61 62 63 62 62 62 62 62 62 62 62 61 61 61 61 61
31 32 36 36 39 39 40 40 41 42 42 42 41 40 39 39 40 43 44 43 56 60 63 64 64 63 63 63 63 63 62 62 62 62 62 63 63 62 62 62 62 62 61 60 60 61 60 60 61
33 36 36 38 41 38 39 38 41 40 40 42 42 41 39 39 39 42 41 40 45 59 62 63 64 63 64 64 64 64 64 64 63 63 63 63 63 63 63 63 63 63 62 62 62 62 62 62 62
33 33 35 35 39 41 39 37 40 40 38 39 39 40 39 38 38 42 41 40 40 47 61 63 63 64 64 64 64 64 64 64 64 64 64 64 64 65 65 65 65 65 65 64 64 64 63 61 61
28 29 34 37 38 34 40 30 35 36 36 37 37 38 39 39 39 41 42 41 40 39 45 59 63 64 64 65 64 63 62 62 63 63 64 57 58 54 53 55 59 63 64 62 61 61 60 59 59
29 34 36 38 36 31 33 27 25 34 34 35 36 38 39 39 38 41 42 42 42 42 43 43 55 62 64 64 64 63 62 62 59 57 55 54 51 51 52 52 53 53 54 54 56 56 56 57 56
36 33 34 34 31 24 29 26 23 28 32 33 37 38 38 38 38 39 42 42 41 44 45 45 45 50 57 60 61 62 61 57 50 49 48 49 51 52 52 52 52 52 53 54 54 55 55 55 55
33 29 26 24 23 22 23 24 24 23 26 27 34 30 36 39 38 38 41 40 42 45 46 47 45 45 48 52 56 57 58 51 51 50 48 48 48 51 51 51 51 51 51 51 51 52 52 53 54
29 26 24 18 18 21 23 20 19 25 26 25 25 26 26 26 27 30 37 41 42 45 47 47 46 45 46 46 47 47 48 48 49 48 47 47 48 50 50 49 49 48 48 48 49 50 51 52 53
32 25 26 22 21 20 21 22 23 25 24 26 28 30 31 31 31 30 31 33 38 45 47 47 46 45 46 46 46 46 46 46 47 47 48 48 48 46 46 46 46 46 46 47 47 48 50 50 51
32 30 22 24 13 15 20 18 18 22 24 28 30 31 32 33 34 35 35 34 35 40 47 47 46 45 45 45 45 45 46 46 47 48 48 47 45 44 44 44 44 44 44 45 46 47 48 48 49
32 31 30 28 26 22 15 16 19 22 26 29 29 30 31 33 35 36 37 37 38 43 46 46 45 44 44 45 45 46 46 47 47 47 46 45 44 43 43 43 42 42 42 43 43 45 46 46 46
35 32 30 26 24 25 23 19 24 25 27 29 29 30 32 33 35 37 38 39 41 42 43 44 43 44 44 44 45 45 45 45 45 45 44 43 42 42 41 41 41 41 41 41 41 43 43 45 46

GFSSGP_sfc_dewp_072.txt.gz
Dewpoint
61 61 61 52 41 39 34 32 33 38 44 44 39 50 54 57 53 48 66 69 70 72 72 72 74 73 73 72 71 71 71 71 71 68 66 67 67 68 71 71 70 69 68 67 67 66 66 67 67
63 62 56 47 39 33 31 31 30 39 42 43 45 50 54 55 57 66 66 69 70 71 72 72 74 73 73 72 72 70 71 71 71 67 66 67 66 67 68 70 69 68 67 67 67 66 66 66 67
57 61 48 44 38 33 29 30 29 32 39 44 41 51 57 57 62 62 68 69 70 71 72 72 73 73 73 72 71 70 71 72 71 68 67 66 67 67 67 66 67 67 66 67 67 67 66 66 66
56 56 51 38 37 34 32 27 30 33 39 42 42 53 59 65 65 66 69 69 70 70 72 73 73 73 73 73 71 70 71 71 71 68 67 66 66 67 67 67 68 68 67 67 67 67 66 66 66
57 52 44 39 39 33 34 33 31 34 35 38 42 54 56 60 65 67 68 68 69 71 72 72 73 73 73 72 71 70 70 72 71 69 67 67 66 67 67 68 67 67 67 67 66 67 66 66 65
50 50 41 36 37 37 35 32 30 32 33 42 44 53 59 62 65 66 67 68 71 71 72 71 72 73 72 72 71 70 70 72 72 70 68 67 67 67 67 67 67 67 67 67 66 66 67 66 65
49 46 39 37 35 36 36 36 32 33 34 45 52 54 61 63 65 67 67 69 70 71 71 71 71 71 72 71 71 70 70 71 72 71 70 68 68 67 67 67 67 67 67 67 66 65 65 66 65
51 47 39 38 34 33 35 39 42 41 47 49 54 56 57 59 64 68 68 69 70 70 71 70 71 71 70 69 69 70 71 71 72 71 70 69 68 68 68 68 68 66 66 66 66 65 64 63 62
51 43 37 38 35 34 39 40 43 46 49 58 59 58 59 60 64 66 67 67 68 70 70 71 70 69 68 67 67 70 70 70 70 69 68 67 67 67 66 66 67 68 66 65 65 64 64 64 63
47 42 39 39 41 41 43 41 42 45 51 57 60 63 60 62 63 64 64 65 66 67 69 70 70 68 67 66 65 66 67 67 68 67 67 66 65 65 65 65 66 68 67 66 65 64 64 61 57
45 42 42 40 44 46 46 42 43 45 45 55 57 60 62 63 63 63 64 64 65 66 68 69 69 68 67 65 64 63 64 65 65 65 65 64 64 64 65 64 65 64 64 63 64 63 61 57 55
42 44 43 46 45 46 46 46 45 45 44 52 59 62 62 62 63 62 62 61 62 66 67 68 68 68 66 65 64 63 61 61 62 64 64 61 62 63 63 62 63 62 63 61 61 61 60 59 57
42 43 44 44 47 48 49 47 45 43 44 54 61 61 61 63 63 63 63 64 65 65 66 68 68 67 66 65 65 64 63 62 61 60 60 57 60 61 61 61 61 61 62 61 61 61 60 60 59
42 42 44 46 45 49 47 47 46 44 44 49 58 60 60 61 62 62 63 63 64 65 66 67 67 67 66 65 65 65 64 64 64 62 60 57 58 57 58 57 60 60 60 61 59 60 59 57 57
41 41 43 45 46 45 48 45 42 45 44 42 48 54 58 60 61 62 63 63 64 65 66 66 66 67 67 65 66 65 64 63 62 63 62 59 60 60 60 59 55 55 55 57 56 55 57 59 59
38 40 37 42 45 46 47 40 43 45 44 43 42 45 48 55 60 61 62 63 64 65 65 66 66 67 67 66 67 66 65 63 63 62 63 62 61 61 61 60 59 58 57 55 55 57 58 58 59
38 33 36 40 46 48 42 41 43 46 43 41 41 41 42 44 50 59 61 62 63 64 64 65 66 66 65 65 66 66 65 65 62 62 63 62 62 61 61 60 60 60 60 59 58 59 59 59 59
31 34 35 38 43 43 43 41 43 44 42 40 40 41 40 40 43 48 58 62 63 64 64 65 65 65 65 65 66 66 65 64 63 62 62 62 62 61 61 62 61 61 61 61 61 61 61 61 60
35 34 34 38 42 40 41 40 42 43 42 40 40 39 39 39 40 43 46 57 63 63 63 64 64 64 64 64 64 64 63 63 63 62 61 62 62 62 61 62 62 62 62 61 61 60 60 61 61
36 33 36 37 42 40 40 39 42 44 42 41 41 41 40 40 39 41 44 44 58 62 63 63 63 64 64 64 63 63 63 63 62 63 62 63 63 63 62 62 62 62 62 61 61 62 61 61 61
37 33 36 36 39 41 38 37 39 40 41 41 41 42 42 41 40 40 43 42 42 58 62 63 63 64 64 64 64 64 64 64 63 63 63 63 63 64 63 63 63 64 65 63 64 63 63 61 60
33 37 36 37 38 33 38 30 36 37 38 38 38 38 40 40 38 39 41 42 40 47 60 63 64 64 64 64 64 63 63 62 63 63 63 61 62 63 64 64 64 64 64 62 61 61 60 59 57
29 36 35 36 35 35 35 31 27 35 35 36 36 37 38 40 39 40 42 41 40 41 47 58 62 64 64 64 64 63 61 62 61 62 61 58 59 57 56 55 53 54 55 55 55 55 55 56 56
35 37 37 35 34 29 31 31 22 29 33 34 36 36 37 39 39 40 42 42 41 43 44 44 52 59 61 62 63 63 62 61 58 57 57 56 55 56 57 56 55 54 54 53 54 54 53 53 54
35 31 29 27 27 22 28 27 23 24 25 33 34 36 38 39 39 38 40 41 41 43 44 44 44 48 56 59 60 61 62 60 57 56 56 53 53 54 55 53 51 51 52 52 52 51 51 51 52
32 26 24 20 22 21 23 23 20 25 24 27 28 27 26 26 28 34 39 41 41 43 44 45 44 44 46 50 55 55 58 55 54 54 53 53 52 53 53 51 50 49 49 49 49 49 50 50 51
31 29 26 22 22 22 21 22 23 24 27 29 30 31 32 32 33 32 33 33 35 43 44 46 46 45 45 46 46 47 51 51 52 52 50 50 50 49 49 49 48 47 47 46 47 48 48 49 50
30 29 22 23 16 17 20 18 21 23 28 30 30 31 32 33 34 35 35 35 34 35 42 47 46 45 45 45 45 46 46 46 47 47 47 48 46 45 45 45 45 45 45 45 46 46 47 47 48
30 28 28 26 24 18 15 15 20 23 28 29 29 31 31 32 34 35 37 38 39 41 44 45 46 45 45 45 45 46 46 47 47 47 47 46 44 44 44 44 43 43 43 43 43 44 46 46 46
35 32 28 20 20 23 20 17 24 24 29 29 30 31 32 32 34 36 37 38 39 40 42 43 44 44 44 45 46 46 46 46 46 46 46 44 43 42 42 42 41 41 41 41 41 42 45 44 44

GFSSGP_sfc_dewp_075.txt.gz
Dewpoint
61 62 61 54 41 38 29 32 37 40 47 48 44 49 53 56 52 44 66 68 71 71 72 71 73 73 73 71 71 70 70 71 68 66 67 69 71 71 71 70 68 68 67 66 67 68 69 69 68
61 60 57 49 39 33 32 32 28 35 45 44 47 51 54 55 62 65 66 69 71 71 71 71 73 73 72 71 70 71 70 69 67 66 67 68 70 71 71 70 68 67 67 66 67 67 68 67 67
56 60 51 46 40 33 27 32 32 41 43 49 44 53 57 59 63 64 68 69 71 71 71 71 73 72 72 71 70 71 70 69 67 67 69 68 68 70 70 69 67 67 67 67 67 67 67 66 67
55 56 52 41 38 36 30 29 29 44 47 45 44 48 60 64 64 66 69 70 70 70 71 72 73 72 72 72 71 71 70 69 67 66 67 68 66 67 67 67 67 67 67 67 67 67 66 66 67
56 52 44 41 38 37 34 33 32 38 43 44 42 45 55 60 66 68 69 70 70 71 71 71 73 72 72 71 71 71 72 69 67 66 66 67 67 67 67 66 66 67 67 67 66 66 66 66 66
47 49 40 37 37 37 37 34 33 31 34 40 41 46 55 61 62 67 68 69 70 70 71 71 71 72 71 71 71 71 72 71 68 67 66 66 66 67 66 66 66 67 67 66 66 66 66 65 65
44 44 40 37 36 35 37 37 32 30 34 40 43 51 59 58 60 67 67 68 70 70 70 70 71 71 71 71 70 70 71 72 70 69 68 67 67 67 66 66 66 67 67 66 65 66 66 65 64
48 46 40 39 37 35 37 36 39 34 40 50 55 53 55 59 61 67 68 67 69 69 69 70 70 70 69 69 70 69 70 71 70 69 68 68 68 67 68 68 68 67 67 66 66 64 63 63 62
50 42 38 39 37 37 36 36 43 47 50 58 56 58 58 61 64 62 61 65 66 67 68 69 70 68 68 67 68 70 70 70 70 69 67 66 65 66 67 66 67 67 66 66 65 64 63 64 62
44 40 36 42 41 36 41 40 42 47 54 56 59 62 61 62 61 58 58 58 64 67 69 69 69 68 67 65 66 67 68 68 69 68 66 65 65 64 65 65 66 67 67 66 65 64 64 62 56
42 39 38 40 42 45 45 43 43 46 48 54 56 57 61 62 60 59 56 61 64 65 68 69 69 67 66 64 64 65 66 66 67 66 65 64 64 64 64 63 64 63 64 63 64 62 61 57 55
39 40 42 42 43 46 45 47 43 45 45 52 58 57 59 61 62 62 62 61 61 65 65 67 67 67 66 64 63 64 64 65 65 65 65 63 62 62 62 62 62 62 62 60 60 60 59 58 57
39 41 41 44 45 48 48 47 46 45 46 59 61 59 58 61 62 63 62 63 64 61 62 65 67 67 66 64 63 61 62 63 64 64 64 62 61 62 62 62 61 61 61 60 59 59 59 59 59
39 40 41 44 45 47 44 47 47 45 45 59 60 60 60 60 62 62 61 60 61 60 60 65 67 67 66 64 64 63 61 61 61 61 62 61 60 62 62 61 60 60 60 61 60 60 60 59 57
39 39 39 42 45 44 47 43 44 47 48 55 57 58 59 61 62 61 62 61 62 63 64 65 66 67 67 65 65 64 64 63 63 62 60 58 58 59 59 58 57 59 59 60 60 56 57 57 59
38 39 33 38 44 45 45 37 46 48 47 46 51 53 57 60 61 62 63 63 64 64 65 66 66 67 67 66 66 65 65 63 63 63 63 59 58 58 59 60 57 56 55 55 55 55 57 58 58
35 33 32 38 44 45 44 40 47 48 46 45 45 45 46 52 56 61 62 63 64 64 65 66 66 66 66 67 67 66 65 64 63 62 63 62 60 60 61 60 60 59 58 56 55 57 58 58 59
29 31 32 35 41 42 43 39 45 48 44 42 42 44 42 43 48 53 61 63 64 64 65 65 66 66 66 67 67 66 66 65 64 63 63 63 62 61 61 61 60 60 60 60 59 59 60 60 60
32 33 32 38 42 41 42 38 41 46 46 43 42 40 40 41 41 47 50 61 62 63 63 64 65 65 65 65 65 65 64 63 63 63 63 63 63 62 61 61 61 61 60 60 61 61 60 60 61
33 33 34 37 41 42 39 40 42 45 45 43 42 42 40 39 39 40 42 47 60 62 63 63 64 64 65 64 64 63 63 63 62 62 62 62 63 62 61 61 61 62 62 61 61 61 61 61 61
35 32 35 35 37 38 38 37 40 43 45 43 42 42 42 41 40 40 40 43 45 59 61 63 63 64 64 64 64 63 63 63 62 62 62 62 63 63 62 62 62 62 63 62 62 63 62 60 59
31 36 37 37 36 33 37 30 37 38 41 41 41 40 40 42 41 41 40 42 43 45 60 62 63 64 64 64 63 63 62 61 62 62 63 63 63 63 63 63 64 64 64 63 63 62 62 60 57
32 37 37 36 34 35 35 30 28 36 36 40 39 38 39 39 40 40 39 41 43 42 52 61 62 63 63 63 63 62 61 62 62 62 62 61 61 61 61 61 60 60 60 59 59 59 58 57 56
39 37 36 37 35 28 33 30 22 31 33 35 36 37 37 38 39 40 41 42 41 41 45 51 57 60 62 63 62 62 62 60 60 60 60 59 58 59 59 58 57 56 56 56 56 55 53 52 52
37 35 29 27 26 26 31 31 27 24 27 31 33 35 36 37 39 39 39 41 42 42 42 44 47 54 58 60 61 62 62 61 60 59 59 57 56 56 56 56 55 53 52 53 53 52 51 51 51
31 27 28 22 22 22 26 27 22 25 27 30 33 30 29 29 33 36 36 41 41 42 44 44 43 43 47 54 57 58 60 60 59 58 58 57 56 55 54 53 51 50 50 50 49 49 49 49 49
30 27 26 23 22 24 22 21 24 27 29 29 30 31 31 32 32 32 33 33 34 36 42 44 45 44 44 45 48 52 55 56 54 54 55 52 52 53 52 50 48 48 47 47 47 47 47 47 48
30 28 23 25 20 17 20 19 21 24 28 29 30 31 32 33 34 35 36 36 37 37 42 44 47 46 45 45 45 46 47 50 52 51 50 49 49 50 49 47 46 46 45 45 45 45 46 48 48
29 28 28 26 24 19 17 17 20 24 28 29 30 31 32 33 34 36 37 38 39 39 41 44 45 45 45 45 45 45 46 47 47 47 47 46 45 45 45 45 44 44 43 43 43 43 44 45 45
34 30 26 20 19 21 19 17 24 25 29 30 30 31 31 32 33 35 38 39 39 39 40 42 43 44 44 44 45 46 46 46 47 47 46 45 44 44 43 43 42 42 41 41 41 41 43 44 44

GFSSGP_sfc_dewp_078.txt.gz
Dewpoint
58 62 61 55 44 39 34 32 40 41 46 51 48 52 53 56 50 44 66 68 70 71 71 71 73 72 72 71 70 70 71 70 69 70 71 72 71 71 70 69 68 67 67 67 69 69 68 69 69
59 60 56 50 41 34 32 31 30 34 47 49 49 51 54 55 62 65 66 70 70 71 71 71 72 72 72 71 69 71 69 67 67 68 70 71 71 71 69 69 68 67 67 68 68 68 68 67 68
56 59 49 46 41 34 29 32 31 38 44 48 50 53 56 57 63 65 68 69 71 71 71 71 72 72 71 70 70 71 69 67 67 69 70 71 71 70 70 68 67 67 67 68 68 68 67 69 70
54 53 50 43 38 37 32 29 33 41 46 47 47 45 59 63 63 66 69 70 70 70 70 71 72 72 72 71 71 70 69 67 66 69 69 70 70 70 69 68 67 67 67 68 68 67 67 68 70
54 49 41 41 39 38 36 35 32 39 45 44 44 48 55 61 67 68 69 70 69 70 70 70 72 72 71 71 71 71 69 67 66 68 67 67 68 68 67 67 67 67 67 67 67 66 66 66 67
46 46 39 37 38 39 38 36 34 34 38 44 42 47 55 61 65 67 69 69 70 70 70 70 71 72 72 71 71 71 70 67 66 66 67 67 67 67 66 67 67 67 67 66 66 66 65 65 65
43 41 38 36 37 38 38 41 36 31 33 41 43 42 57 59 65 68 68 68 68 69 69 69 70 71 71 71 71 71 71 69 68 68 68 68 68 67 66 67 67 67 66 66 66 66 66 65 64
46 46 37 38 37 37 38 40 37 34 32 49 46 50 55 56 65 66 66 65 67 67 68 69 69 70 69 69 70 70 70 70 69 68 68 67 67 67 67 67 68 67 67 66 65 65 65 64 63
48 41 35 35 38 38 37 36 38 46 48 53 55 55 56 58 63 60 60 61 61 66 67 68 69 68 68 67 68 69 70 70 69 68 67 66 65 65 66 66 67 68 67 66 65 64 63 63 61
42 37 34 36 37 38 39 40 37 46 51 53 57 59 56 60 57 55 56 57 59 62 66 68 68 68 67 66 67 67 68 69 69 66 65 64 64 64 65 65 66 67 67 66 64 63 64 60 55
41 37 36 36 41 43 43 44 45 45 47 52 54 58 56 58 54 54 54 56 57 59 67 68 69 67 66 64 66 66 66 67 68 66 65 64 63 63 63 63 64 63 64 62 62 61 60 56 55
37 38 39 40 41 41 41 46 45 47 46 47 55 58 57 59 55 52 51 53 57 63 64 66 67 66 65 64 65 65 65 65 67 66 65 63 62 62 61 61 61 61 61 59 59 59 58 57 56
37 37 40 40 40 43 40 43 46 46 47 52 58 59 55 59 57 55 52 54 62 60 61 62 63 66 66 63 63 64 65 65 66 66 65 63 62 61 62 61 61 60 60 60 58 58 58 58 58
36 38 37 40 41 42 43 42 48 45 49 49 58 59 56 60 57 60 58 60 58 60 60 61 60 66 66 65 62 62 64 64 65 65 65 63 62 62 62 61 60 60 60 60 59 59 59 59 58
35 35 38 37 38 43 43 42 45 48 48 48 57 56 59 60 61 61 61 59 57 56 59 60 60 65 66 65 64 64 61 62 62 63 63 63 61 61 62 61 60 60 59 59 59 58 57 58 58
35 33 32 36 38 44 43 36 43 49 47 47 49 53 57 60 62 61 60 60 59 58 60 62 61 65 66 65 65 65 65 64 61 61 60 60 59 59 60 60 58 57 59 58 58 58 55 57 58
31 27 29 33 38 41 42 40 47 47 45 45 47 48 48 55 59 61 62 61 61 61 63 65 65 65 66 66 66 65 65 65 64 63 62 60 58 58 58 59 59 57 56 55 54 55 56 57 58
25 28 35 31 39 40 41 40 47 47 46 45 45 45 46 46 53 60 61 63 63 64 64 64 65 65 65 66 66 66 66 66 65 64 63 63 60 59 59 60 60 59 58 57 57 56 58 59 59
32 29 30 35 41 40 40 39 42 47 47 46 45 44 43 44 48 52 57 62 62 63 63 64 63 65 65 65 64 65 65 65 65 65 64 63 63 61 60 61 60 60 60 60 59 59 59 60 61
33 30 33 38 40 40 38 39 43 45 45 47 46 44 44 43 42 46 50 54 61 62 62 63 63 64 64 64 63 63 63 64 64 64 64 64 64 63 62 61 61 61 60 60 61 61 61 61 61
33 31 33 34 37 38 36 34 38 42 45 46 46 44 43 43 42 42 41 46 52 59 61 63 64 63 63 64 64 63 63 63 63 63 63 63 63 63 63 62 62 62 62 62 62 62 61 60 60
31 37 37 36 34 31 36 29 36 39 42 43 44 44 42 44 42 42 41 41 42 45 59 62 63 63 64 64 64 64 62 61 62 62 62 63 63 63 63 63 63 63 64 63 62 62 62 61 59
35 38 36 35 33 35 34 32 31 38 38 40 43 43 41 43 41 40 41 41 41 43 48 59 61 62 63 63 63 63 62 62 62 62 61 60 61 61 61 62 62 62 61 60 60 59 58 58 57
39 36 36 36 34 27 33 32 24 35 36 37 41 43 42 43 41 40 40 42 42 41 45 55 59 59 61 61 61 62 62 61 60 60 60 60 60 60 60 60 61 61 59 58 57 57 56 55 54
38 32 27 25 26 26 33 32 28 26 26 32 37 38 39 39 38 39 39 41 42 42 42 44 49 53 56 59 60 61 61 60 60 59 59 59 58 57 58 58 58 57 54 54 53 53 52 52 52
35 33 28 22 22 25 27 26 24 25 29 30 31 35 34 34 36 35 37 38 40 42 43 44 44 43 43 50 55 58 59 59 59 59 59 59 59 58 57 56 54 52 51 51 50 50 50 49 49
31 29 28 24 23 25 24 22 24 28 29 30 30 31 32 32 32 32 34 34 35 37 40 43 45 45 45 44 45 49 53 56 56 56 57 57 57 56 55 53 50 50 49 48 48 47 47 47 47
28 28 23 27 21 18 20 19 21 25 28 30 30 31 32 34 35 36 37 38 39 40 41 43 45 45 46 45 45 45 46 50 54 53 53 53 52 52 50 49 48 47 47 46 46 45 46 46 47
28 27 27 26 24 20 17 17 21 23 28 29 31 32 32 34 35 37 38 38 38 39 40 41 43 44 45 45 45 45 46 47 49 50 49 48 48 50 48 47 45 45 44 44 44 44 44 44 45
33 30 24 21 20 20 18 17 26 25 30 30 30 31 33 33 33 34 34 35 36 37 38 40 42 43 43 44 44 44 45 46 46 46 46 46 46 45 45 44 43 43 42 42 41 41 41 43 43

GFSSGP_sfc_dewp_081.txt.gz
Dewpoint
60 61 60 55 44 42 38 37 38 39 39 47 49 51 52 57 49 43 66 67 68 69 69 70 73 72 71 70 70 71 69 70 71 72 72 72 72 71 70 69 68 68 68 68 68 67 68 69 69
58 59 56 52 41 34 34 36 32 37 45 50 51 51 49 52 61 64 66 69 69 69 70 69 72 72 72 70 70 71 69 68 71 71 72 72 72 71 69 68 68 67 69 68 67 67 68 68 69
55 58 52 47 40 33 31 33 34 33 47 48 50 54 52 55 63 64 68 69 70 70 70 70 72 72 72 69 71 70 68 67 69 71 72 72 72 70 69 68 67 69 69 68 68 68 69 70 70
54 54 51 43 38 37 34 32 32 33 41 48 50 49 58 62 63 66 68 69 69 70 70 71 72 72 71 71 71 69 67 67 67 70 71 72 71 70 68 67 69 69 69 68 68 68 70 70 70
55 50 42 40 39 39 38 36 36 34 36 46 47 47 52 62 65 67 69 69 69 70 70 69 72 72 72 72 71 70 67 66 67 68 70 71 71 70 68 68 68 68 69 68 67 67 67 69 69
49 48 40 37 37 40 40 39 39 35 37 44 45 48 51 64 65 67 69 70 69 69 70 69 71 72 72 72 71 70 68 66 68 68 69 70 69 68 67 67 67 67 68 68 67 66 66 66 67
44 43 37 35 36 38 40 41 40 37 33 36 44 45 56 60 65 65 66 69 69 69 69 69 69 70 71 71 70 70 69 68 68 67 68 69 69 68 67 67 67 67 67 67 67 66 65 65 64
47 44 37 37 35 36 39 41 41 39 37 40 43 48 53 57 66 67 65 63 66 68 69 69 69 69 68 69 70 70 69 68 68 68 67 67 65 67 68 68 68 67 67 67 67 66 65 64 63
48 40 34 35 37 36 39 39 41 43 38 49 51 48 55 61 64 62 62 61 61 64 67 68 69 69 68 68 68 70 70 69 68 67 66 66 65 64 64 66 67 68 67 66 65 65 63 62 62
43 38 34 35 36 37 39 39 39 42 40 44 53 56 58 63 61 60 59 59 59 58 62 67 68 68 67 66 67 69 69 68 66 66 65 65 66 66 65 65 66 67 67 66 65 64 63 59 56
41 36 35 35 37 40 42 43 42 42 40 39 46 55 59 61 58 59 59 59 58 59 62 65 67 67 66 65 67 67 69 69 67 66 65 65 65 66 65 66 65 65 64 63 63 63 59 57 56
37 37 38 38 39 40 41 42 42 47 41 40 46 55 58 57 55 55 57 56 57 59 63 64 63 66 66 65 65 66 68 69 68 65 65 65 65 65 64 64 65 64 64 62 61 60 59 58 56
37 35 36 38 40 39 39 40 41 43 48 49 48 56 57 55 54 53 54 56 57 59 62 62 63 64 66 64 65 66 66 68 67 66 65 64 64 63 63 62 63 63 63 61 60 59 58 58 58
35 36 35 35 35 38 39 39 43 42 49 49 49 52 56 54 52 53 53 55 54 55 61 61 61 62 66 64 65 66 66 66 67 66 65 65 64 63 63 63 63 63 62 61 60 58 60 60 60
35 33 33 33 38 34 40 38 40 43 48 48 49 51 55 56 54 53 55 58 58 59 59 60 57 61 66 65 64 65 65 65 66 66 66 65 64 63 63 63 63 62 61 60 61 60 60 60 60
32 33 28 27 35 35 39 33 37 47 46 46 48 49 53 57 57 58 59 59 57 57 57 57 56 60 63 65 65 64 64 64 65 65 66 65 64 63 63 62 63 62 60 60 61 60 59 57 57
30 25 27 26 36 34 38 35 39 48 46 45 46 47 50 55 59 61 60 58 57 58 58 58 59 60 65 65 65 64 64 65 64 63 63 64 64 63 61 61 61 60 58 59 59 58 58 56 57
22 27 27 26 32 35 36 38 46 47 45 46 46 46 47 49 55 58 60 59 59 60 59 59 59 61 66 66 66 66 66 65 66 65 64 62 60 60 60 60 60 59 58 57 56 55 56 58 59
33 31 27 29 32 35 35 38 40 43 47 47 47 46 45 45 49 55 57 61 62 62 62 62 63 63 63 64 64 64 64 66 65 66 65 64 63 60 59 59 59 60 59 57 57 57 57 59 61
32 29 30 35 31 35 37 36 40 43 44 48 47 46 46 44 43 49 53 57 61 61 62 61 62 61 63 63 64 63 63 65 65 66 65 65 64 64 63 62 61 61 61 60 60 60 61 61 62
33 30 29 34 37 37 36 35 36 38 40 45 47 48 46 43 43 43 44 54 57 61 61 61 61 62 62 63 64 64 63 64 63 64 65 64 65 65 64 64 64 63 63 62 62 63 62 61 61
30 33 32 34 33 32 36 29 36 38 38 42 43 45 45 46 43 44 45 43 50 55 61 62 62 63 64 64 63 63 61 60 62 64 64 64 64 64 64 64 63 63 63 63 63 64 63 62 61
34 37 36 35 34 33 33 30 32 37 37 40 42 43 45 44 44 42 43 46 46 47 50 59 62 62 63 63 63 62 61 59 62 63 63 62 62 63 63 64 63 62 62 61 61 61 61 61 60
39 35 36 35 33 26 32 29 27 34 36 37 41 42 44 46 44 41 44 46 45 46 47 54 59 61 62 62 63 62 61 60 61 62 62 61 61 61 62 63 62 61 61 60 60 58 58 58 58
38 30 27 25 26 25 34 32 29 27 25 30 38 41 42 44 43 40 41 42 43 45 46 46 49 53 58 61 61 62 61 61 61 61 61 60 61 60 61 61 62 61 60 60 58 57 56 55 54
34 34 26 21 22 26 31 28 25 28 30 30 31 38 40 39 42 38 36 36 39 42 43 45 45 45 45 48 54 58 60 61 61 61 61 60 60 60 60 60 59 57 57 56 55 54 53 53 53
33 31 29 25 25 25 24 24 25 29 30 31 31 32 32 33 36 37 38 39 40 41 43 45 45 45 46 46 45 46 52 57 59 59 60 60 59 58 59 59 57 55 53 51 50 50 49 50 50
31 31 24 29 20 22 23 19 21 26 29 31 32 33 35 36 37 38 37 37 38 40 41 42 44 45 46 46 45 46 46 48 54 56 56 56 56 56 55 52 50 49 48 48 48 47 47 47 49
29 28 26 26 24 23 20 17 24 25 29 31 31 33 33 34 34 34 35 36 37 38 39 40 42 43 44 45 45 45 46 47 49 52 52 53 52 52 51 50 48 47 46 46 46 46 46 46 47
34 29 23 22 21 20 19 18 26 26 31 31 32 32 33 34 35 36 37 37 37 37 38 38 39 41 43 43 44 45 46 47 47 48 49 48 49 50 50 48 46 45 44 43 43 43 43 44 45

GFSSGP_sfc_dewp_084.txt.gz
Dewpoint
59 57 57 53 38 36 32 31 34 33 36 41 42 43 44 50 44 46 65 65 65 65 67 70 72 72 72 71 70 71 71 71 72 72 72 72 73 71 70 69 69 69 68 68 69 70 70 68 68
57 56 55 49 36 29 28 31 33 32 37 43 47 50 48 52 57 61 64 66 65 65 66 67 72 72 72 71 70 70 70 71 72 72 73 72 72 72 69 69 68 70 69 69 68 68 68 69 69
56 56 48 43 37 29 27 32 33 32 39 45 45 50 48 53 60 61 65 66 66 65 66 67 72 72 72 71 71 69 68 70 72 72 72 72 72 70 69 68 70 70 70 69 68 68 69 69 69
51 53 49 41 32 31 30 30 32 31 32 36 47 45 54 60 61 64 66 66 65 65 66 70 72 72 72 71 71 69 68 69 70 71 72 72 72 69 68 70 70 70 70 67 69 70 70 71 68
53 48 37 36 32 31 32 33 32 31 30 31 42 45 49 61 66 67 66 66 65 65 66 68 72 72 71 72 71 70 68 67 69 70 71 71 71 68 68 68 69 69 69 68 69 70 69 69 68
45 44 32 29 29 30 34 36 34 34 33 34 34 41 47 59 65 68 68 67 65 64 66 67 70 72 72 72 71 70 69 68 69 70 71 71 70 68 67 67 68 69 68 68 68 67 68 69 67
42 39 31 26 24 28 32 36 36 37 35 33 38 36 44 61 64 67 68 66 67 67 66 66 67 68 71 71 70 69 69 69 69 69 70 70 69 68 66 67 68 68 67 67 67 66 66 66 66
43 40 32 28 23 24 29 35 37 38 38 36 37 40 39 53 62 64 63 64 64 66 67 66 67 66 65 68 70 69 68 69 69 69 68 68 68 68 68 66 66 68 68 67 67 66 65 64 63
44 38 30 27 26 26 27 28 35 38 38 37 38 39 41 55 64 62 62 63 64 63 63 68 67 65 63 66 68 69 68 68 67 66 67 65 64 63 64 65 66 68 68 67 66 66 64 63 63
41 34 29 27 27 28 31 30 33 36 37 38 39 44 53 62 63 62 60 60 60 59 60 65 68 67 63 63 68 67 65 63 61 62 63 63 61 61 60 64 67 68 68 67 65 64 63 60 54
35 34 31 31 33 35 36 35 36 37 37 37 38 40 49 58 61 60 58 57 59 59 62 63 66 67 63 60 67 69 67 64 61 60 61 61 62 63 62 63 64 63 64 60 61 61 55 53 52
31 29 29 32 35 36 36 38 39 38 36 38 47 42 50 55 58 59 57 56 58 59 62 64 66 67 65 61 61 67 67 66 64 61 59 60 61 62 60 60 60 60 59 58 57 55 54 53 54
31 26 25 27 33 34 35 36 37 38 39 43 46 48 46 49 55 58 57 58 59 60 61 63 64 64 66 64 59 63 67 67 65 63 60 58 59 61 59 59 59 58 58 56 55 54 53 52 54
26 31 32 32 30 31 32 33 35 36 38 42 46 48 44 44 52 57 58 57 58 59 60 62 62 63 64 66 62 59 63 67 66 64 63 61 60 59 59 57 58 58 58 56 54 53 54 55 57
31 30 28 29 30 31 29 29 33 34 38 43 45 46 47 43 51 56 56 56 55 55 57 60 62 62 61 65 65 60 61 63 66 66 65 63 63 61 60 59 60 60 60 57 56 54 58 59 58
26 25 27 22 25 30 31 22 23 29 35 40 42 45 47 48 52 54 55 56 56 54 57 60 60 61 59 65 65 63 63 63 63 65 66 65 64 63 62 61 61 61 59 59 58 58 58 57 56
26 21 21 23 26 27 31 23 24 31 34 39 43 45 47 50 53 55 55 54 56 56 57 58 59 59 62 65 64 63 64 65 66 64 64 66 66 64 62 60 60 61 59 59 58 59 57 56 55
22 25 23 22 22 28 28 25 26 37 40 42 44 45 47 49 54 56 57 58 58 58 57 57 57 60 62 64 65 65 63 62 64 65 65 65 65 65 63 60 60 60 60 58 58 57 57 55 56
29 29 29 28 25 26 27 26 27 42 43 43 45 47 45 48 52 58 57 59 60 59 57 57 57 60 65 66 65 64 64 64 64 65 64 63 62 61 62 59 60 60 59 59 58 57 56 57 59
33 30 27 27 29 29 26 26 29 40 41 41 44 46 46 44 49 56 56 58 57 59 60 58 61 63 61 63 64 64 64 65 65 66 66 65 64 63 63 62 61 60 60 61 59 58 58 59 61
32 30 28 30 30 31 29 29 35 38 39 41 43 47 48 46 47 51 54 55 58 60 61 61 61 62 63 64 64 63 64 63 62 63 64 65 65 65 65 65 65 64 64 64 63 61 61 62 62
31 34 34 34 33 28 32 26 32 34 37 38 40 44 46 49 45 47 50 52 56 59 61 61 62 62 62 63 62 61 61 60 62 61 64 64 64 65 65 65 65 64 64 63 63 64 64 63 60
32 33 35 33 35 32 30 28 31 35 34 37 38 44 49 51 48 46 46 50 52 58 61 60 61 62 62 62 63 62 60 61 62 61 63 63 63 64 64 64 64 64 64 63 62 62 61 61 60
36 35 38 35 32 29 31 31 27 31 32 33 38 43 45 46 48 47 45 46 47 48 50 52 57 60 62 62 62 62 61 61 60 60 61 61 63 63 63 64 64 63 62 61 60 60 59 60 59
37 34 30 27 28 26 33 30 29 27 29 29 28 39 43 48 43 42 43 44 45 47 47 48 55 55 60 62 61 62 61 62 60 60 61 62 61 62 62 63 63 62 62 61 60 60 59 59 59
34 33 28 20 24 27 31 27 26 30 31 31 30 41 44 46 43 41 39 41 42 44 45 45 46 45 45 50 57 61 62 62 61 61 62 62 61 62 62 62 62 62 62 60 59 59 59 58 57
33 31 28 26 25 24 26 28 27 31 32 33 37 38 38 40 43 42 40 39 40 42 43 44 44 45 46 46 46 46 53 59 61 62 62 62 62 62 62 62 62 61 59 58 58 56 53 53 53
36 31 27 31 24 22 19 22 25 29 31 34 34 36 37 37 37 39 38 37 38 39 41 42 43 44 45 46 46 46 46 48 53 57 59 60 60 60 60 60 60 58 57 55 54 51 50 50 50
30 28 26 25 24 20 16 20 25 29 31 33 34 35 34 34 36 36 37 37 38 38 38 39 39 41 43 44 45 46 46 47 48 51 54 56 57 57 58 57 55 53 52 50 49 48 48 47 48
34 30 25 24 21 21 20 19 27 30 31 32 32 33 35 36 36 36 35 34 35 36 38 39 39 39 40 42 44 45 46 47 47 48 50 51 53 54 54 53 51 49 48 47 46 46 45 45 46

GFSSGP_sfc_dewp_087.txt.gz
Dewpoint
59 57 54 51 40 35 31 30 28 27 27 31 36 39 40 42 44 47 63 62 62 63 67 70 73 72 72 71 70 71 71 72 73 73 73 72 72 72 71 70 69 68 70 71 70 69 68 68 68
53 50 51 46 35 29 27 28 28 27 31 32 34 41 45 45 53 60 62 64 63 64 68 68 73 73 72 71 71 71 70 71 72 72 73 73 72 71 70 69 69 70 70 70 70 69 67 68 68
54 49 45 38 36 31 27 28 27 30 32 37 39 45 45 46 56 59 63 64 64 66 67 68 72 72 72 71 70 70 71 71 72 72 72 73 72 70 69 70 70 70 70 70 69 69 69 69 67
46 48 46 36 28 30 30 26 27 29 30 35 39 41 47 58 58 61 64 63 63 65 65 71 72 72 72 72 71 69 70 71 72 72 72 72 72 70 69 70 70 70 68 68 68 69 69 69 67
46 42 34 31 31 31 28 28 27 30 29 30 31 38 44 58 63 64 64 64 63 64 66 69 72 72 72 72 71 70 69 70 71 71 71 71 71 69 69 70 70 69 69 69 70 70 70 68 66
41 39 30 26 26 28 28 28 30 28 29 28 29 32 41 59 63 65 66 65 65 65 66 67 70 71 71 72 71 70 69 69 70 71 71 71 70 68 69 69 69 69 68 69 70 69 69 68 65
39 34 28 26 23 22 26 28 29 29 29 29 30 31 34 57 61 66 67 68 67 67 67 68 67 68 71 71 70 70 69 69 70 70 71 70 69 68 67 69 70 69 67 68 68 68 69 68 65
38 35 29 28 24 23 22 25 28 29 30 31 32 31 33 42 62 68 68 67 66 64 63 62 68 66 62 68 69 69 69 70 69 70 70 69 68 67 68 68 69 69 68 68 67 66 65 65 63
40 35 28 26 25 23 23 21 26 29 31 32 33 35 36 57 64 63 65 65 65 65 64 63 63 67 61 65 68 68 68 68 68 68 67 66 65 64 64 65 68 69 69 68 67 66 65 65 64
37 32 27 25 23 22 22 24 24 23 28 31 34 37 39 56 61 60 60 61 61 62 63 63 64 62 65 64 67 64 62 62 60 63 64 64 63 62 60 64 67 68 68 68 66 65 64 62 55
32 31 29 26 27 31 31 32 33 28 29 29 31 33 38 49 60 58 57 58 60 62 62 63 62 62 63 65 69 68 61 59 58 57 62 62 60 61 62 64 64 65 65 62 63 62 57 54 52
27 26 26 28 29 30 32 33 32 33 33 32 38 44 45 42 56 57 58 56 58 60 61 61 62 63 65 61 68 68 67 59 57 58 58 61 60 62 60 61 62 60 60 57 58 56 54 52 51
26 26 24 22 23 25 29 31 31 32 34 36 36 43 45 44 49 53 57 56 55 57 60 60 63 63 64 64 61 67 67 63 59 58 59 59 60 62 60 59 58 58 57 56 56 54 52 51 51
23 24 26 28 27 26 25 26 27 29 32 34 37 39 43 44 45 50 54 57 55 55 58 60 63 62 63 65 62 61 67 67 63 60 58 57 59 60 60 58 58 57 56 55 54 53 52 50 51
24 25 26 24 23 26 29 27 26 25 27 31 33 37 44 46 44 43 54 57 57 56 57 59 61 62 62 63 65 60 62 67 67 62 59 57 57 57 56 56 56 57 57 55 54 51 51 53 54
25 24 21 19 19 21 26 23 23 22 19 26 32 36 41 45 46 43 55 57 58 60 57 59 60 62 63 62 62 64 60 63 66 67 63 60 60 59 59 58 59 59 59 58 55 54 53 56 56
27 24 19 18 20 20 23 23 22 20 18 21 29 32 38 45 49 50 55 57 59 60 56 58 60 61 61 61 62 64 61 60 61 65 66 65 62 62 61 62 62 60 61 57 57 57 56 56 56
20 22 22 20 21 20 23 23 24 21 18 26 26 32 38 43 48 54 55 56 59 59 58 57 59 60 60 60 64 65 63 61 63 63 62 64 65 65 64 61 59 60 61 58 58 56 57 56 55
26 25 23 22 23 28 25 20 20 21 36 32 33 36 39 43 51 57 56 57 59 60 60 59 59 59 60 61 63 63 62 61 62 64 65 65 65 65 64 63 59 60 61 60 58 57 57 57 57
27 27 27 26 27 26 30 20 21 22 35 40 39 43 45 43 50 56 56 57 57 57 59 60 59 60 61 61 62 63 64 65 65 66 65 64 63 63 63 63 61 61 62 61 60 59 58 57 59
30 31 28 29 28 30 26 23 21 22 35 40 41 43 46 45 45 53 54 55 57 56 60 60 60 60 61 62 62 63 62 63 63 64 65 64 64 65 65 64 65 65 64 63 64 63 59 59 62
30 31 33 34 30 24 25 19 18 26 33 37 38 40 45 47 46 51 54 55 56 57 59 61 59 62 62 62 62 61 61 60 62 63 64 65 64 64 65 65 65 65 65 63 63 63 64 63 61
32 38 34 32 30 31 25 26 21 27 30 33 36 39 44 46 49 47 52 55 56 58 58 59 60 61 62 62 62 61 60 61 62 62 61 62 64 64 64 65 65 64 64 63 63 63 62 61 60
39 35 34 33 32 28 30 32 28 30 31 33 38 38 45 50 51 48 49 51 52 53 54 55 57 59 61 61 62 61 61 60 60 61 61 61 62 63 63 64 64 64 63 63 62 60 60 60 60
38 37 30 28 30 24 30 33 27 29 30 30 30 40 48 49 49 47 46 46 49 50 50 51 53 56 58 60 61 61 61 61 59 60 60 59 60 60 61 63 63 63 63 62 61 60 60 59 58
35 34 31 22 24 26 33 32 33 32 30 31 34 47 47 45 44 44 43 44 47 48 47 47 49 47 49 56 59 61 61 62 60 60 60 60 60 60 61 62 62 63 62 62 61 60 59 59 59
34 35 33 33 28 29 32 31 32 38 35 40 42 44 42 44 43 41 41 39 42 44 43 45 45 46 47 47 48 52 59 61 61 61 61 61 61 62 61 62 62 62 62 61 61 59 59 58 58
36 34 28 31 26 22 21 24 27 35 35 37 37 38 39 40 41 42 43 42 38 39 40 42 43 43 45 46 47 47 47 48 54 59 61 61 61 62 62 61 61 62 61 60 59 57 56 55 54
32 28 26 25 24 24 16 22 27 31 38 34 34 36 38 39 39 39 42 43 42 39 39 39 39 40 41 44 45 46 47 47 48 50 53 56 58 59 59 60 61 59 58 58 57 55 53 52 51
33 27 25 23 21 22 20 23 30 32 35 33 34 36 36 36 39 37 33 32 33 33 35 38 39 39 40 40 42 45 46 47 48 47 49 51 53 56 57 57 57 56 55 55 54 52 50 49 48

GFSSGP_sfc_dewp_090.txt.gz
Dewpoint
56 56 56 53 44 40 34 34 34 32 29 27 27 32 39 43 51 50 62 62 65 67 69 71 73 72 72 72 71 72 72 73 73 73 72 72 73 72 71 70 70 71 71 71 70 69 67 69 69
55 53 51 47 39 33 29 29 30 30 29 29 32 34 39 47 59 61 63 63 63 67 69 69 73 72 72 72 71 71 71 72 73 73 73 74 73 72 71 70 70 72 72 71 69 68 68 68 68
55 52 46 42 39 35 30 30 28 28 29 31 35 37 43 52 59 62 63 63 66 67 67 70 72 73 72 71 71 71 71 71 72 72 72 73 72 72 70 70 71 71 71 71 69 67 67 68 67
46 48 45 37 32 33 34 32 33 28 29 32 33 36 48 60 62 62 64 63 66 67 68 72 72 72 72 72 71 70 71 70 72 72 72 73 72 71 71 71 70 70 69 70 69 69 69 67 65
46 45 37 35 33 34 31 33 32 29 28 30 32 33 41 61 64 64 64 63 65 66 70 70 72 72 72 72 71 71 70 71 71 72 71 72 71 70 70 70 67 67 69 69 69 69 69 67 64
43 42 35 31 29 28 31 30 30 28 26 30 29 30 42 62 63 65 66 64 65 67 68 68 71 72 72 72 71 70 70 71 72 71 71 71 71 70 70 69 65 66 69 70 70 70 68 66 64
43 37 31 29 28 26 25 28 27 27 29 29 28 27 42 61 64 65 66 68 67 67 67 65 68 70 70 71 71 70 70 70 71 71 71 70 70 70 67 66 68 69 69 70 70 69 68 66 65
39 37 33 31 26 25 25 25 25 27 27 30 30 28 30 56 64 66 68 66 66 65 65 66 65 67 67 70 70 69 69 70 70 70 69 69 67 66 65 68 68 68 69 69 69 69 68 67 65
40 35 32 29 27 27 27 23 23 22 25 29 29 31 33 61 65 65 66 66 65 65 65 65 65 64 62 67 68 68 69 69 69 69 68 66 64 63 63 66 67 68 69 69 68 66 66 65 64
37 34 32 29 26 25 23 23 27 28 24 26 30 33 35 61 61 60 62 62 64 64 64 64 64 65 64 63 67 65 66 66 67 67 67 66 63 63 63 66 67 68 68 68 67 67 66 63 58
33 32 33 29 29 29 30 29 31 31 32 32 28 31 33 39 57 58 60 59 61 62 62 63 64 65 64 63 63 66 62 63 62 65 66 66 63 62 64 64 65 66 65 65 65 64 61 58 56
27 27 27 29 28 28 28 30 32 31 31 33 34 39 45 44 52 57 56 57 59 61 62 62 62 62 62 63 64 65 62 59 59 62 63 64 61 61 63 63 63 64 64 62 62 61 58 55 53
24 25 25 27 27 23 23 26 27 29 31 31 32 37 39 43 46 54 60 58 58 59 61 61 62 63 64 65 65 66 65 58 58 59 60 62 61 61 61 61 62 61 60 59 59 57 55 52 51
23 25 24 26 26 28 26 25 25 25 29 29 31 33 36 39 43 49 59 59 57 58 58 60 62 62 64 64 64 64 65 65 58 58 59 60 61 60 60 59 59 59 57 57 56 54 53 52 51
25 25 26 26 26 25 26 25 26 26 26 26 26 31 33 37 44 47 54 58 57 57 57 59 62 62 62 62 63 64 64 64 64 58 58 58 60 60 59 57 57 57 56 55 54 53 52 52 52
27 26 23 24 24 24 24 19 23 26 26 25 24 25 32 40 45 47 48 57 58 59 58 59 61 61 61 62 63 63 63 64 64 63 57 57 57 57 57 56 56 57 57 57 56 54 52 54 56
27 23 22 21 23 22 21 19 22 23 22 22 22 20 28 37 46 48 51 56 58 59 59 59 60 62 62 62 62 63 63 62 65 64 64 59 60 59 59 59 59 60 60 58 57 55 54 55 56
22 23 23 22 23 24 24 20 22 23 21 21 18 18 26 32 46 53 55 58 59 60 60 60 60 61 61 62 61 63 64 61 62 64 65 64 62 62 62 61 61 60 61 58 58 57 57 57 56
28 27 24 24 24 23 25 25 27 26 23 24 25 22 25 32 53 56 57 57 59 60 60 61 60 60 61 60 60 61 61 63 63 64 64 64 65 65 65 64 60 59 61 59 58 57 56 57 56
27 26 27 26 27 27 27 28 27 27 24 27 37 36 43 44 51 54 57 56 56 57 60 60 61 61 61 60 60 62 62 63 63 64 65 65 64 64 64 64 62 59 61 61 60 58 57 57 57
29 28 29 29 30 30 30 29 28 28 23 37 41 43 44 44 47 54 54 54 55 55 56 60 61 61 61 61 62 62 62 63 63 63 63 63 64 64 63 63 63 63 63 62 62 62 62 59 59
29 31 33 33 31 25 27 20 23 21 20 34 38 41 44 47 46 51 54 54 55 56 57 59 60 61 61 62 61 60 59 59 61 62 63 64 64 64 63 63 63 63 63 62 62 62 62 61 61
34 36 36 34 32 29 29 26 17 23 29 30 36 40 45 48 47 48 52 55 55 56 55 58 60 60 61 61 61 61 60 61 61 61 61 60 62 63 63 63 63 63 63 62 62 62 62 62 60
40 35 34 32 32 25 29 28 21 23 26 32 35 38 46 49 47 47 49 53 53 53 53 55 55 58 59 60 61 61 60 60 60 60 60 60 61 62 62 63 63 64 63 62 62 62 61 61 60
38 33 27 23 22 26 33 28 33 31 30 34 37 44 48 48 46 46 46 48 49 50 51 52 53 54 57 58 59 60 60 60 58 57 59 60 60 60 61 61 62 63 62 62 62 60 60 60 59
35 35 29 21 24 27 33 30 33 39 32 32 43 46 44 44 44 45 45 47 48 48 49 49 52 51 51 54 56 59 60 60 60 59 59 60 59 59 59 61 61 62 62 62 61 60 59 59 58
34 34 36 32 32 30 32 33 37 40 39 43 44 43 43 42 42 43 44 44 46 47 46 47 48 48 48 49 50 52 59 59 60 60 59 59 60 60 60 61 61 60 60 61 61 60 59 59 58
36 36 28 31 25 24 29 28 32 36 36 37 37 40 41 42 43 43 44 44 43 43 40 40 41 43 44 45 46 47 48 52 54 58 60 60 60 60 61 60 61 61 60 61 61 60 59 58 57
33 30 30 26 26 27 20 28 38 37 37 36 38 39 40 40 41 42 44 44 40 38 39 39 40 40 40 41 44 45 47 47 48 48 51 55 57 58 60 60 60 60 61 61 60 58 57 56 55
32 28 25 23 23 24 24 28 37 36 37 38 37 38 40 40 40 40 39 38 36 32 32 33 35 37 39 41 40 43 45 46 46 47 48 49 51 54 56 57 59 59 59 59 58 56 55 55 53

GFSSGP_sfc_dewp_093.txt.gz
Dewpoint
55 53 56 53 43 41 37 40 38 36 33 31 29 29 35 48 49 46 61 66 69 69 71 71 73 73 72 72 71 72 74 73 73 74 73 73 73 72 71 70 70 71 72 72 71 71 69 69 68
56 56 52 47 39 34 34 33 32 34 33 32 30 34 36 56 60 61 61 68 69 70 70 71 73 73 72 72 70 71 72 73 73 72 74 74 73 72 71 70 71 72 72 71 70 69 68 68 68
55 54 45 42 39 35 33 33 29 29 31 30 32 38 44 58 61 62 64 66 68 69 70 71 73 73 72 71 71 70 70 72 73 73 73 73 73 72 71 71 72 72 71 70 69 68 68 68 68
47 46 44 40 36 36 37 37 37 34 34 31 32 34 55 62 62 63 65 67 68 68 69 72 73 73 72 72 72 71 70 70 72 73 72 73 72 72 72 71 72 71 70 69 68 68 68 67 66
46 44 38 36 36 35 36 36 36 32 32 29 31 31 45 63 64 64 64 66 67 68 70 71 73 73 72 72 72 71 71 71 72 72 72 72 72 72 71 71 71 70 70 70 69 69 67 65 65
42 42 35 34 33 33 32 32 33 30 29 28 29 32 50 63 63 65 65 66 67 69 70 70 72 72 72 72 71 71 71 72 72 72 72 72 72 71 71 70 68 65 67 69 69 69 67 64 64
42 40 34 32 30 28 29 28 26 28 27 27 30 28 52 61 64 65 67 66 67 68 68 69 70 71 71 71 71 70 71 71 72 71 71 70 71 70 69 68 65 68 69 71 71 69 67 65 63
39 37 34 33 31 29 29 27 26 24 24 28 31 28 32 56 65 66 65 64 65 66 66 66 67 66 67 70 70 69 69 69 70 70 69 69 69 68 65 67 67 65 71 71 70 69 67 66 65
39 34 33 32 31 30 29 26 26 29 26 26 29 32 50 61 65 63 64 64 65 65 65 66 65 63 64 66 68 68 68 68 69 69 68 67 65 64 63 66 66 68 69 69 70 69 69 67 64
36 34 34 34 32 29 28 29 30 31 31 32 33 34 44 62 61 61 60 61 64 63 64 64 64 64 64 64 63 65 67 67 67 67 67 66 63 63 62 65 65 68 68 68 68 67 66 63 59
31 33 34 34 34 33 30 26 29 32 31 32 32 32 33 46 56 58 59 60 62 64 64 64 64 64 63 63 63 64 65 65 66 66 67 66 64 63 63 66 65 65 66 66 66 66 63 59 57
26 26 27 30 29 28 27 25 23 30 31 32 31 33 34 37 47 57 58 59 59 61 62 63 63 62 62 64 64 63 63 63 63 66 67 66 64 62 64 65 65 64 64 63 63 62 60 58 56
25 26 27 28 29 27 27 28 25 24 27 29 30 32 32 34 40 52 57 57 58 60 61 62 61 61 62 63 63 62 64 65 62 65 65 66 65 63 63 63 63 63 63 62 62 60 58 56 54
24 26 26 27 27 28 26 26 29 26 26 26 27 28 28 31 34 48 55 55 58 60 60 61 61 62 62 62 62 62 64 65 60 62 63 63 62 62 62 62 62 62 61 61 60 58 57 54 52
28 27 29 28 27 26 27 24 24 26 28 27 26 26 28 30 34 38 54 56 57 59 60 61 61 62 63 62 62 62 63 66 64 59 60 61 61 61 61 61 61 61 59 57 57 55 53 52 51
29 27 24 26 28 28 28 21 22 23 25 26 26 26 27 28 29 35 49 56 55 58 59 62 62 61 61 62 62 61 63 65 65 65 60 59 61 60 59 58 59 58 57 55 54 53 52 52 53
26 20 23 24 28 27 26 20 23 22 23 24 25 26 26 27 29 37 47 53 58 58 59 61 61 61 60 61 61 63 61 64 64 64 63 58 59 59 58 57 57 56 57 57 56 54 53 52 55
19 21 23 23 25 26 25 24 26 25 22 21 20 21 22 24 27 39 53 55 58 58 59 59 61 61 61 62 62 63 62 63 64 64 64 61 58 58 57 58 57 58 59 58 57 55 55 54 55
29 27 26 27 29 27 25 25 27 30 29 28 22 21 23 20 27 54 56 57 58 58 59 59 59 61 61 61 60 61 61 62 62 64 63 62 62 60 60 61 60 60 60 58 57 57 56 57 57
28 27 27 28 29 29 30 29 30 32 30 29 26 27 34 28 50 54 54 54 56 57 58 59 60 60 61 61 61 61 60 61 61 62 62 63 61 63 64 62 61 59 61 59 58 57 57 57 57
28 27 28 28 31 32 32 28 28 29 32 31 29 38 44 46 50 52 54 53 53 54 56 59 60 60 61 61 61 61 61 60 59 60 61 63 64 63 63 64 63 62 62 61 61 61 59 57 58
29 31 31 35 33 21 29 19 23 27 28 27 31 41 43 45 48 51 52 54 54 53 55 58 59 61 61 61 60 60 59 58 60 62 62 62 61 63 63 63 63 63 63 62 62 62 61 61 59
32 36 36 36 31 29 25 26 23 22 22 21 33 40 44 46 46 48 50 55 56 55 54 57 59 59 61 61 61 60 59 60 61 61 61 61 61 62 63 63 63 62 62 62 62 61 61 61 60
35 35 34 33 31 21 27 22 22 25 27 28 35 41 47 46 46 46 49 50 52 53 52 54 55 56 59 59 60 60 60 59 59 60 60 60 61 61 61 62 62 62 62 61 61 61 61 61 61
36 34 25 22 22 20 32 26 28 36 39 36 36 46 45 44 45 45 47 48 49 50 49 51 52 54 56 58 59 60 60 60 60 58 59 59 60 60 61 60 60 62 62 61 61 61 60 61 60
35 34 29 21 24 27 32 28 33 39 44 45 44 44 44 44 44 44 46 47 47 47 48 50 51 51 52 53 54 56 60 60 59 58 58 59 60 60 60 61 60 61 62 61 61 60 60 60 60
33 34 36 32 32 26 30 33 37 37 37 42 42 42 42 43 44 44 45 45 45 45 44 45 46 47 49 50 51 52 54 60 59 59 58 58 60 60 60 60 60 60 61 61 61 60 59 59 59
37 37 27 29 24 25 28 29 31 33 34 37 38 40 41 42 43 44 44 44 45 45 44 43 41 41 43 46 48 48 50 54 55 56 58 59 59 60 60 60 60 60 60 60 60 60 59 59 59
32 32 31 28 27 25 21 27 36 34 36 37 39 39 39 40 42 42 42 42 40 38 36 35 36 37 39 41 42 45 46 47 48 48 51 54 57 58 58 60 60 60 60 60 60 59 59 58 58
32 31 25 23 22 23 24 29 38 38 38 38 38 40 40 40 40 41 41 40 35 33 33 34 34 35 35 37 41 41 41 42 44 46 47 47 48 50 53 55 57 59 59 60 60 59 59 58 56

GFSSGP_sfc_dewp_096.txt.gz
Dewpoint
56 56 54 51 42 40 36 40 41 38 35 33 31 30 29 41 43 43 61 67 69 70 71 71 73 73 72 72 73 74 74 74 74 74 72 72 73 72 70 69 71 71 72 72 71 71 70 70 69
55 56 51 46 38 34 35 39 39 38 35 33 32 31 34 49 60 61 64 68 69 70 71 71 73 73 72 71 71 73 74 74 73 74 73 73 73 72 71 70 71 72 71 71 71 69 68 69 69
53 55 44 43 37 34 34 34 34 33 36 34 32 35 45 58 61 61 65 68 69 69 70 71 73 73 72 71 71 71 73 73 73 73 73 73 72 72 71 71 72 72 71 71 70 67 68 69 68
46 46 44 39 35 37 37 38 37 36 35 33 31 29 57 61 62 63 67 69 69 70 70 72 73 73 72 72 71 70 71 72 73 73 72 73 72 71 72 72 72 71 70 70 69 67 68 68 67
46 43 38 35 36 37 37 37 36 34 33 31 29 29 50 62 64 65 67 68 68 69 70 71 73 73 73 72 72 71 70 71 72 73 72 72 72 71 72 72 71 70 70 69 68 68 67 66 66
42 41 34 33 33 34 33 33 31 30 30 29 27 29 45 61 63 65 68 67 68 69 70 71 72 72 72 72 72 72 71 71 72 72 72 72 72 71 71 71 71 70 70 68 68 67 66 65 65
41 38 33 32 32 30 30 29 26 26 26 24 28 27 39 60 64 66 66 67 68 69 70 70 71 71 71 72 71 71 71 71 72 72 72 71 71 70 71 70 70 68 67 70 69 67 65 64 64
40 37 33 32 32 32 32 29 29 26 27 29 29 29 34 45 65 64 64 65 65 65 67 68 69 70 70 69 70 69 69 70 71 70 70 69 69 69 69 68 67 68 69 70 70 68 65 65 64
39 34 32 33 32 32 30 29 30 32 31 32 33 33 34 46 64 63 62 63 65 65 65 65 65 65 67 68 68 68 68 68 68 69 68 68 68 66 65 65 66 67 70 71 70 68 67 66 65
36 33 33 34 33 32 32 31 27 28 29 32 33 33 33 39 46 58 59 60 62 64 65 65 64 63 64 66 65 66 67 67 67 67 67 66 66 63 62 64 65 67 69 69 70 69 68 64 59
32 32 35 34 34 34 29 26 26 25 27 31 31 31 32 36 41 49 57 58 60 63 65 64 64 64 63 63 63 63 64 65 66 66 66 65 65 64 64 64 64 66 65 66 67 66 63 58 56
26 28 27 29 30 30 28 27 26 25 24 30 30 31 34 32 38 45 52 57 59 61 63 64 64 64 64 64 63 62 62 63 65 66 66 65 65 64 64 64 63 64 66 64 64 63 61 59 57
25 24 25 26 27 26 25 27 27 27 28 26 27 29 30 31 33 38 49 57 57 59 61 63 63 64 63 63 62 62 62 63 62 65 66 65 66 65 65 64 65 63 65 64 62 61 60 57 56
25 30 29 30 28 28 26 25 27 26 27 28 28 28 27 28 30 36 46 52 55 58 60 61 61 61 62 62 61 61 62 64 65 63 65 65 65 65 64 64 63 63 64 63 62 60 59 56 55
30 27 28 27 29 27 27 23 23 23 26 24 24 24 28 28 29 31 39 50 54 57 60 60 61 61 62 62 62 61 61 62 64 63 65 64 64 65 64 63 62 63 63 62 60 59 58 56 54
28 26 23 25 28 29 27 20 22 23 24 23 23 22 23 30 29 29 31 44 54 58 59 60 61 61 62 61 61 61 62 62 64 64 62 62 62 63 64 63 62 62 62 60 59 58 55 53 52
24 18 22 24 28 28 28 24 26 25 24 23 22 23 24 28 32 32 32 42 54 57 59 60 61 60 61 62 61 61 61 62 63 64 63 59 61 61 62 62 61 60 59 58 56 55 53 52 53
18 19 23 23 25 27 28 27 27 27 27 22 21 21 21 22 28 32 33 45 54 57 58 60 61 61 60 61 61 61 61 62 63 63 63 61 60 61 61 60 59 58 58 57 56 54 54 52 53
26 25 25 26 28 28 28 27 28 29 28 28 28 26 23 22 26 33 42 54 56 57 58 59 60 60 60 60 60 60 61 61 61 63 63 63 59 60 60 59 57 58 56 56 56 55 54 55 54
28 27 26 27 29 31 31 30 31 32 31 30 30 31 28 26 29 47 53 53 56 56 57 58 59 60 60 60 59 60 61 61 62 62 61 62 62 60 60 59 57 57 58 58 57 57 57 56 57
25 23 26 26 29 32 32 28 28 29 32 32 32 33 32 32 33 49 52 52 53 55 56 57 58 59 59 60 59 59 60 61 60 61 62 62 62 62 61 60 60 60 60 59 59 58 57 56 58
27 30 30 31 32 26 30 20 24 24 29 31 32 33 34 42 45 49 51 52 52 52 55 57 58 59 59 59 59 59 58 58 59 59 61 62 62 62 62 62 62 61 61 61 60 60 59 59 58
29 34 33 36 33 30 27 24 22 23 22 28 24 30 42 45 47 50 52 52 55 55 54 56 56 58 60 61 61 60 59 59 60 61 61 61 62 62 62 63 63 61 61 61 61 61 60 60 59
32 32 35 35 32 18 26 22 20 30 34 37 33 43 45 46 47 48 49 50 51 53 53 54 55 55 57 59 60 60 59 59 59 60 59 60 61 61 62 62 62 62 62 61 61 60 60 60 59
33 33 23 16 22 20 32 22 21 36 40 40 39 43 45 45 45 47 47 48 49 50 51 52 52 52 54 55 57 58 59 59 59 59 59 59 59 59 60 61 61 61 61 61 61 60 60 61 60
34 34 28 20 23 25 32 25 32 37 39 42 44 43 44 44 44 45 45 45 46 46 49 50 50 50 51 52 53 54 55 60 59 59 59 59 59 60 60 61 61 60 61 61 61 61 60 61 60
34 33 37 31 32 22 29 33 36 36 36 40 41 42 42 43 43 44 45 45 45 45 45 43 45 46 48 50 51 51 53 56 58 59 58 58 59 60 60 60 60 60 60 61 61 60 60 59 60
37 37 30 30 20 24 28 29 30 33 33 38 39 40 41 42 43 43 43 43 43 42 42 42 41 41 44 46 48 50 50 51 53 55 56 58 59 59 59 59 60 60 60 60 60 60 59 59 59
32 32 32 30 27 25 22 28 35 34 34 36 39 40 40 41 42 42 42 42 42 41 42 39 39 38 37 42 42 43 45 47 49 49 49 50 52 54 56 58 59 59 59 59 60 59 59 58 58
32 30 28 23 22 24 24 29 38 37 37 38 39 40 40 40 40 41 41 40 41 40 39 36 36 36 36 37 39 40 40 41 41 42 44 46 46 47 49 52 54 57 59 59 59 59 59 58 58

GFSSGP_sfc_dewp_099.txt.gz
Dewpoint
55 56 55 48 40 39 35 37 40 40 35 34 33 32 31 31 31 39 60 68 69 70 71 71 73 73 74 74 75 75 75 74 74 73 72 72 72 70 70 71 71 71 71 71 71 71 71 69 68
55 55 49 44 35 31 28 38 39 39 37 35 34 32 32 35 59 60 64 68 69 70 71 71 73 73 72 73 74 74 74 74 74 73 73 73 72 71 70 71 71 72 71 71 71 71 70 69 69
52 53 43 41 36 31 28 35 36 36 37 36 33 31 36 54 60 61 64 68 69 70 70 70 73 73 72 71 73 73 73 73 73 73 73 73 72 72 70 71 72 72 72 71 70 68 69 68 67
46 46 43 37 34 37 36 38 38 37 35 34 30 29 35 61 61 63 68 68 69 69 70 72 73 73 72 72 72 72 72 72 73 73 72 72 72 72 71 72 72 72 71 70 69 69 69 68 67
46 43 37 34 35 37 38 37 35 33 33 32 30 28 30 59 64 66 68 69 69 69 70 72 73 73 72 72 71 71 72 72 72 72 71 71 72 72 72 72 71 71 71 70 68 68 69 67 67
41 41 32 30 32 35 34 34 31 28 27 27 26 27 30 61 60 66 67 67 69 69 71 71 72 72 72 72 72 71 71 71 72 73 72 72 72 72 71 71 71 70 69 68 68 68 67 66 65
40 37 32 31 33 32 31 30 27 26 28 25 29 27 32 40 45 65 66 67 66 68 69 70 71 71 72 72 72 72 72 71 72 72 72 72 71 71 71 71 71 70 69 69 68 67 65 65 66
41 37 33 32 32 32 33 29 29 29 29 32 33 32 34 33 59 63 65 66 67 67 67 67 68 69 69 70 70 70 70 71 72 71 71 70 69 69 69 70 70 70 70 70 69 66 65 65 66
39 34 30 32 32 32 32 31 30 30 30 29 33 33 33 34 47 56 62 63 64 65 67 66 67 68 68 68 68 68 68 68 68 69 68 68 68 67 67 67 68 68 68 69 69 67 66 66 64
36 32 32 35 34 33 33 30 27 25 24 28 32 32 31 35 39 42 51 59 61 63 65 64 64 65 67 68 66 66 67 65 66 67 67 67 67 66 65 64 65 67 68 70 69 68 67 65 60
34 32 34 34 33 33 30 27 27 24 25 28 26 30 29 33 36 40 42 52 59 61 64 64 63 64 65 65 64 64 65 65 66 65 65 65 66 64 63 63 63 64 66 68 68 68 64 59 57
25 27 28 29 29 28 26 27 25 25 25 26 28 29 31 30 34 37 39 42 54 60 63 64 63 63 64 65 64 63 63 64 65 65 65 65 64 65 65 63 63 64 66 66 65 63 62 59 55
24 25 28 29 30 27 26 26 26 25 26 27 28 30 29 30 30 32 39 44 51 58 61 63 64 63 64 64 63 63 61 61 62 65 65 65 65 64 65 65 64 63 65 65 64 62 60 58 56
28 30 29 30 29 29 27 24 25 25 26 25 26 27 28 28 28 31 36 37 44 54 59 61 63 63 63 63 63 62 63 62 62 62 65 65 65 64 65 65 64 63 64 64 64 62 60 58 56
30 27 28 27 28 26 28 24 25 22 23 23 23 23 25 28 29 30 32 34 41 46 58 60 61 62 62 62 62 62 62 61 63 63 63 65 65 64 64 64 64 64 64 63 62 62 60 57 55
28 26 22 21 27 28 26 19 22 25 23 23 23 24 24 26 29 29 31 34 35 48 57 60 61 61 61 61 61 61 61 61 62 62 63 64 65 64 64 64 64 64 64 63 62 60 59 57 55
22 17 20 23 28 28 26 23 27 27 26 25 25 24 24 26 31 32 32 31 35 44 57 59 60 60 60 60 60 61 60 61 61 62 62 62 64 64 62 63 63 62 63 62 61 59 58 55 54
15 18 22 23 25 27 26 25 26 29 29 27 26 24 23 23 28 31 33 33 39 46 57 58 60 59 60 60 62 60 60 61 61 62 62 62 61 63 63 61 61 62 61 61 59 59 56 54 54
23 23 24 26 27 28 27 27 28 30 31 29 28 27 27 27 29 33 35 39 41 49 56 58 60 59 59 59 60 61 60 60 60 62 63 62 62 61 62 62 62 62 60 59 58 57 54 54 53
27 25 25 27 29 29 29 29 31 32 32 32 31 29 30 30 30 32 38 46 52 54 56 58 59 60 59 59 59 60 60 61 60 61 61 62 63 61 62 61 60 60 59 58 57 56 55 54 55
25 24 25 25 29 31 31 28 25 26 28 32 34 33 33 32 31 32 42 51 54 55 56 57 58 59 59 59 59 59 59 59 60 61 61 61 62 63 61 61 61 59 59 58 58 57 56 55 57
24 28 28 29 32 28 30 22 23 23 25 33 32 32 34 34 36 47 50 51 53 55 57 58 59 59 59 59 60 58 57 57 58 60 61 61 62 63 63 62 61 60 59 59 59 59 58 58 56
27 33 32 32 33 32 27 23 22 30 33 35 37 28 37 44 46 49 51 53 54 53 53 55 56 58 59 60 59 59 58 58 58 58 59 60 61 62 63 63 62 61 60 59 60 59 59 59 57
31 31 33 33 31 17 25 24 22 31 36 38 40 42 43 44 46 48 49 50 52 53 51 54 53 55 56 57 58 59 60 59 59 59 59 59 60 61 61 62 62 61 61 60 59 59 59 59 59
33 32 20 17 15 18 31 25 23 35 37 41 42 42 44 45 46 46 45 46 48 50 51 53 51 50 52 53 54 54 56 58 59 59 59 59 59 60 61 61 61 61 61 60 60 60 60 60 60
32 35 28 20 16 24 31 23 30 36 37 41 42 43 44 44 45 45 45 45 45 45 45 47 48 49 50 51 52 53 54 56 59 59 59 60 59 60 60 61 61 61 61 61 60 60 60 60 60
33 32 37 32 29 27 27 32 37 35 35 39 40 41 42 43 43 42 42 42 41 42 43 42 44 45 46 49 51 51 52 52 53 54 57 58 58 60 60 59 59 60 60 60 60 59 59 60 59
35 37 30 30 22 22 28 29 29 32 33 37 38 40 41 41 41 42 42 42 42 42 42 43 43 42 43 44 45 48 48 49 50 50 50 51 52 55 58 59 59 59 59 60 60 59 60 60 59
31 30 32 31 28 25 22 28 35 34 34 36 38 39 40 40 41 41 42 42 42 42 42 41 41 40 40 41 41 42 44 45 45 45 47 48 49 50 51 54 56 57 59 59 59 59 59 59 58
32 30 28 22 21 24 24 29 38 37 37 37 37 38 40 40 41 41 41 42 41 41 41 41 40 37 37 38 39 39 40 40 41 40 41 42 43 45 46 47 50 52 54 57 59 58 59 58 58

GFSSGP_sfc_dewp_102.txt.gz
Dewpoint
56 55 54 46 35 36 32 32 39 39 37 34 34 32 32 32 29 33 60 67 69 70 72 72 73 74 74 74 74 74 74 74 73 71 70 71 71 70 70 70 69 69 69 71 71 71 69 68 67
55 54 48 41 34 19 16 36 39 39 38 37 35 32 31 32 42 59 62 68 69 70 71 71 73 74 74 74 74 74 73 74 74 73 72 73 71 70 71 71 71 72 71 71 71 70 69 68 68
52 50 42 38 34 23 20 35 37 37 38 37 32 31 32 48 59 61 64 69 70 70 70 71 73 73 74 73 74 73 73 73 73 73 72 73 72 71 70 71 72 72 72 72 72 70 69 68 68
46 45 42 34 32 35 34 36 38 34 33 33 31 28 32 59 58 64 67 68 69 69 69 72 73 73 73 73 74 73 73 73 73 73 73 72 72 71 70 72 72 72 71 71 70 69 68 68 67
45 41 35 32 33 36 38 38 33 30 31 30 28 26 28 57 45 55 67 68 68 68 70 71 73 73 72 72 73 73 73 73 72 72 72 71 72 72 72 72 72 71 71 70 69 69 68 66 68
41 39 27 26 31 36 35 34 32 27 27 27 29 28 34 50 39 60 65 67 68 68 70 71 72 73 72 72 72 72 73 73 73 72 72 72 72 72 71 71 72 71 70 70 68 68 68 66 66
39 32 28 29 32 33 32 30 27 28 28 27 30 27 32 36 37 50 64 66 67 68 70 70 71 71 72 71 71 71 71 72 73 73 72 72 71 71 71 71 71 71 70 70 69 68 67 66 66
40 36 33 30 31 31 32 31 29 28 28 31 33 31 32 32 38 47 62 65 65 67 67 68 69 70 70 70 70 71 71 71 71 72 71 70 69 70 70 70 70 70 70 70 69 67 66 66 66
39 33 29 31 32 31 33 32 32 28 29 26 30 32 32 32 40 41 47 56 63 65 65 66 67 68 68 69 69 69 69 70 70 70 69 68 68 68 68 68 69 69 70 70 68 67 67 67 66
36 29 29 34 34 33 33 30 28 26 26 25 28 32 30 31 37 38 40 45 51 61 64 66 65 66 67 68 67 66 67 66 66 67 67 67 67 67 67 66 67 69 69 69 69 67 67 65 60
35 31 34 34 34 30 29 27 27 25 25 26 26 28 28 30 33 36 36 39 43 55 62 64 64 65 67 66 64 65 65 64 65 65 65 66 67 65 65 64 66 65 65 67 68 67 63 59 58
24 28 28 28 29 28 25 26 25 26 25 26 27 28 29 29 33 36 36 37 39 48 58 63 64 64 65 66 65 64 64 64 64 65 65 65 64 64 64 63 64 64 67 67 67 65 63 59 56
24 26 29 29 30 28 27 27 25 25 26 26 27 29 29 29 30 31 37 37 40 41 53 62 63 64 64 65 64 64 63 64 64 64 64 64 64 63 65 65 64 64 65 65 65 64 62 59 56
29 30 30 29 28 29 27 25 25 24 26 26 26 25 27 27 27 29 34 36 36 39 47 58 63 63 63 64 64 63 63 63 63 64 64 64 64 63 63 64 64 64 65 64 64 63 61 59 57
30 24 25 24 27 25 27 22 25 24 24 23 23 24 25 27 28 28 29 32 33 38 43 53 62 63 63 62 63 63 63 63 62 62 62 64 64 63 63 63 63 63 65 64 63 63 61 59 57
26 23 16 18 26 27 22 16 21 23 23 23 24 24 25 27 26 26 29 32 33 36 39 53 60 62 62 62 61 62 62 61 62 63 63 63 64 63 63 63 63 64 64 64 63 62 61 59 58
20 14 19 22 27 27 25 21 26 27 26 26 26 26 27 27 29 29 30 30 32 38 39 51 58 60 61 61 61 61 60 61 61 61 62 63 64 64 64 63 63 64 64 64 63 62 61 59 58
14 16 22 22 25 27 26 25 26 28 28 27 29 30 29 26 28 31 33 33 36 39 42 51 58 59 59 60 59 60 59 60 60 60 61 61 63 64 64 62 62 62 60 62 62 62 59 59 58
22 21 21 25 27 27 27 27 28 30 31 31 32 32 30 27 29 32 34 37 38 41 44 52 57 58 59 59 59 59 59 58 58 60 61 62 61 62 63 63 61 62 59 58 60 61 60 57 55
25 23 23 26 28 28 29 29 31 32 32 32 31 32 32 30 30 32 35 37 39 39 46 53 58 59 59 59 58 59 59 59 59 60 61 62 62 61 61 62 62 62 61 60 60 59 58 58 56
23 22 23 24 28 30 31 29 27 25 27 29 36 34 34 32 31 33 34 39 46 51 53 55 57 59 59 58 59 58 58 59 59 60 60 60 61 62 62 62 62 62 61 60 60 60 59 56 56
25 27 27 28 29 26 33 22 23 25 33 37 37 35 33 35 36 36 46 48 51 53 55 57 57 58 58 60 59 58 57 57 57 58 59 60 61 61 62 62 62 61 61 61 60 59 59 57 55
27 30 30 31 32 31 26 25 22 29 32 36 38 40 42 45 46 46 50 51 52 53 54 56 58 58 59 59 59 59 58 58 59 58 57 58 59 61 61 62 62 61 61 60 60 59 59 58 57
31 31 33 33 29 18 23 24 22 32 35 36 40 41 42 45 46 46 47 48 50 52 52 52 54 54 54 57 57 56 57 57 58 58 58 59 59 60 61 61 62 62 62 61 60 60 59 58 58
32 32 19 13 12 16 29 24 25 34 35 39 40 41 43 45 45 45 45 45 45 46 49 51 50 50 52 52 53 53 54 55 57 59 59 59 59 59 60 60 60 60 61 61 60 60 59 59 58
32 34 28 17 14 20 29 20 30 35 36 40 41 42 42 42 42 42 42 43 43 44 45 45 46 47 49 51 51 52 52 53 54 54 58 58 58 59 60 60 61 61 61 61 61 60 60 60 60
32 31 36 30 28 25 23 32 37 36 35 37 39 40 40 41 41 41 41 42 42 43 43 43 43 44 44 46 48 48 49 50 50 51 51 52 52 53 55 59 59 60 61 61 60 60 59 59 59
34 34 25 28 17 15 22 26 29 33 34 36 37 38 38 40 41 41 41 41 41 42 42 42 42 42 42 43 43 45 46 47 47 47 47 48 49 50 51 52 54 56 58 59 59 59 59 59 59
30 28 29 29 27 23 22 24 36 35 36 35 37 37 37 39 41 41 42 42 42 42 42 41 40 40 42 41 40 40 41 42 43 42 43 43 45 46 47 48 50 51 53 55 57 59 59 58 58
30 28 27 22 20 23 25 24 37 38 38 37 36 38 37 39 41 41 41 41 40 40 40 40 40 38 38 38 37 37 37 37 39 40 40 41 41 42 42 44 45 46 47 49 51 52 55 58 58

GFSSGP_sfc_dewp_105.txt.gz
Dewpoint
56 55 54 45 34 34 28 28 42 38 37 35 36 34 32 33 31 34 62 65 69 69 71 71 74 75 74 74 74 74 74 74 74 74 73 72 71 71 69 69 69 69 70 71 71 70 69 69 67
54 53 48 39 31 16 14 36 38 39 39 38 36 33 32 32 47 57 63 67 69 70 71 70 74 75 74 74 74 74 74 74 73 71 71 72 71 70 70 70 69 71 72 71 72 70 69 68 67
53 48 43 35 33 18 17 35 37 37 37 36 32 31 32 50 50 59 63 68 70 71 71 70 74 74 74 74 74 74 74 73 73 73 71 73 71 71 71 71 72 72 72 72 71 70 69 68 67
47 46 42 33 27 32 31 36 37 32 32 31 30 28 42 38 39 51 60 69 70 70 70 71 73 74 74 74 74 74 73 73 73 73 73 72 72 71 72 72 72 71 72 72 70 70 70 69 69
45 40 35 33 33 36 38 39 36 30 28 28 29 27 29 42 37 41 62 67 69 70 70 70 73 73 73 74 73 73 73 73 73 73 72 71 72 72 72 72 72 72 71 71 70 69 68 67 67
42 36 26 23 30 35 35 35 32 27 28 28 29 30 33 42 37 45 58 65 68 69 70 70 72 73 72 73 73 73 72 72 72 73 72 72 71 71 71 72 72 72 71 70 69 68 67 67 67
39 28 24 29 30 33 32 31 29 28 29 28 30 29 32 36 36 45 50 65 66 69 69 70 70 70 72 72 71 72 72 72 72 72 72 72 72 71 71 71 71 71 71 70 70 68 67 67 67
40 36 34 33 31 28 33 33 29 28 28 30 31 31 33 32 35 44 47 53 62 65 68 70 71 70 70 70 70 70 71 71 71 72 71 70 70 70 70 70 70 70 70 70 70 69 67 68 67
39 28 27 29 32 29 33 32 32 29 28 27 28 33 33 31 38 40 44 48 51 57 63 67 69 69 69 69 69 70 70 70 70 70 69 69 70 69 68 67 69 69 70 70 70 69 68 68 66
36 25 25 33 34 33 34 31 28 26 26 26 27 29 31 31 35 36 39 43 46 47 54 63 66 68 69 69 69 69 68 69 69 70 69 70 70 69 67 66 67 69 69 69 69 68 67 66 62
36 28 33 34 34 28 27 27 27 25 25 26 25 28 28 30 33 36 35 38 40 44 52 56 64 65 68 69 69 68 67 68 67 67 68 69 69 69 68 67 67 67 67 68 67 66 64 63 61
25 28 28 28 27 28 26 25 24 26 23 25 27 28 29 29 32 36 35 35 35 42 46 54 64 64 65 68 67 67 66 66 67 67 67 68 69 68 68 66 67 66 66 67 66 65 63 62 59
25 27 28 29 30 29 28 28 25 24 26 26 27 28 28 29 31 30 36 35 38 37 42 46 59 64 64 65 66 65 65 65 64 66 67 67 68 67 67 67 67 67 66 66 66 66 64 60 57
29 29 29 29 27 28 27 25 25 21 25 26 27 27 26 27 27 29 33 35 35 37 40 44 50 62 64 64 64 66 65 64 64 65 66 66 66 66 66 66 66 66 67 66 67 65 64 62 59
29 22 24 23 27 25 27 23 25 24 25 24 23 23 26 26 27 27 30 31 31 35 37 38 43 56 63 63 64 65 64 64 63 63 65 65 66 65 65 65 66 65 66 66 66 66 64 63 60
23 20 13 19 26 27 23 19 20 24 24 26 26 27 28 28 27 28 28 31 30 35 34 37 39 55 62 63 63 64 64 64 64 63 63 63 64 65 65 65 65 65 65 66 66 64 63 62 61
20 13 18 21 26 27 25 23 24 27 28 28 29 29 29 31 32 33 31 29 30 34 37 39 45 53 60 62 63 63 63 63 63 63 63 62 62 63 64 65 65 65 65 65 65 64 63 62 60
15 18 21 22 24 27 26 26 28 30 30 30 30 31 31 32 34 35 33 32 35 37 40 40 43 51 60 61 62 62 62 62 62 62 62 62 62 63 64 64 64 65 64 64 64 63 62 61 61
22 23 22 24 26 27 27 27 29 31 33 32 31 31 32 34 35 36 34 37 39 40 40 42 46 53 60 61 61 60 59 60 61 62 61 61 62 62 63 64 63 64 63 62 62 63 61 60 59
26 25 24 25 27 29 29 29 31 33 33 32 31 33 37 34 35 34 36 38 40 40 41 43 46 58 60 61 60 60 60 61 61 61 61 61 62 62 62 63 63 62 63 61 59 60 59 60 58
25 25 24 26 27 31 31 30 27 26 29 34 38 40 41 39 40 40 37 38 42 42 46 46 48 56 59 60 60 60 60 61 60 61 61 61 62 63 62 62 63 63 63 62 60 59 57 56 58
25 27 27 28 30 27 31 23 25 25 29 35 38 40 41 42 44 46 47 47 49 50 53 55 56 58 59 60 60 58 58 57 59 60 61 61 61 61 63 63 62 63 63 62 61 61 60 59 56
27 30 29 30 31 31 28 27 25 28 31 33 37 40 43 45 45 45 47 49 51 52 53 57 59 59 59 60 59 59 57 58 59 59 59 59 60 61 62 63 62 62 63 62 62 61 60 60 59
32 33 33 32 30 21 22 26 25 30 33 35 39 41 42 44 45 45 46 46 47 49 52 53 54 54 55 56 56 56 56 56 58 59 58 59 60 60 60 61 62 62 62 62 61 61 61 60 59
33 33 24 17 16 19 27 26 27 34 35 36 39 40 41 42 42 43 43 44 45 46 47 49 50 51 52 53 53 53 53 54 54 54 58 59 59 59 59 60 60 61 62 61 61 61 61 60 59
32 33 28 20 18 21 30 25 27 37 37 38 39 39 40 40 41 41 42 43 43 44 44 45 46 46 48 49 49 50 49 50 49 50 51 51 52 53 54 55 59 60 60 60 60 60 60 60 60
34 30 35 31 27 25 23 28 35 37 35 37 38 38 37 40 41 41 41 41 42 42 42 42 43 43 44 43 45 46 46 46 45 46 47 48 49 50 51 52 52 54 55 57 60 60 60 60 60
35 35 25 29 21 18 21 25 29 34 35 36 36 36 36 39 40 41 41 41 41 41 41 41 41 41 42 42 41 42 43 44 45 44 43 44 45 45 46 47 49 50 51 51 54 57 59 59 59
33 30 31 29 28 22 21 23 35 36 37 36 36 36 37 39 40 41 41 41 41 41 41 41 40 40 40 39 39 37 38 40 41 42 41 40 41 41 42 43 44 45 46 48 49 50 52 53 57
32 29 26 23 21 24 24 24 36 38 38 37 37 37 39 40 40 40 40 40 39 39 39 39 39 38 38 36 32 33 32 32 34 35 35 36 35 35 36 36 37 39 41 44 45 45 47 48 49

GFSSGP_sfc_dewp_108.txt.gz
Dewpoint
52 54 55 46 30 27 18 25 37 35 35 36 36 34 33 33 31 34 62 66 67 67 68 69 74 75 74 75 75 74 75 74 74 74 72 72 72 71 69 69 68 70 72 70 70 70 69 69 67
54 52 49 41 25 14 17 33 34 38 37 36 35 34 32 34 53 53 62 63 68 68 68 68 74 74 74 74 74 74 74 74 74 74 74 73 72 71 69 69 69 70 72 72 72 71 70 69 68
52 47 41 32 23 16 21 32 34 35 34 32 31 30 34 43 43 47 50 62 68 68 69 68 73 73 74 74 74 74 74 74 73 73 72 73 71 71 70 70 71 71 71 72 72 70 70 69 68
49 47 38 28 19 27 29 34 35 31 31 29 28 29 44 38 38 39 52 65 69 68 68 70 73 73 73 73 73 73 73 73 73 73 72 73 71 71 71 72 72 72 71 71 70 69 69 69 68
46 41 29 25 25 31 34 38 36 30 28 28 29 28 31 38 36 39 50 65 67 68 68 67 72 72 73 73 73 72 73 72 72 72 72 71 71 72 71 71 71 71 71 71 70 69 68 68 69
39 35 20 17 22 30 33 34 33 29 29 28 29 29 33 38 35 41 46 62 67 68 68 67 70 72 71 72 72 72 73 72 72 72 72 72 71 71 71 72 72 71 71 71 70 69 68 67 67
32 25 19 20 22 25 30 31 28 29 28 28 30 29 32 37 35 40 44 48 64 68 69 67 67 68 71 72 72 72 72 72 72 72 72 72 71 71 71 72 72 72 72 71 70 69 67 67 67
37 28 24 25 20 23 33 32 30 30 29 31 30 28 31 34 34 38 42 47 47 54 65 69 68 66 66 65 71 70 71 71 72 71 71 70 70 71 71 70 71 71 71 71 70 70 68 68 68
40 21 21 25 25 26 33 30 32 30 27 26 27 29 31 29 35 36 39 43 45 45 46 55 68 68 66 65 65 69 70 70 70 70 70 69 67 66 67 67 69 69 70 70 70 70 69 68 67
31 21 18 28 30 29 32 30 27 23 21 20 20 22 24 28 29 31 33 37 41 43 44 46 53 67 68 66 67 66 65 64 63 63 65 66 65 64 64 65 67 69 69 69 70 70 69 67 60
34 24 29 33 34 31 28 23 25 21 16 16 15 15 19 24 26 29 26 28 34 39 43 45 45 62 66 69 69 68 69 69 66 64 66 65 64 65 66 65 67 69 67 67 67 67 64 62 58
24 30 30 29 28 27 25 24 21 21 17 17 18 21 24 24 26 28 27 26 25 31 38 43 45 50 64 66 68 69 68 67 67 65 64 64 64 66 64 63 66 68 68 67 66 64 62 59 59
22 25 26 27 28 26 25 25 22 19 19 18 20 23 24 24 26 26 29 28 29 29 33 37 42 45 56 65 67 68 67 67 66 65 65 64 64 66 65 66 67 67 68 68 68 64 61 58 56
26 27 24 26 23 25 24 22 24 18 21 22 23 25 25 27 28 29 30 30 30 29 32 34 36 40 50 60 65 66 67 66 65 65 65 64 66 66 67 66 66 66 68 66 66 66 65 60 53
26 18 20 22 24 23 26 23 24 22 23 25 29 31 32 31 30 31 31 30 30 30 29 31 32 34 42 55 63 65 66 67 66 65 65 65 63 65 65 66 65 66 66 67 66 66 66 63 58
18 17 10 19 25 27 26 18 21 21 26 29 31 29 29 30 30 31 32 31 30 31 31 31 29 30 39 49 62 64 66 63 63 64 64 65 65 64 64 62 64 64 64 65 65 65 65 65 64
16 8 12 16 26 27 26 24 26 27 29 30 30 28 30 31 32 33 35 34 33 32 33 34 35 33 37 47 59 63 65 63 61 63 64 63 63 61 61 61 61 62 64 64 65 65 65 63 64
9 13 17 19 23 27 28 27 29 31 31 31 29 30 31 33 34 35 37 37 36 35 35 35 34 36 39 50 59 63 64 64 65 63 62 62 61 61 61 61 61 62 63 64 65 64 64 64 64
23 23 23 22 26 29 29 29 30 32 31 29 32 33 35 37 40 43 43 39 38 38 38 37 37 38 39 51 58 60 59 62 63 64 63 63 62 62 61 61 62 62 62 62 63 63 63 62 63
26 26 25 26 27 30 30 30 31 31 32 34 35 37 39 39 42 43 46 46 40 39 39 39 39 41 44 53 59 61 61 61 62 63 62 62 61 61 61 61 61 62 63 62 61 61 61 60 62
28 27 26 29 30 31 31 29 27 27 29 35 35 38 40 40 41 43 43 47 49 47 43 41 41 42 45 52 60 61 61 62 61 61 61 61 61 61 62 61 61 62 62 62 62 61 61 58 58
27 28 28 30 32 29 30 26 25 25 27 33 35 38 40 41 42 43 43 47 50 50 51 51 47 49 48 55 59 59 59 59 59 60 61 61 61 61 62 62 61 61 62 62 63 63 61 60 57
29 30 30 32 32 30 28 28 25 26 29 33 35 38 41 42 43 43 45 46 48 49 51 54 52 53 57 57 58 59 59 59 59 59 59 60 60 60 60 61 61 62 62 62 62 62 62 61 58
31 33 34 32 30 26 28 27 26 28 33 36 36 39 40 41 41 42 44 45 46 48 50 53 53 54 56 56 56 56 56 57 56 56 58 58 59 60 60 60 61 61 61 61 62 62 61 61 60
33 33 30 28 28 26 28 28 31 30 37 36 39 38 39 40 41 41 41 42 44 45 46 47 48 49 51 52 52 53 52 52 51 51 52 52 52 53 53 54 57 60 61 61 61 61 61 60 61
31 31 28 24 25 25 30 28 31 36 36 37 39 39 38 39 40 41 41 41 42 43 44 45 45 45 46 47 48 48 48 48 47 47 48 49 49 50 50 51 52 53 55 55 56 59 60 61 61
32 31 34 31 30 26 29 34 32 36 35 36 36 38 38 39 40 40 41 41 41 41 42 42 41 41 41 42 43 45 45 45 44 44 45 46 45 45 46 47 48 49 50 50 52 54 55 59 60
34 36 28 31 24 22 24 25 31 34 36 37 37 37 37 39 40 40 40 41 40 41 41 41 40 39 38 38 37 39 40 42 42 42 41 41 41 41 42 43 43 44 45 47 49 50 50 51 53
34 32 32 28 27 23 18 25 37 36 36 36 37 37 38 39 40 40 40 40 39 39 40 40 40 37 35 34 33 31 34 36 34 34 36 37 37 37 36 37 38 39 41 44 45 46 47 47 48
31 28 27 22 21 25 24 25 36 36 36 36 38 38 39 40 40 40 40 39 39 38 38 38 38 34 33 33 29 32 29 26 27 27 27 28 27 28 27 26 28 28 31 35 39 41 42 44 44

GFSSGP_sfc_dewp_111.txt.gz
Dewpoint
54 52 52 46 32 26 19 23 31 31 31 35 35 34 32 32 31 39 58 59 64 66 68 69 74 75 74 74 74 75 75 74 74 74 72 73 72 71 69 69 68 69 70 70 69 71 71 69 69
51 50 48 39 31 19 19 28 30 34 35 34 33 33 31 37 48 47 55 52 65 67 68 69 74 74 74 74 74 74 74 74 74 73 73 72 72 71 70 69 68 70 71 71 71 71 71 70 69
53 48 39 31 20 19 24 28 33 34 33 32 30 31 34 41 42 42 45 61 66 67 66 69 73 73 73 73 73 72 73 74 73 73 73 72 72 71 70 69 70 71 71 71 71 71 70 69 68
46 44 35 29 19 27 29 31 31 31 31 30 29 29 40 39 40 41 48 64 66 68 67 71 73 73 73 73 73 73 72 73 72 72 72 73 71 71 71 71 71 72 71 71 71 70 69 69 68
47 40 29 23 23 27 31 35 33 28 28 26 28 28 33 38 40 41 46 58 66 67 69 67 72 71 73 72 72 72 72 72 72 72 71 71 71 71 71 71 72 72 71 71 70 69 68 68 68
37 35 22 20 22 28 30 33 31 26 27 27 27 28 32 38 39 42 45 49 64 67 69 67 70 72 72 72 72 72 72 72 72 72 71 70 71 71 71 71 72 72 70 71 70 69 68 68 68
34 26 20 19 21 25 27 28 25 25 25 25 29 27 33 39 36 39 42 47 51 61 67 69 68 68 71 71 71 71 72 72 72 72 72 71 71 71 71 71 72 72 72 71 71 70 69 68 67
33 26 20 19 18 25 30 29 29 28 26 30 28 23 27 34 32 37 40 45 48 49 52 59 68 69 65 64 70 71 71 71 72 72 71 70 70 70 70 70 70 72 71 71 71 70 69 68 68
36 23 20 21 19 26 30 27 30 29 25 21 23 25 26 26 27 32 36 41 45 47 47 48 52 66 67 66 65 69 70 70 70 70 69 69 67 65 66 67 68 70 71 70 70 69 69 69 68
29 23 19 25 27 27 29 26 24 21 17 17 16 17 18 21 24 26 28 32 37 41 45 45 47 52 64 66 67 65 63 63 62 61 62 65 63 62 62 64 67 70 70 69 70 69 69 67 61
28 24 25 29 32 29 25 20 22 18 14 11 12 15 18 21 24 26 24 24 27 33 38 43 46 48 58 66 69 68 66 67 64 62 61 61 61 64 63 63 66 68 67 69 67 67 65 62 57
25 28 26 29 28 25 22 22 18 17 17 15 17 18 21 22 25 27 26 25 25 30 36 42 43 47 49 63 66 69 68 67 66 65 64 62 62 64 62 62 64 67 67 68 69 68 64 62 59
19 21 23 24 25 22 20 21 19 18 17 18 20 24 25 26 28 29 32 31 30 29 33 34 39 45 48 51 64 67 68 67 66 64 63 61 63 64 64 63 65 66 68 68 68 68 66 61 58
22 24 21 22 20 22 22 20 23 17 20 22 26 28 30 31 32 32 33 33 32 33 33 33 32 37 44 47 55 64 66 66 65 63 63 64 66 66 67 67 68 68 69 68 67 65 66 64 59
21 18 20 21 22 22 26 25 23 22 21 25 26 29 32 30 29 28 29 30 29 29 30 31 33 31 34 43 47 57 64 67 65 63 62 63 63 64 64 66 67 67 68 67 68 67 67 66 64
18 15 15 20 24 26 27 16 21 20 22 26 28 30 29 29 29 30 31 32 32 32 31 30 30 32 30 31 42 51 62 65 66 64 63 63 62 62 64 65 65 65 66 66 65 65 65 65 65
14 12 10 21 25 26 27 22 22 26 28 29 30 29 28 29 32 37 37 36 35 35 35 34 34 34 35 33 35 45 62 63 65 64 62 61 64 64 64 64 63 63 64 64 64 65 65 64 65
14 8 12 13 23 26 26 25 26 28 30 30 29 28 29 33 38 40 42 43 44 38 37 36 36 35 36 37 40 49 63 65 64 60 59 60 62 62 62 64 64 62 63 62 64 64 65 64 63
19 18 18 17 26 29 27 27 28 30 31 28 30 31 34 38 40 42 43 44 45 45 39 38 38 37 38 40 41 51 59 62 64 63 60 60 61 60 62 62 61 62 61 61 61 62 62 63 63
25 23 22 26 28 30 30 30 30 31 30 30 32 34 37 39 40 41 43 44 44 46 47 43 39 38 39 42 43 54 58 61 62 63 63 61 61 61 61 61 62 62 63 61 61 62 61 62 63
26 28 27 30 31 31 30 29 28 28 28 30 32 36 40 41 41 42 43 45 46 46 47 48 47 40 40 42 49 56 60 61 61 62 62 62 62 62 62 61 62 62 63 62 62 62 61 60 61
28 28 29 31 32 30 29 27 25 25 26 28 34 36 40 41 41 42 43 44 47 47 49 51 50 48 45 47 47 55 58 59 61 61 61 62 61 61 62 62 62 62 62 62 62 62 62 61 60
30 31 32 32 31 30 28 30 24 26 26 29 35 37 39 41 41 42 42 43 44 47 49 51 53 51 50 50 53 57 57 58 58 60 60 60 60 61 61 62 62 62 62 62 62 62 62 62 61
32 34 33 31 30 30 29 28 22 27 30 34 36 38 39 40 41 41 42 43 43 45 48 49 51 52 54 54 54 55 54 53 54 55 57 56 56 55 54 55 58 61 61 61 61 61 61 61 61
35 34 33 30 31 28 27 30 30 29 34 35 36 38 38 40 40 41 41 41 42 43 45 47 48 48 50 51 51 51 51 52 51 52 52 52 52 51 51 52 54 54 55 55 56 59 60 61 60
30 31 29 23 25 26 30 29 31 34 35 36 36 37 38 39 40 40 40 40 41 41 43 43 44 45 47 48 48 48 48 48 48 47 47 46 47 47 47 48 49 49 50 51 52 55 55 54 59
31 30 32 30 28 26 28 34 33 33 32 35 35 37 38 38 39 40 40 40 40 41 41 40 37 38 38 40 43 44 45 43 42 41 42 43 43 41 43 44 44 44 46 48 49 50 50 51 53
34 33 27 31 22 21 23 25 30 33 37 34 35 36 37 39 40 40 40 40 40 40 40 41 38 33 33 31 30 32 34 36 37 36 36 37 38 38 38 38 39 40 41 44 46 47 47 48 49
33 31 30 26 24 21 15 23 37 36 36 35 35 36 39 39 40 40 40 40 39 39 39 38 37 35 32 30 30 27 30 32 31 30 30 31 33 32 32 32 33 33 35 37 39 39 41 42 44
31 29 26 22 18 23 21 22 34 35 36 36 36 37 39 40 40 40 39 39 38 38 38 36 35 34 31 31 28 28 27 26 24 23 23 22 23 23 23 23 24 25 27 31 33 34 34 36 37

GFSSGP_sfc_dewp_114.txt.gz
Dewpoint
56 52 53 50 39 33 27 31 31 31 31 34 34 34 33 38 41 48 50 56 64 67 70 70 75 74 74 74 74 73 74 74 74 73 73 72 72 71 69 68 67 68 68 68 67 70 71 69 70
54 48 52 46 35 25 25 29 31 35 35 34 33 34 32 44 41 44 45 56 65 67 70 68 74 74 74 74 74 74 74 74 73 72 72 72 72 71 70 69 68 69 70 71 71 71 71 69 69
54 50 46 39 28 26 29 31 36 34 33 32 32 31 40 42 41 41 47 61 66 67 69 70 73 73 73 73 73 73 74 73 73 73 73 72 71 71 70 69 70 71 71 71 71 72 71 69 70
50 49 43 33 26 29 30 31 31 32 32 30 30 36 40 41 42 43 47 54 65 66 69 70 72 73 73 73 73 73 72 73 73 72 73 72 71 71 71 71 71 71 72 71 71 71 69 70 70
49 45 34 26 28 28 34 34 32 28 28 27 28 29 38 40 42 43 46 51 65 66 68 69 72 72 72 72 72 73 72 72 72 72 72 71 71 71 71 72 72 72 72 71 71 70 69 69 69
43 40 30 26 26 29 31 32 31 26 27 27 28 28 38 39 40 43 47 49 54 62 67 69 70 72 72 72 72 72 72 72 72 72 72 72 71 71 71 71 71 72 72 70 71 70 69 68 68
42 33 28 23 27 27 28 28 25 26 25 28 29 27 38 38 38 40 43 47 51 54 54 61 68 69 70 71 71 72 72 72 72 72 72 71 71 71 71 72 71 71 72 70 71 70 69 68 68
40 32 25 22 23 29 31 30 29 28 27 28 28 24 28 27 27 36 40 44 48 49 51 51 54 66 67 67 70 70 71 71 71 71 71 70 70 70 71 70 70 71 71 71 71 70 70 69 69
40 31 24 24 22 29 30 28 30 29 26 22 21 22 22 21 29 30 35 39 44 47 49 47 49 50 62 66 68 69 69 70 70 70 69 69 69 67 68 68 68 70 71 71 71 70 69 69 68
34 29 27 28 30 29 29 25 22 21 18 17 19 22 20 22 27 28 29 32 35 38 42 46 48 49 49 64 67 67 66 66 66 67 67 68 67 66 64 66 67 69 70 70 70 69 69 68 66
32 29 28 29 32 29 26 21 23 20 18 14 14 17 19 22 24 28 26 26 27 33 38 41 44 47 49 53 65 68 68 68 66 62 61 62 63 63 63 65 66 68 67 69 68 68 67 65 62
27 28 26 32 30 28 24 22 20 19 19 18 17 21 22 23 28 31 30 29 29 32 35 38 41 43 48 51 63 65 67 68 67 66 65 64 62 63 63 63 66 67 67 68 67 67 66 64 61
25 24 25 26 28 23 20 21 20 19 20 19 21 26 27 29 31 33 36 36 35 34 36 38 39 40 44 48 53 64 66 67 67 66 65 63 64 62 63 62 64 67 67 67 67 67 67 65 61
23 28 24 25 24 23 24 23 24 19 20 22 25 28 30 32 32 31 32 32 31 31 33 34 37 38 41 44 47 55 65 66 66 65 64 63 65 64 65 65 66 66 67 67 67 67 66 65 65
22 23 23 23 26 26 28 26 25 23 22 23 25 27 32 32 30 30 34 33 32 33 34 33 32 33 36 36 41 45 58 65 66 65 63 63 63 64 64 65 66 66 67 67 67 66 66 65 64
19 18 18 23 26 29 28 19 25 21 20 25 27 29 32 31 31 36 40 40 42 40 35 36 36 35 34 34 35 40 46 62 65 65 63 62 63 62 63 65 64 66 66 66 66 66 65 65 64
15 15 12 23 28 29 27 24 26 26 26 27 30 30 29 32 39 41 42 42 43 44 42 37 38 38 38 36 37 36 39 60 64 65 64 63 62 63 63 63 63 63 63 64 64 64 64 63 63
20 10 14 15 27 27 26 26 27 28 28 30 31 29 32 37 40 42 43 44 44 45 45 45 40 39 39 40 41 42 48 59 62 64 63 62 62 63 62 62 62 62 62 61 63 63 63 63 63
22 20 19 20 28 29 28 28 29 31 31 30 30 32 37 38 40 43 44 45 45 45 46 46 47 43 41 41 41 40 43 58 60 62 62 61 62 62 62 62 62 60 61 60 62 62 61 62 63
27 24 26 29 30 31 30 30 31 32 31 31 32 36 39 40 41 42 43 43 44 46 47 47 48 49 47 42 43 44 51 57 58 60 62 62 61 62 62 62 61 61 62 61 61 61 61 61 62
27 27 28 29 32 33 31 30 29 30 29 31 33 39 40 40 40 41 42 42 44 44 46 47 49 51 52 43 45 47 52 56 57 58 60 61 61 62 62 61 61 61 61 61 61 61 61 60 60
30 29 30 32 31 27 30 23 26 27 28 29 35 37 39 40 40 40 42 42 43 44 45 48 49 53 53 49 46 46 50 52 54 56 59 61 61 61 62 62 61 61 60 60 60 62 61 60 59
32 33 32 33 30 28 28 25 27 25 25 33 35 37 39 39 40 40 42 43 43 44 46 48 49 50 51 53 51 51 51 52 54 53 56 58 58 58 59 59 61 61 60 59 59 61 60 61 59
32 34 35 32 30 25 28 26 24 27 30 34 36 37 39 39 40 41 42 42 42 43 44 46 46 47 50 51 51 51 52 52 52 51 52 54 53 53 54 56 56 56 56 56 58 59 59 59 60
35 33 23 22 28 22 28 24 28 29 35 35 35 36 38 39 40 41 41 41 41 41 43 43 42 43 47 48 47 48 47 48 48 49 47 48 48 48 49 50 50 51 51 52 53 55 55 54 56
31 30 21 16 18 21 30 21 30 34 35 37 36 37 37 38 40 41 41 41 41 41 41 40 39 37 41 45 46 46 45 45 44 44 44 44 45 45 45 44 45 46 47 49 50 52 50 51 52
32 29 31 25 26 21 25 30 33 34 33 35 35 36 36 38 40 40 41 41 40 41 41 39 37 33 33 31 36 37 41 41 40 39 40 40 39 38 39 39 40 41 44 45 47 48 47 49 49
35 33 27 29 15 17 21 26 28 33 33 36 34 35 36 39 40 40 40 40 40 40 40 40 37 36 33 31 28 29 32 32 34 34 34 34 34 34 34 34 36 36 38 41 43 43 44 43 46
33 32 30 27 24 19 17 20 37 34 37 36 35 36 37 39 40 40 40 40 40 39 39 38 37 35 34 31 30 27 28 30 28 26 27 29 30 29 29 30 32 32 34 37 38 38 38 38 39
32 30 29 23 19 23 21 22 34 35 36 37 36 37 38 39 40 41 41 40 39 37 38 36 35 34 32 31 27 28 27 26 25 24 24 23 21 22 20 21 22 23 26 29 31 31 33 35 36

GFSSGP_sfc_dewp_117.txt.gz
Dewpoint
58 55 52 48 33 31 28 29 30 30 32 33 34 33 39 43 45 48 50 55 65 67 70 71 74 74 74 74 74 73 74 73 73 72 72 72 71 71 68 67 67 69 67 67 67 69 70 70 70
55 54 49 43 32 20 24 30 33 33 35 33 32 32 36 41 40 42 46 52 65 67 70 70 74 74 74 74 74 74 73 73 73 73 72 72 71 71 70 68 67 68 69 70 70 71 71 70 69
52 53 44 38 27 25 28 35 32 32 30 30 31 38 41 41 40 42 45 53 66 67 69 70 72 72 72 72 73 74 74 73 73 73 72 72 71 71 70 70 69 70 71 72 71 71 71 70 69
50 47 39 31 27 29 30 30 32 31 30 29 30 37 39 42 42 44 46 54 65 66 69 71 72 72 72 72 73 73 72 72 72 72 72 72 71 70 71 71 71 71 71 71 72 71 70 70 70
48 43 32 24 26 33 33 32 30 27 27 28 28 32 37 42 42 44 46 50 58 61 67 70 72 72 72 72 72 72 72 72 72 72 72 72 71 71 71 72 71 71 71 71 71 70 70 69 69
42 37 28 27 26 30 29 28 28 27 27 28 28 30 39 40 39 42 47 48 53 52 56 66 70 72 72 72 72 72 72 72 72 72 72 72 71 72 71 72 72 72 72 71 70 71 70 69 69
40 31 27 25 27 27 29 27 27 27 25 28 29 26 37 36 38 39 43 43 50 52 51 52 56 69 70 70 71 71 72 71 71 72 72 71 71 71 71 72 72 72 72 71 70 71 70 69 69
37 29 24 21 26 29 30 30 30 28 27 26 27 24 31 24 31 33 34 39 43 48 49 47 49 51 57 67 70 70 70 71 71 71 71 70 69 70 71 71 71 71 71 71 71 71 70 69 69
35 26 24 26 28 29 29 28 28 27 25 24 21 20 22 25 29 28 31 32 37 42 46 45 47 46 47 53 67 69 69 69 70 70 69 68 69 69 68 68 69 70 71 71 71 71 70 69 68
33 28 28 31 29 28 27 23 21 20 19 18 18 18 20 22 25 26 27 29 30 31 36 42 45 47 48 46 60 67 67 67 68 69 69 68 68 68 67 66 67 69 70 70 71 71 69 68 66
28 26 29 32 30 28 26 22 22 20 17 17 17 17 20 22 25 29 28 28 28 30 35 36 36 40 43 47 51 65 67 67 66 64 65 66 67 67 66 64 65 67 67 68 69 69 67 66 65
26 26 28 32 29 27 25 22 19 20 19 21 22 25 25 24 27 30 31 34 33 35 36 38 39 39 41 49 49 59 64 66 67 66 66 64 63 63 63 63 66 67 67 67 67 67 66 66 65
23 24 24 27 27 24 22 21 19 20 20 21 22 27 26 28 32 33 34 33 33 32 35 36 38 38 39 40 47 50 61 64 66 67 66 65 64 64 63 63 64 67 67 67 67 66 66 65 64
24 24 24 24 24 24 25 24 25 20 20 22 24 26 29 32 32 31 36 37 37 38 38 36 37 36 38 40 40 45 53 63 65 66 66 65 64 64 65 64 65 65 67 67 67 66 66 66 65
21 20 23 24 25 26 30 23 24 22 22 22 23 25 30 32 32 38 41 41 42 43 42 39 37 38 37 36 37 38 44 53 64 65 65 63 64 63 64 64 64 65 66 66 66 65 66 65 65
19 16 17 22 26 29 23 5 23 25 22 20 23 28 32 36 40 41 42 43 43 44 45 45 45 42 38 37 37 36 38 44 56 63 64 63 62 63 63 63 64 65 65 65 65 66 65 65 64
16 15 16 23 27 28 25 18 25 27 26 25 29 30 35 40 42 43 43 44 45 45 45 46 47 47 45 40 39 39 39 39 52 61 63 63 62 62 62 63 63 63 63 63 63 63 63 63 64
18 16 14 18 26 28 26 26 27 28 28 29 33 34 38 39 41 43 44 44 45 45 47 47 47 48 48 48 42 42 45 46 51 58 62 63 63 62 61 62 62 62 61 61 61 62 62 62 62
23 21 20 24 28 30 27 28 29 31 31 30 31 37 39 40 41 43 43 44 44 45 46 46 47 48 49 50 48 41 40 45 50 58 60 61 61 61 61 61 61 61 60 60 60 60 59 59 62
26 24 27 28 31 31 31 30 31 33 33 30 35 39 39 39 40 42 43 43 43 44 44 45 47 49 51 52 52 45 44 49 55 57 58 58 59 61 61 61 61 60 58 59 59 61 61 61 62
27 26 27 28 32 33 31 28 30 31 30 32 39 40 39 39 40 40 41 42 43 42 43 45 47 49 50 51 52 49 48 51 53 54 55 55 57 58 60 61 61 60 60 60 60 60 60 58 59
27 30 31 33 28 22 30 19 28 28 27 31 36 38 37 38 40 40 41 42 42 42 43 44 46 48 48 50 51 49 46 48 51 52 54 56 56 56 56 59 61 61 61 59 59 60 59 58 57
31 33 32 33 28 25 26 22 26 27 27 33 35 36 37 38 40 41 41 42 42 42 43 44 45 46 48 49 49 50 50 51 51 51 52 53 52 52 51 53 59 61 61 60 59 59 59 59 59
33 34 34 33 30 23 24 25 23 25 27 34 35 36 38 39 40 41 41 41 42 42 43 42 42 41 45 48 47 47 48 48 47 48 48 50 49 49 48 49 52 53 55 55 56 57 56 56 59
34 31 17 22 22 19 28 20 26 29 35 34 35 34 34 37 38 41 41 41 41 42 42 40 38 36 37 42 44 45 45 44 43 43 43 44 44 43 43 46 47 49 50 52 53 52 51 52 52
33 29 17 7 13 19 25 19 24 33 35 36 36 36 35 36 38 39 41 40 41 41 41 40 38 34 34 35 38 41 42 41 41 41 41 40 41 41 42 43 44 45 46 47 49 48 49 50 50
32 26 31 21 20 15 19 25 31 34 35 35 35 35 33 34 38 39 39 39 40 39 40 39 37 35 33 32 32 32 33 36 38 38 38 37 37 34 38 37 38 38 39 41 42 44 43 46 48
34 34 25 25 12 14 17 21 25 32 32 35 34 35 35 36 39 39 40 40 40 40 40 40 37 34 33 31 28 28 30 30 30 29 29 30 30 31 31 32 32 33 35 38 38 39 39 39 42
32 30 31 27 24 18 17 18 31 33 34 33 35 35 36 36 38 39 41 40 40 40 39 37 37 34 33 30 29 27 28 29 27 25 25 25 26 26 25 26 27 27 27 32 32 33 33 36 38
33 31 29 22 19 22 21 20 30 35 35 37 36 36 37 38 38 40 40 40 39 38 38 35 33 32 29 30 27 26 26 25 24 22 20 19 19 20 20 20 21 22 24 27 29 30 31 31 31